[[{"header":{"parameterUnit":"m.s-1","parameterCategory":1,"la1":30.6,"la2":29.2853,"lo1":-89.7004,"lo2":-87.6739,"dy":0.0162,"dx":0.0183,"nx":112,"ny":82,"refTime":"2023-07-21T12:00:00:Z","depth":0,"parameterNumber":2,"parameterNumberName":"U-component_of_WINDS"},"data":[0.0,0.0,0.0,0.0,0.0,0.0,0.0,0.0,0.0,0.0,0.0,0.0,0.0,0.0,0.0,0.0,0.0,0.0,0.0,0.0,0.0,0.0,0.0,0.0,0.0,0.0,0.0,0.0,0.0,0.0,0.0,0.0,0.0,0.0,0.0,0.0,0.0,0.0,0.0,0.0,0.0,0.0,0.0,0.0,0.0,0.0,0.0,0.0,0.0,0.0,0.0,0.0,0.0,0.0,0.0,0.0,0.0,0.0,0.0,0.0,0.0,0.0,0.0,0.0,0.0,0.0,0.0,0.0,0.0,0.0,0.0,0.0,0.0,0.0,0.0,0.0,0.0,0.0,0.0,0.0,0.0,0.0,0.0,0.0,0.0,0.0,0.0,0.0,0.0,0.0,-0.9413,-0.9413,-0.9159,-0.9113,-0.9361,-0.9061,-0.8857,-0.9008,0.0,0.0,0.0,0.0,0.0,0.0,0.0,0.0,0.0,0.0,0.0,0.0,0.0,0.0,0.0,0.0,0.0,0.0,0.0,0.0,0.0,0.0,0.0,0.0,0.0,0.0,0.0,0.0,0.0,0.0,0.0,0.0,0.0,0.0,0.0,0.0,0.0,0.0,0.0,0.0,0.0,0.0,0.0,0.0,0.0,0.0,0.0,0.0,0.0,0.0,0.0,0.0,0.0,0.0,0.0,0.0,0.0,0.0,0.0,0.0,0.0,0.0,0.0,0.0,0.0,0.0,0.0,0.0,0.0,0.0,0.0,0.0,0.0,0.0,0.0,0.0,0.0,0.0,0.0,0.0,0.0,0.0,0.0,0.0,0.0,0.0,0.0,0.0,0.0,0.0,0.0,0.0,0.0,0.0,0.0,0.0,0.0,0.0,0.0,0.0,0.0,0.0,0.0,0.0,-0.9562,-0.9562,-0.9211,-0.9113,-0.9361,-0.9159,-0.8956,-0.9008,0.0,0.0,0.0,0.0,0.0,0.0,0.0,0.0,0.0,0.0,0.0,0.0,0.0,0.0,0.0,0.0,0.0,0.0,0.0,0.0,0.0,0.0,0.0,0.0,0.0,0.0,0.0,0.0,0.0,0.0,0.0,0.0,0.0,0.0,0.0,0.0,0.0,0.0,0.0,0.0,0.0,0.0,0.0,0.0,0.0,0.0,0.0,0.0,0.0,0.0,0.0,0.0,0.0,0.0,0.0,0.0,0.0,0.0,0.0,0.0,0.0,0.0,0.0,0.0,0.0,0.0,0.0,0.0,0.0,0.0,0.0,0.0,0.0,0.0,0.0,0.0,0.0,0.0,0.0,0.0,0.0,0.0,0.0,0.0,0.0,0.0,0.0,0.0,0.0,0.0,0.0,0.0,0.0,0.0,0.0,0.0,0.0,0.0,0.0,0.0,0.0,0.0,0.0,-0.9316,-0.9361,-0.9361,-0.9113,-0.8956,-0.9159,-0.9008,-0.891,-0.891,-0.8857,0.0,0.0,0.0,0.0,0.0,0.0,0.0,0.0,0.0,0.0,0.0,0.0,0.0,0.0,0.0,0.0,0.0,0.0,0.0,0.0,0.0,0.0,0.0,0.0,0.0,0.0,0.0,0.0,0.0,0.0,0.0,0.0,0.0,0.0,0.0,0.0,0.0,0.0,0.0,0.0,0.0,0.0,0.0,0.0,0.0,0.0,0.0,0.0,0.0,0.0,0.0,0.0,0.0,0.0,0.0,0.0,0.0,0.0,0.0,0.0,0.0,0.0,0.0,0.0,0.0,0.0,0.0,0.0,0.0,0.0,0.0,0.0,0.0,0.0,0.0,0.0,0.0,0.0,0.0,0.0,0.0,0.0,0.0,0.0,0.0,0.0,0.0,0.0,0.0,0.0,0.0,0.0,0.0,0.0,0.0,0.0,0.0,0.0,0.0,0.0,0.0,0.0,-0.9274,-0.9323,-0.9323,-0.9126,-0.9065,-0.922,-0.8998,-0.8911,-0.8911,-0.8844,0.0,0.0,0.0,0.0,0.0,0.0,0.0,0.0,0.0,0.0,0.0,0.0,0.0,0.0,0.0,0.0,0.0,0.0,0.0,0.0,0.0,0.0,0.0,0.0,0.0,0.0,0.0,0.0,0.0,0.0,0.0,0.0,0.0,0.0,0.0,0.0,0.0,0.0,0.0,0.0,0.0,0.0,0.0,0.0,0.0,0.0,0.0,0.0,0.0,0.0,0.0,0.0,0.0,0.0,0.0,0.0,0.0,0.0,0.0,0.0,0.0,0.0,0.0,0.0,0.0,0.0,0.0,0.0,0.0,0.0,0.0,0.0,0.0,0.0,0.0,0.0,0.0,0.0,0.0,0.0,0.0,0.0,0.0,0.0,0.0,0.0,0.0,0.0,0.0,0.0,0.0,0.0,0.0,0.0,0.0,0.0,0.0,0.0,0.0,0.0,0.0,0.0,-0.9463,-0.9645,-0.9645,-0.9629,-0.9677,-0.9843,-0.9422,-0.9157,-0.9157,-0.8958,0.0,0.0,0.0,0.0,0.0,0.0,0.0,0.0,0.0,0.0,0.0,0.0,0.0,0.0,0.0,0.0,0.0,0.0,0.0,0.0,0.0,0.0,0.0,0.0,0.0,0.0,0.0,0.0,0.0,0.0,0.0,0.0,0.0,0.0,0.0,0.0,0.0,0.0,0.0,0.0,0.0,0.0,0.0,0.0,0.0,0.0,0.0,0.0,0.0,0.0,0.0,0.0,0.0,0.0,0.0,0.0,0.0,0.0,0.0,0.0,0.0,0.0,0.0,0.0,0.0,0.0,0.0,0.0,0.0,0.0,0.0,0.0,0.0,0.0,0.0,0.0,0.0,0.0,0.0,0.0,0.0,0.0,0.0,0.0,0.0,0.0,0.0,0.0,0.0,0.0,0.0,0.0,0.0,0.0,0.0,0.0,0.0,0.0,0.0,0.0,0.0,0.0,-1.0002,-1.008,0.0,-0.9843,-0.9795,-0.9795,-0.9637,-0.9519,-0.9519,0.0,0.0,0.0,0.0,0.0,0.0,0.0,0.0,0.0,0.0,0.0,0.0,0.0,0.0,0.0,0.0,0.0,0.0,0.0,0.0,0.0,0.0,0.0,0.0,0.0,0.0,0.0,0.0,0.0,0.0,0.0,0.0,0.0,0.0,0.0,0.0,0.0,0.0,0.0,0.0,0.0,0.0,0.0,0.0,0.0,0.0,0.0,0.0,0.0,0.0,0.0,0.0,0.0,0.0,0.0,0.0,0.0,0.0,0.0,0.0,0.0,0.0,0.0,0.0,0.0,0.0,0.0,0.0,0.0,0.0,0.0,0.0,0.0,0.0,0.0,0.0,0.0,0.0,0.0,0.0,0.0,0.0,0.0,0.0,0.0,0.0,0.0,0.0,0.0,0.0,0.0,0.0,0.0,0.0,0.0,0.0,0.0,0.0,0.0,0.0,0.0,0.0,-1.02,-1.0335,-1.034,0.0,-1.0078,-1.0079,-1.002,-0.9873,-0.982,-0.982,0.0,0.0,0.0,0.0,0.0,0.0,0.0,0.0,0.0,0.0,0.0,0.0,0.0,0.0,0.0,0.0,0.0,0.0,0.0,0.0,0.0,0.0,0.0,0.0,0.0,0.0,0.0,0.0,0.0,0.0,0.0,0.0,0.0,0.0,0.0,0.0,0.0,0.0,0.0,0.0,0.0,0.0,0.0,0.0,0.0,0.0,0.0,0.0,0.0,0.0,0.0,0.0,0.0,0.0,0.0,0.0,0.0,0.0,0.0,0.0,0.0,0.0,0.0,0.0,0.0,0.0,0.0,0.0,0.0,0.0,0.0,0.0,0.0,0.0,0.0,0.0,0.0,0.0,0.0,0.0,0.0,0.0,0.0,0.0,0.0,0.0,0.0,0.0,0.0,0.0,0.0,0.0,0.0,0.0,0.0,0.0,0.0,0.0,0.0,0.0,0.0,0.0,-1.0207,-1.0474,-1.0544,-1.043,-1.0512,-1.0624,-1.0624,-1.0294,-1.012,0.0,0.0,0.0,0.0,0.0,0.0,0.0,0.0,0.0,0.0,0.0,0.0,0.0,0.0,0.0,0.0,0.0,0.0,0.0,0.0,0.0,0.0,0.0,0.0,0.0,0.0,0.0,0.0,0.0,0.0,0.0,0.0,0.0,0.0,0.0,0.0,0.0,0.0,0.0,0.0,0.0,0.0,0.0,0.0,0.0,0.0,0.0,0.0,0.0,0.0,0.0,0.0,0.0,0.0,0.0,0.0,0.0,0.0,0.0,0.0,0.0,0.0,0.0,0.0,0.0,0.0,0.0,0.0,0.0,0.0,0.0,0.0,0.0,0.0,0.0,0.0,0.0,0.0,0.0,0.0,0.0,0.0,0.0,0.0,0.0,0.0,0.0,0.0,0.0,0.0,0.0,0.0,0.0,0.0,0.0,0.0,0.0,0.0,0.0,0.0,0.0,0.0,0.0,-1.1153,-1.124,-1.1174,-1.0926,-1.0947,-1.0877,-1.0624,-1.0481,-1.0428,-1.0428,0.0,0.0,0.0,0.0,0.0,0.0,0.0,0.0,0.0,0.0,0.0,0.0,0.0,0.0,0.0,0.0,0.0,0.0,0.0,0.0,0.0,0.0,0.0,0.0,0.0,0.0,0.0,0.0,0.0,0.0,0.0,0.0,0.0,0.0,0.0,0.0,0.0,0.0,0.0,0.0,0.0,0.0,0.0,0.0,0.0,0.0,0.0,0.0,0.0,0.0,0.0,0.0,0.0,0.0,0.0,0.0,0.0,0.0,0.0,0.0,0.0,0.0,0.0,0.0,0.0,0.0,0.0,0.0,0.0,0.0,0.0,0.0,0.0,0.0,0.0,0.0,0.0,0.0,0.0,0.0,0.0,0.0,0.0,0.0,0.0,0.0,0.0,0.0,0.0,0.0,0.0,0.0,0.0,0.0,0.0,0.0,0.0,0.0,0.0,0.0,0.0,0.0,-1.156,-1.156,-1.1373,-1.1122,-1.1059,-1.087,-1.0624,-1.0624,-1.0624,-1.0624,0.0,0.0,0.0,0.0,0.0,0.0,0.0,0.0,0.0,0.0,0.0,0.0,0.0,0.0,0.0,0.0,0.0,0.0,0.0,0.0,0.0,0.0,0.0,0.0,0.0,0.0,0.0,0.0,0.0,0.0,0.0,0.0,0.0,0.0,0.0,0.0,0.0,0.0,0.0,0.0,0.0,0.0,0.0,0.0,0.0,0.0,0.0,0.0,0.0,0.0,0.0,0.0,0.0,0.0,0.0,0.0,0.0,0.0,0.0,0.0,0.0,0.0,0.0,0.0,0.0,0.0,0.0,0.0,0.0,0.0,0.0,0.0,0.0,0.0,0.0,0.0,0.0,0.0,0.0,0.0,0.0,0.0,0.0,0.0,0.0,0.0,0.0,0.0,0.0,0.0,0.0,0.0,0.0,0.0,0.0,0.0,0.0,0.0,0.0,0.0,0.0,0.0,-1.156,-1.1428,-1.1247,-1.1122,-1.0933,-1.0744,-1.0624,-1.0624,-1.0624,-1.0624,0.0,0.0,0.0,0.0,0.0,0.0,0.0,0.0,0.0,0.0,0.0,0.0,0.0,0.0,0.0,0.0,0.0,0.0,0.0,0.0,0.0,0.0,0.0,0.0,0.0,0.0,0.0,0.0,0.0,0.0,0.0,0.0,0.0,0.0,0.0,0.0,0.0,0.0,0.0,0.0,0.0,0.0,0.0,0.0,0.0,0.0,0.0,0.0,0.0,0.0,0.0,0.0,0.0,0.0,0.0,0.0,0.0,0.0,0.0,0.0,-1.0385,0.0,0.0,0.0,0.0,0.0,0.0,0.0,0.0,0.0,0.0,0.0,0.0,0.0,0.0,0.0,0.0,0.0,0.0,0.0,0.0,0.0,0.0,0.0,0.0,0.0,0.0,0.0,0.0,0.0,0.0,0.0,0.0,0.0,0.0,0.0,0.0,0.0,0.0,0.0,0.0,0.0,-1.156,-1.156,-1.1435,-1.1303,-1.1122,-1.0933,-1.0744,-1.0681,-1.0624,-1.0624,-1.0624,0.0,0.0,0.0,0.0,0.0,0.0,0.0,0.0,0.0,0.0,0.0,0.0,0.0,0.0,0.0,0.0,0.0,0.0,0.0,0.0,0.0,0.0,0.0,0.0,0.0,0.0,0.0,0.0,0.0,0.0,0.0,0.0,0.0,0.0,0.0,0.0,0.0,0.0,0.0,0.0,0.0,0.0,0.0,0.0,0.0,0.0,0.0,0.0,0.0,0.0,0.0,0.0,0.0,0.0,0.0,0.0,0.0,0.0,0.0,0.0,-1.0686,0.0,0.0,0.0,0.0,0.0,0.0,0.0,0.0,0.0,0.0,0.0,0.0,0.0,0.0,0.0,0.0,0.0,0.0,0.0,0.0,0.0,0.0,0.0,0.0,0.0,0.0,0.0,0.0,0.0,0.0,0.0,0.0,0.0,0.0,0.0,0.0,0.0,0.0,0.0,0.0,-1.1622,-1.1622,-1.1498,-1.1303,-1.1247,-1.1122,-1.0933,-1.087,-1.0807,-1.0807,-1.0807,0.0,0.0,0.0,0.0,0.0,0.0,0.0,0.0,0.0,0.0,0.0,0.0,0.0,0.0,0.0,0.0,0.0,0.0,0.0,0.0,0.0,0.0,0.0,0.0,0.0,0.0,0.0,0.0,0.0,0.0,0.0,0.0,0.0,0.0,0.0,0.0,0.0,0.0,0.0,0.0,0.0,0.0,0.0,0.0,0.0,0.0,0.0,0.0,0.0,0.0,0.0,0.0,0.0,-1.1532,-1.1621,-1.1506,-1.1621,-1.1678,-1.1678,-1.1678,-1.1549,-1.1318,-1.1318,0.0,0.0,0.0,0.0,0.0,0.0,0.0,0.0,0.0,0.0,0.0,0.0,0.0,0.0,0.0,0.0,0.0,0.0,0.0,0.0,0.0,0.0,0.0,0.0,-1.1791,-1.1735,-1.1337,0.0,0.0,0.0,0.0,0.0,0.0,0.0,0.0,0.0,0.0,0.0,-1.1641,-1.1641,-1.16,-1.1524,-1.1467,-1.1383,-1.1206,-1.1206,-1.1178,-1.1129,-1.1122,-1.1059,0.0,0.0,0.0,0.0,0.0,0.0,0.0,0.0,0.0,0.0,0.0,0.0,0.0,0.0,0.0,0.0,0.0,0.0,0.0,0.0,0.0,0.0,0.0,0.0,0.0,0.0,0.0,0.0,0.0,0.0,0.0,0.0,-1.4437,-1.3777,0.0,0.0,0.0,0.0,0.0,0.0,0.0,0.0,0.0,0.0,0.0,0.0,0.0,-1.1439,-1.1439,-1.1739,-1.1889,-1.1897,-1.2274,-1.2425,-1.2425,-1.2425,-1.2477,-1.2477,-1.2477,0.0,-1.1487,-1.1487,0.0,0.0,0.0,0.0,0.0,0.0,0.0,0.0,0.0,0.0,0.0,0.0,0.0,0.0,0.0,0.0,0.0,0.0,0.0,0.0,0.0,0.0,-1.1997,-1.2043,-1.2027,-1.205,0.0,-1.175,-1.1571,-1.1615,-1.1622,0.0,0.0,0.0,0.0,0.0,0.0,0.0,-1.197,-1.197,-1.208,-1.2298,-1.2267,-1.2019,-1.1739,-1.1523,-1.1339,-1.1136,-1.1122,-1.08,-1.0148,-1.0667,0.0,0.0,0.0,0.0,0.0,0.0,0.0,0.0,0.0,0.0,0.0,0.0,0.0,0.0,0.0,0.0,0.0,0.0,0.0,0.0,0.0,0.0,0.0,0.0,0.0,0.0,0.0,0.0,0.0,-1.4707,-1.4777,-1.4165,-1.379,-1.3413,0.0,0.0,0.0,0.0,0.0,0.0,0.0,0.0,0.0,-1.2091,-1.2091,-1.2186,-1.2385,-1.2544,-1.2718,-1.2901,-1.306,-1.3132,-1.3132,-1.3132,-1.3132,-1.3132,-1.3132,-1.2957,-1.2631,-1.225,-1.2091,-1.2091,0.0,0.0,0.0,0.0,-1.1781,-1.1589,-1.1646,-1.1741,-1.1802,-1.1818,0.0,0.0,0.0,0.0,0.0,0.0,0.0,0.0,0.0,0.0,-1.2375,-1.2375,-1.2313,-1.2182,-1.212,-1.2022,-1.197,0.0,-1.1677,-1.1744,-1.1794,0.0,0.0,0.0,0.0,-1.2306,-1.2306,-1.2306,-1.2365,-1.2504,-1.2458,-1.2333,-1.2188,-1.2114,-1.1904,-1.1653,-1.1632,-1.1362,-1.0919,-1.073,-1.0471,0.0,0.0,0.0,0.0,0.0,0.0,0.0,0.0,0.0,0.0,0.0,0.0,0.0,0.0,0.0,0.0,0.0,0.0,0.0,0.0,0.0,0.0,0.0,0.0,0.0,0.0,0.0,0.0,-1.4881,-1.4898,-1.4334,-1.3728,-1.3282,0.0,0.0,0.0,0.0,0.0,0.0,-1.2695,-1.2703,-1.2797,-1.2822,-1.2885,-1.2949,-1.3219,-1.3219,-1.3338,-1.3584,-1.3584,-1.3584,-1.3584,-1.3584,-1.3651,-1.3725,-1.3725,-1.3784,-1.3801,-1.3068,-1.2703,-1.2687,-1.2661,-1.2621,-1.2621,-1.2621,-1.2504,-1.2425,-1.2425,-1.2425,-1.2425,-1.2425,-1.2549,-1.256,-1.2428,0.0,0.0,0.0,0.0,-1.239,-1.2476,-1.2632,-1.2781,-1.2869,-1.2759,-1.2625,-1.2507,-1.2572,-1.2455,0.0,-1.1933,-1.201,-1.2116,0.0,0.0,0.0,0.0,-1.265,-1.265,-1.265,-1.268,-1.276,-1.2767,-1.2738,-1.265,-1.265,-1.2504,-1.2182,-1.216,-1.2014,-1.1692,-1.1094,-1.0932,-1.131,0.0,0.0,0.0,0.0,0.0,0.0,0.0,0.0,0.0,0.0,0.0,0.0,0.0,0.0,0.0,0.0,0.0,0.0,0.0,0.0,0.0,0.0,0.0,0.0,0.0,0.0,0.0,0.0,0.0,-1.4582,-1.387,0.0,0.0,0.0,0.0,-1.2597,-1.2613,-1.2773,-1.3044,-1.3068,-1.3211,-1.3521,-1.3529,-1.3537,-1.3553,-1.3553,-1.3568,-1.3584,-1.3584,-1.3584,-1.3584,-1.3584,-1.3792,-1.414,-1.414,-1.4329,-1.455,-1.3534,-1.3068,-1.3028,-1.2695,-1.2621,-1.2621,-1.2621,-1.2345,-1.2043,-1.2043,-1.2043,-1.2043,-1.2043,-1.2282,-1.2621,-1.256,-1.256,0.0,0.0,-1.256,-1.2639,-1.2981,-1.3068,-1.3147,-1.3457,-1.3529,-1.3529,-1.3529,-1.3545,-1.3259,0.0,-1.2262,-1.2482,-1.2489,0.0,-1.2855,-1.257,-1.2782,-1.2987,-1.2987,-1.2987,-1.3104,-1.3411,-1.3448,-1.3323,-1.3009,-1.2987,-1.2848,-1.2519,-1.2497,-1.235,-1.1956,-1.1942,-1.1739,-1.131,-1.1178,0.0,0.0,0.0,0.0,0.0,0.0,0.0,0.0,0.0,0.0,0.0,0.0,0.0,0.0,0.0,0.0,0.0,0.0,0.0,0.0,0.0,0.0,0.0,0.0,0.0,0.0,0.0,0.0,-1.5118,-1.4529,0.0,-1.3551,-1.3514,-1.3424,-1.3268,-1.3219,-1.3275,-1.3402,-1.341,-1.3465,-1.3576,-1.3584,-1.3696,-1.3918,-1.3918,-1.4037,-1.4268,-1.4506,-1.4617,-1.4617,-1.4832,-1.5008,-1.5146,-1.5207,-1.5242,-1.5263,-1.4739,-1.4346,-1.412,-1.3978,-1.3928,-1.3928,-1.3928,-1.3844,-1.3727,-1.3482,-1.3427,-1.3363,-1.3092,-1.3116,-1.3219,-1.3219,-1.3219,-1.3219,-1.3219,-1.3219,-1.3251,-1.337,-1.341,-1.3433,-1.3553,-1.3584,-1.3584,-1.3475,-1.3632,-1.3614,-1.3097,-1.2938,-1.2938,-1.3011,-1.3005,-1.3038,-1.3133,-1.325,-1.3323,-1.3323,-1.3323,-1.3367,-1.3484,-1.3492,-1.3448,-1.3331,-1.3323,-1.3184,-1.2855,-1.2833,-1.2687,-1.2365,-1.235,-1.2131,-1.1739,-1.1339,-1.0586,0.0,0.0,0.0,0.0,0.0,0.0,0.0,0.0,0.0,0.0,0.0,0.0,0.0,0.0,0.0,0.0,0.0,0.0,0.0,0.0,0.0,0.0,0.0,0.0,0.0,0.0,-1.5635,-1.5635,-1.4972,-1.4489,-1.4247,-1.4008,-1.3786,-1.3635,-1.3584,-1.3632,-1.3751,-1.3878,-1.3997,-1.4125,-1.4236,-1.4473,-1.4848,-1.4848,-1.5041,-1.543,-1.5675,-1.5798,-1.5806,-1.6035,-1.6209,-1.6345,-1.6329,-1.6377,-1.649,-1.6288,-1.6061,-1.5771,-1.4979,-1.4706,-1.4706,-1.4706,-1.4629,-1.4517,-1.4275,-1.421,-1.4162,-1.4008,-1.3916,-1.3792,-1.3792,-1.3717,-1.3584,-1.3584,-1.3584,-1.3608,-1.3727,-1.3759,-1.3791,-1.391,-1.3942,-1.3942,-1.3821,-1.3924,-1.4011,-1.3956,-1.37,-1.3477,-1.3558,-1.3383,-1.3322,-1.3542,-1.3572,-1.3492,-1.3492,-1.3492,-1.3492,-1.3492,-1.3492,-1.3492,-1.3492,-1.3492,-1.3404,-1.3184,-1.317,-1.3023,-1.2701,-1.2405,-1.2255,-1.2138,-1.1154,-1.0149,-0.9125,0.0,0.0,0.0,0.0,0.0,0.0,0.0,0.0,0.0,0.0,0.0,0.0,0.0,0.0,0.0,0.0,0.0,0.0,0.0,0.0,0.0,0.0,0.0,-1.6467,-1.6237,-1.6145,-1.6145,-1.5314,-1.478,-1.4724,-1.4073,-1.3683,-1.3699,-1.364,-1.3799,-1.414,-1.4482,-1.4832,-1.5189,-1.5583,-1.5904,-1.6353,-1.6353,-1.659,-1.6977,-1.6985,-1.6994,-1.6994,-1.7003,-1.7229,-1.7521,-1.7503,-1.7737,-1.8063,-1.8128,-1.8128,-1.7898,-1.5701,-1.4775,-1.4767,-1.4767,-1.459,-1.4253,-1.4253,-1.4253,-1.4251,-1.4629,-1.4495,-1.4239,-1.4239,-1.3965,-1.3616,-1.3616,-1.3616,-1.3696,-1.4037,-1.4132,-1.4212,-1.4482,-1.4569,-1.4569,-1.4569,-1.4569,-1.4569,-1.4569,-1.4346,-1.4129,-1.4129,-1.3928,-1.379,-1.379,-1.3645,0.0,-1.3492,-1.3492,-1.3499,-1.3499,-1.3492,-1.3492,-1.3492,-1.3492,-1.3492,-1.3492,-1.3492,-1.3353,-1.3038,-1.2303,-1.2018,-1.2473,-1.0875,-0.96,-0.8799,0.0,0.0,0.0,0.0,0.0,0.0,0.0,0.0,0.0,0.0,0.0,0.0,0.0,0.0,0.0,0.0,0.0,0.0,0.0,0.0,0.0,0.0,-1.7811,-1.6922,-1.681,-1.6753,-1.6753,-1.6296,-1.591,-1.5752,-1.5565,-1.5356,-1.5135,-1.5105,-1.5141,-1.5245,-1.5632,-1.588,-1.5986,-1.6388,-1.6674,-1.6817,-1.6817,-1.6893,-1.6977,-1.7261,-1.739,-1.7398,-1.7595,-1.7802,-1.7864,-1.789,-1.8006,-1.8065,-1.8088,-1.8128,-1.8008,-1.7415,-1.6982,-1.6711,-1.6711,-1.633,-1.5718,-1.5718,-1.5377,-1.4905,-1.5005,-1.4768,-1.4495,-1.4495,-1.4425,-1.4347,-1.4347,-1.4347,-1.4371,-1.4466,-1.4498,-1.4522,-1.4545,-1.4569,-1.4569,-1.4569,-1.4569,-1.4569,-1.4569,-1.4497,-1.4425,-1.4353,-1.4137,-1.3992,-1.3992,-1.3992,0.0,-1.392,-1.3783,-1.3717,-1.3717,-1.3572,-1.3492,-1.3492,-1.3492,-1.3492,-1.3492,-1.3492,-1.3455,-1.3367,-1.3136,-1.2699,-1.2025,-1.0817,-0.9851,0.0,0.0,0.0,0.0,0.0,0.0,0.0,0.0,0.0,0.0,0.0,0.0,0.0,0.0,0.0,0.0,0.0,0.0,0.0,0.0,0.0,0.0,-1.8454,-1.855,-1.8155,-1.8102,-1.8002,-1.7735,-1.7605,-1.7309,-1.672,-1.6384,-1.61,-1.5731,-1.5867,-1.598,-1.598,-1.6503,-1.6825,-1.6825,-1.7209,-1.7527,-1.7691,-1.7691,-1.7768,-1.7991,-1.8144,-1.825,-1.8258,-1.8488,-1.8514,-1.8576,-1.8592,-1.8563,-1.8623,-1.8638,-1.8614,0.0,0.0,0.0,0.0,0.0,-1.7206,-1.6776,-1.6614,-1.6272,-1.5912,-1.5912,-1.563,-1.5284,-1.5133,-1.4991,-1.4848,-1.4641,-1.4569,-1.4569,-1.4569,-1.4569,-1.4569,-1.4569,-1.4569,-1.4569,-1.4569,-1.4569,-1.4569,-1.4569,-1.4569,0.0,-1.4497,-1.4353,-1.4209,-1.4209,-1.4129,-1.4129,-1.4129,-1.3992,-1.3928,-1.3928,-1.3855,-1.371,-1.3645,-1.3645,0.0,0.0,0.0,-1.3346,-1.3046,-1.3346,0.0,0.0,0.0,-1.0114,-0.9275,-0.8354,0.0,0.0,-0.7343,-0.7138,0.0,0.0,0.0,0.0,0.0,0.0,0.0,0.0,0.0,0.0,0.0,0.0,0.0,0.0,0.0,0.0,-1.8996,-1.9286,-1.9767,-1.9873,-1.9684,-1.9008,-1.9072,-1.881,-1.7832,-1.7061,-1.6496,-1.6114,-1.63,-1.6478,-1.6478,0.0,0.0,0.0,0.0,-1.8362,-1.8772,-1.8772,-1.8922,-1.9301,-1.9301,-1.9301,-1.9301,-1.9301,-1.9301,-1.9301,-1.9301,-1.9301,-1.9301,-1.9301,-1.9301,-1.9228,-1.8485,-1.8192,-1.8137,-1.7724,-1.7568,-1.7513,-1.711,0.0,0.0,-1.6848,-1.6551,-1.6202,-1.5903,-1.5551,-1.5196,-1.4848,-1.4713,-1.4641,-1.4641,-1.4641,-1.4569,-1.4569,-1.4569,-1.4569,-1.4569,-1.4569,-1.4569,-1.4569,-1.4569,-1.4569,-1.4569,-1.4497,-1.4425,-1.4425,-1.4281,-1.4129,-1.4129,-1.4129,-1.4129,-1.4129,0.0,0.0,-1.3863,-1.3863,-1.3717,-1.3564,-1.3499,-1.32,-1.2452,-1.3119,-1.2826,-1.126,-1.1089,-1.0532,-0.9666,-0.8714,-0.8255,-0.8108,-0.7558,-0.7236,0.0,0.0,0.0,0.0,0.0,0.0,0.0,0.0,0.0,0.0,0.0,0.0,0.0,0.0,0.0,-2.0128,-2.0389,-2.0684,-2.1174,-2.1577,-2.1463,-2.0656,-2.0479,-2.0288,-1.9929,-1.905,-1.8424,-1.8348,-1.7944,-1.7649,-1.7649,-1.8214,-1.8506,-1.8506,-1.8877,-1.9063,-1.9152,-1.9152,-1.9222,-1.9301,0.0,0.0,-1.9301,-1.9301,-1.9301,-1.9301,-1.9301,-1.9301,-1.9301,-1.9301,-1.9301,-1.9256,-1.8779,-1.8595,-1.855,-1.8146,-1.7999,-1.7944,-1.7523,-1.7162,-1.6821,-1.6519,-1.6193,-1.5903,-1.5833,-1.5762,0.0,-1.5621,-1.5338,-1.5062,-1.5062,-1.4848,-1.4569,-1.4569,-1.4569,-1.4569,-1.4569,-1.4569,-1.4569,-1.4569,-1.4569,-1.4569,-1.4569,-1.4569,-1.4569,-1.4569,-1.4497,-1.4497,-1.4497,-1.4425,-1.4353,-1.4353,-1.4209,-1.4057,-1.4065,-1.4065,-1.3928,-1.3717,-1.3572,-1.3419,-1.3273,-1.3419,-1.3046,-1.2077,-1.2024,-1.1323,-0.9846,-0.9458,-0.8985,-0.833,-0.7914,-0.7653,0.0,0.0,0.0,0.0,0.0,0.0,0.0,0.0,0.0,0.0,0.0,-1.9508,0.0,0.0,-2.038,-2.0975,-2.1152,-2.1396,-2.1887,-2.216,-2.201,-2.132,-2.1355,-2.1188,-2.0565,-1.9783,-1.9223,-1.899,-1.8559,-1.8371,-1.8371,-1.8763,-1.9002,-1.9002,-1.9231,-1.9301,-1.9301,-1.9301,-1.9301,-1.9301,-1.9301,-1.9301,-1.9301,-1.9301,-1.9301,-1.9301,-1.9301,-1.9301,-1.9301,-1.9301,-1.9301,-1.9283,-1.9081,-1.9008,-1.8962,-1.8568,-1.8421,-1.8357,-1.7954,-1.7524,-1.7171,-1.6982,-1.6643,-1.6333,-1.6123,-1.6053,-1.6053,-1.5833,-1.5692,-1.548,-1.5267,-1.5062,-1.4856,-1.4641,-1.4569,-1.4689,-1.4871,-1.4768,-1.4697,-1.4879,-1.4768,-1.4569,-1.4569,-1.4569,-1.4569,-1.4569,-1.4569,-1.4569,-1.4569,-1.4569,-1.4497,-1.4497,-1.4425,-1.4346,-1.4281,-1.4129,-1.4065,-1.3928,-1.3783,-1.3645,-1.3645,-1.3564,-1.3346,-1.29,-1.2526,-1.1929,-1.1111,-1.0165,-0.9516,-0.914,-0.8452,-0.8033,0.0,0.0,0.0,0.0,0.0,0.0,0.0,0.0,-1.9583,-1.9681,-2.0009,-2.0435,-2.0915,-2.107,-2.1166,-2.1647,-2.1734,-2.1898,-2.2379,-2.2455,-2.2299,-2.1765,-2.2019,-2.1852,-2.0817,-2.0216,-1.9756,-1.9283,-1.8993,-1.8851,-1.8851,-1.9152,-1.9301,-1.9301,-1.9301,-1.9301,-1.9301,-1.9301,-1.9301,-1.9301,-1.9301,-1.9301,-1.9301,-1.9301,-1.9301,-1.9301,-1.9301,-1.9301,-1.9301,-1.9301,-1.9301,-1.9301,-1.9301,-1.9301,-1.9265,-1.8944,-1.8825,-1.877,-1.8375,-1.8018,-1.7715,-1.7642,-1.7348,-1.6948,-1.6598,-1.6474,-1.6342,-1.6123,-1.5974,-1.5833,-1.5488,-1.5346,-1.515,-1.4864,-1.4744,-1.4847,-1.5205,-1.5046,-1.4911,-1.5141,-1.4951,-1.472,-1.4585,-1.4569,-1.4569,-1.4569,-1.4569,-1.4569,-1.4569,-1.4569,-1.4569,-1.4569,-1.4569,-1.4569,-1.4433,-1.4281,-1.4129,-1.4129,-1.4,-1.3863,-1.3797,-1.3645,-1.3572,-1.3492,-1.2893,-1.2452,-1.2305,-1.0812,-1.0067,-0.9841,-0.8911,-0.8344,-2.2864,-2.2477,-2.1749,-2.1077,-2.0415,-1.9911,0.0,0.0,-2.0183,-2.0609,-2.074,-2.0926,-2.1417,-2.1505,-2.1669,-2.216,-2.2237,-2.24,-2.2859,-2.2925,-2.2925,-2.285,-2.2894,-2.2553,-2.1721,-2.1242,-2.0779,-2.0079,-1.9539,-1.9222,-1.9222,-1.9301,-1.9301,-1.9301,-1.9301,-1.9301,-1.9301,-1.9301,-1.9301,-1.9301,-1.9301,-1.9301,-1.9301,-1.9301,-1.9301,-1.9301,-1.9301,-1.9301,-1.9301,-1.9301,-1.9301,-1.9301,-1.9301,-1.9301,-1.9292,-1.9256,-1.9237,-1.9182,-1.8779,-1.8614,-1.8513,-1.8164,-1.777,-1.7431,-1.7359,-1.7113,-1.6839,-1.676,-1.6551,-1.6202,-1.6202,-1.57,-1.5287,-1.5536,-1.5339,-1.5213,-1.5554,-1.5594,-1.5491,-1.5237,-1.5149,-1.5022,-1.4697,-1.4569,-1.4569,-1.4569,-1.4569,-1.4569,-1.4569,-1.4569,-1.4569,-1.4569,-1.4569,-1.4569,-1.4569,-1.4425,-1.4353,-1.4353,-1.4209,-1.4,-1.3797,-1.3797,-1.3645,-1.3492,-1.3419,-1.3046,-1.2305,-1.1409,-1.0594,-0.9841,-0.9059,-0.8562,-2.2138,-2.1761,0.0,0.0,-2.0754,-2.0631,-2.0915,-2.0981,-2.1046,-2.1243,-2.1286,-2.1439,-2.192,-2.2018,-2.2171,0.0,-2.2717,-2.2783,-2.2968,-2.3001,-2.3001,-2.3001,-2.3001,-2.2852,-2.2553,-2.2014,-2.1634,-2.1328,-2.0779,-2.0391,-2.0391,-2.0391,-2.0391,-2.0391,-2.0001,-1.9854,-1.9854,-1.946,-1.9301,-1.9301,-1.9301,-1.9301,-1.9301,-1.9301,-1.9301,-1.9301,-1.9301,-1.9301,-1.9301,-1.9301,-1.9301,-1.9301,-1.9301,-1.9301,-1.9301,-1.9301,-1.9301,-1.9283,-1.9118,-1.8907,-1.8687,-1.8522,-1.8192,-1.7816,-1.7568,-1.7376,-1.7202,-1.6972,-1.6933,-1.6893,-1.6384,-1.6268,-1.6104,-1.5804,-1.5619,-1.5562,-1.5912,-1.5825,-1.5697,-1.5769,-1.5459,-1.5133,-1.4982,-1.4784,-1.4569,-1.4569,-1.4569,-1.4569,-1.4569,-1.4569,-1.4569,-1.4569,-1.4569,-1.4569,-1.4569,-1.4569,-1.4497,-1.4497,-1.4353,-1.4209,-1.4145,-1.4072,-1.3855,-1.3645,-1.3645,-1.3419,-1.2973,-1.1706,-1.0962,-1.0594,-0.9306,-0.8656,-2.199,0.0,0.0,-2.1207,-2.1151,-2.1155,-2.1505,-2.1592,-2.1625,-2.1767,-2.1789,-2.1942,-2.2422,-2.251,-2.2608,-2.2947,-2.3001,-2.3001,-2.3001,-2.3001,-2.3001,-2.3001,-2.3001,-2.3001,-2.3001,-2.2478,-2.2025,-2.1863,-2.1471,-2.1165,-2.1165,-2.1165,-2.1088,-2.0934,-2.0469,-2.0079,-1.9932,-1.9539,-1.9301,-1.9301,-1.9301,-1.9301,-1.9301,-1.9301,-1.9301,-1.9301,-1.9301,-1.9301,-1.9301,-1.9301,-1.9301,-1.9301,-1.9301,-1.9301,-1.9301,-1.9301,-1.9301,-1.9301,-1.9301,-1.9118,-1.8871,-1.8871,-1.8605,-1.8229,-1.7926,-1.7752,-1.7605,-1.7321,-1.7449,-1.7524,-1.6785,-1.6779,-1.6716,-1.6187,-1.5902,-1.592,-1.6277,-1.615,-1.6015,-1.6174,-1.5809,-1.5404,-1.5213,-1.4967,-1.476,-1.4657,-1.4569,-1.4569,-1.4569,-1.4569,-1.4569,-1.4569,-1.4569,-1.4569,-1.4569,-1.4569,-1.4569,-1.4569,-1.4497,-1.4425,-1.4425,-1.4281,-1.4065,-1.3797,-1.3797,-1.3717,-1.3492,-1.2077,-1.1335,-1.1037,-0.9679,-0.8932,0.0,0.0,-2.2562,-2.1912,-2.1654,-2.157,-2.1581,-2.1592,-2.1723,-2.2193,-2.2302,-2.2433,-2.2892,-2.2979,-2.299,-2.3001,-2.3001,-2.3001,-2.3001,-2.3001,-2.3001,-2.3001,-2.3001,-2.3001,0.0,-2.2478,-2.1863,-2.1242,-2.1242,-2.1165,-2.1165,-2.1165,-2.0934,-2.0245,-2.0235,-1.9932,-1.9301,-1.9301,-1.9301,-1.9301,-1.9301,-1.9301,-1.9301,-1.9301,-1.9301,-1.9301,-1.9301,-1.9301,-1.9301,-1.9301,-1.9301,-1.9301,-1.9301,-1.9301,-1.9301,-1.9301,-1.9301,-1.9301,-1.9301,-1.9292,-1.9283,-1.9283,-1.9017,-1.8687,-1.8678,-1.8412,-1.81,-1.8091,-1.81,-1.7952,-1.7578,-1.7212,-1.6852,-1.681,-1.6499,-1.6285,-1.6643,-1.6706,-1.6603,-1.6269,-1.619,-1.5968,-1.53,-1.5173,-1.5046,-1.4697,-1.4569,-1.4569,-1.4569,-1.4569,-1.4569,-1.4569,-1.4569,-1.4569,-1.4569,-1.4569,-1.4569,-1.4569,-1.4569,-1.4569,-1.4433,-1.4353,-1.4217,-1.3797,-1.3797,-1.3717,-1.3492,-1.2673,-1.1855,-1.1111,-1.0218,-0.9463,0.0,0.0,-2.2687,-2.225,-2.2072,-2.216,-2.2455,-2.2521,-2.2564,-2.2739,-2.2531,-2.2368,-2.2521,-2.2553,-2.2553,-2.2553,-2.2805,-2.3001,-2.3001,-2.3001,-2.3001,-2.3001,-2.3001,0.0,0.0,0.0,0.0,-2.2392,-2.2381,-2.2381,-2.2381,-2.2381,-2.2306,-2.208,-2.1318,-2.0779,-2.0547,-1.9687,-1.9301,-1.9301,-1.9301,-1.9301,-1.9301,-1.9301,-1.9301,-1.9301,-1.9301,-1.9301,-1.9301,-1.9301,-1.9301,-1.9301,-1.9301,-1.9301,-1.9301,-1.9301,-1.9301,-1.9301,-1.9301,-1.9301,-1.9301,-1.9301,-1.921,-1.9054,-1.8788,-1.8623,-1.8458,-1.8201,-1.8311,-1.8361,-1.7655,-1.7544,-1.7451,-1.6847,-1.6636,-1.6587,-1.6706,-1.673,-1.6698,-1.6579,-1.6365,-1.6134,-1.5904,-1.5483,-1.5062,-1.4697,-1.4569,-1.4569,-1.4569,-1.4569,-1.4569,-1.4569,-1.4569,-1.4569,-1.4569,-1.4569,-1.4569,-1.4569,-1.4569,-1.4569,-1.4497,-1.4497,-1.4433,-1.4217,-1.4217,-1.4,-1.3717,-1.29,-1.2003,-1.1111,-1.0293,-0.9463,0.0,-2.3506,-2.3375,-2.3445,-2.3404,-2.3345,-2.3356,-2.329,-2.3105,-2.2823,-2.239,-2.2062,-2.2062,-2.2062,-2.2062,-2.2062,-2.2455,-2.2761,-2.2761,-2.2892,-2.3001,-2.3001,-2.3001,-2.3001,0.0,0.0,0.0,-2.3001,-2.3001,-2.3001,-2.3001,-2.3001,-2.2927,-2.2703,-2.1939,-2.1395,-2.1165,-2.0391,-1.9844,-1.9618,-1.9381,-1.9301,-1.9301,-1.9301,-1.9301,-1.9301,-1.9301,-1.9301,-1.9301,-1.9301,-1.9301,-1.9301,-1.9301,-1.9301,-1.9301,-1.9301,-1.9301,-1.9301,-1.9301,-1.9301,-1.9301,-1.9301,-1.9301,-1.9256,-1.8999,-1.8916,-1.8871,-1.8614,-1.8724,-1.8761,-1.8057,-1.7931,-1.7789,-1.7139,-1.682,-1.673,-1.673,-1.673,-1.673,-1.673,-1.6547,-1.6357,-1.623,-1.5634,-1.5102,-1.4871,-1.472,-1.4569,-1.4569,-1.4569,-1.4569,-1.4569,-1.4569,-1.4569,-1.4569,-1.4569,-1.4569,-1.4569,-1.4569,-1.4569,-1.4569,-1.4569,-1.4569,-1.4425,-1.4425,-1.4217,-1.3797,-1.2973,-1.2077,-1.1111,-1.0293,-0.9463,-2.4832,-2.4782,-2.4619,-2.5319,-2.533,-2.5004,-2.423,-2.3729,-2.3126,-2.2413,-2.1898,-2.1549,0.0,0.0,-2.1549,-2.1549,-2.1964,-2.2291,-2.2313,-2.2695,-2.2968,0.0,0.0,0.0,0.0,0.0,0.0,-2.3001,0.0,-2.3001,-2.3001,-2.3001,-2.2777,-2.2176,-2.2101,-2.1863,-2.1242,-2.1242,-2.0857,-2.0235,-1.9618,-1.9381,-1.9381,-1.9381,-1.9301,-1.9301,-1.9301,-1.9301,-1.9301,-1.9301,-1.9301,-1.9301,-1.9301,-1.9301,-1.9301,-1.9301,-1.9301,-1.9301,-1.9301,-1.9301,-1.9301,-1.9301,-1.9301,-1.9301,-1.9301,-1.9301,-1.9301,-1.9301,-1.9301,-1.9222,-1.8772,-1.8371,-1.7878,-1.7473,-1.7066,-1.673,-1.673,-1.673,-1.673,-1.673,-1.673,-1.6619,-1.6269,-1.5666,-1.5229,-1.5189,-1.4887,-1.4593,-1.4569,-1.4569,-1.4569,-1.4569,-1.4569,-1.4569,-1.4569,-1.4569,-1.4569,-1.4569,-1.4569,-1.4569,-1.4569,-1.4569,-1.4569,-1.4425,-1.4425,-1.4217,-1.379,-1.3046,-1.2077,-1.1111,-1.0293,-0.9463,-2.5256,-2.5281,-2.5259,-2.5335,-2.4897,-2.4244,-2.3732,-2.3074,-2.2419,-2.1914,-2.1385,-2.1046,0.0,0.0,0.0,-2.1046,-2.1461,0.0,-2.2269,-2.2422,0.0,0.0,0.0,-2.3001,-2.3001,-2.3001,0.0,0.0,-2.3001,-2.3001,-2.3001,-2.3001,-2.2927,-2.2777,-2.2327,-2.2025,-2.1873,-2.1395,-2.1088,-2.0934,-2.0313,-2.001,-2.001,-2.001,-1.9696,-1.9301,-1.9775,-1.9696,-1.9301,-1.9301,-1.9301,-1.9301,-1.9301,-1.9301,-1.9301,-1.9301,-1.9301,-1.9301,-1.9301,-1.9301,-1.9301,-1.9301,-1.9301,-1.9301,-1.9301,-1.9301,-1.9301,-1.9301,-1.9301,-1.9222,-1.8772,-1.8371,-1.7878,-1.7473,-1.7066,-1.673,-1.673,-1.673,-1.673,-1.673,-1.673,-1.6619,-1.6269,-1.6063,-1.5769,-1.5261,-1.511,-1.4951,-1.4601,-1.4569,-1.4569,-1.4569,-1.4569,-1.4569,-1.4569,-1.4569,-1.4569,-1.4569,-1.4569,-1.4569,-1.4569,-1.4569,-1.4569,-1.4569,-1.4569,-1.4353,-1.3992,-1.3244,-1.2211,-1.1111,-1.0293,-0.9463,-2.5818,-2.5949,-2.5945,-2.6202,-2.5697,-2.4979,-2.4465,-2.3352,-2.2324,-2.1811,-2.1073,0.0,0.0,0.0,0.0,0.0,0.0,0.0,-2.1931,-2.2182,-2.2488,0.0,-2.3001,0.0,-2.3001,-2.3001,-2.3001,0.0,-2.3001,-2.3001,-2.3001,-2.3001,-2.3001,-2.3001,-2.2703,-2.2478,-2.2478,-2.1863,-2.1558,-2.1558,-2.0934,-2.0624,-2.0624,-2.0624,-2.0313,-1.9696,0.0,-1.9854,-1.9301,-1.9301,-1.9301,-1.9301,-1.9301,-1.9301,-1.9301,-1.9301,-1.9301,-1.9301,-1.9301,-1.9301,-1.9301,-1.9301,-1.9301,-1.9301,-1.9301,-1.9301,-1.9301,-1.9301,-1.9301,-1.9222,-1.9002,-1.8612,-1.821,-1.7797,-1.731,-1.6984,-1.673,-1.673,-1.673,-1.673,-1.673,-1.6675,-1.6468,-1.6309,-1.6023,-1.5483,-1.5276,-1.5054,-1.4689,-1.4569,-1.4569,-1.4569,-1.4569,-1.4569,-1.4569,-1.4569,-1.4569,-1.4569,-1.4569,-1.4569,-1.4569,-1.4569,-1.4569,-1.4569,-1.4569,-1.4497,-1.4209,-1.3011,-1.1977,-1.1174,-0.9981,-0.916,-2.6479,-2.6668,-2.6688,-2.7323,-2.6921,-2.6083,-2.544,-2.3965,-2.2521,-2.1727,0.0,0.0,-2.0151,0.0,-2.0085,-2.0085,0.0,-2.0937,-2.1428,-2.1909,-2.239,-2.2859,-2.2968,-2.3001,-2.3001,-2.3001,-2.3001,-2.3001,-2.3001,-2.3001,-2.3001,-2.3001,-2.3001,-2.3001,-2.3001,-2.3001,-2.3001,-2.2478,-2.2252,-2.2176,-2.1634,-2.1318,-2.1318,-2.1318,-2.0934,-2.0313,-2.0313,-2.001,-1.9381,-1.9301,-1.9301,-1.9301,-1.9301,-1.9301,-1.9301,-1.9301,-1.9301,-1.9301,-1.9301,-1.9301,-1.9301,-1.9301,-1.9301,-1.9301,-1.9301,-1.9301,-1.9301,-1.9301,-1.9301,-1.9301,-1.9301,-1.9002,-1.8612,-1.8121,-1.7716,-1.7229,-1.682,-1.673,-1.673,-1.673,-1.673,-1.673,-1.673,-1.6476,-1.6142,-1.5737,-1.5435,-1.5102,-1.4697,-1.4569,-1.4569,-1.4569,-1.4569,-1.4569,-1.4569,-1.4569,-1.4569,-1.4569,-1.4569,-1.4569,-1.4569,-1.4569,-1.4569,-1.4569,-1.4569,-1.4497,-1.4425,-1.2565,-1.1601,-1.1378,-0.9523,-0.8703,-2.7026,-2.7324,-2.7323,-2.7469,-2.6534,-2.5348,-2.4328,-2.3412,0.0,0.0,0.0,-2.0752,-2.0205,-2.0085,0.0,-2.0085,0.0,0.0,0.0,0.0,-2.1898,0.0,0.0,0.0,0.0,0.0,0.0,0.0,0.0,-2.3001,-2.3001,-2.3001,-2.3001,-2.3001,-2.3001,-2.3001,-2.3001,-2.2927,-2.2852,-2.2852,-2.2252,-2.1949,-2.1949,-2.1949,-2.1634,-2.1011,-2.1011,0.0,-2.001,-1.9539,-1.9301,-1.9301,-1.9301,-1.9301,-1.9301,-1.9301,-1.9301,-1.9301,-1.9301,-1.9301,-1.9301,-1.9301,-1.9301,-1.9301,-1.9301,-1.9301,-1.9301,-1.9301,-1.9301,-1.9301,-1.9301,-1.9002,-1.8612,-1.8121,-1.7716,-1.7229,-1.682,-1.673,-1.673,-1.673,-1.673,-1.673,-1.673,-1.6683,-1.642,-1.5777,-1.5626,-1.5364,-1.472,-1.4569,-1.4569,-1.4569,-1.4569,-1.4569,-1.4569,-1.4569,-1.4569,-1.4569,-1.4569,-1.4569,-1.4569,-1.4569,-1.4569,-1.4569,-1.4569,-1.4497,-1.4425,-1.2565,-1.1601,-1.1378,-0.9523,-0.8703,-2.721,-2.7255,-2.6841,-2.6601,-2.5762,-2.467,-2.3603,0.0,0.0,0.0,0.0,-2.0506,-2.014,0.0,0.0,0.0,0.0,0.0,0.0,0.0,0.0,0.0,0.0,0.0,0.0,0.0,0.0,0.0,0.0,-2.3001,-2.3001,-2.3001,-2.3001,-2.3001,-2.3001,-2.3001,-2.3001,-2.3001,-2.3001,-2.3001,-2.2703,-2.2402,-2.2101,-2.2402,-2.1863,-2.0702,-2.1405,-2.0934,-1.9696,-1.9775,-1.9608,-1.9301,-1.9301,-1.946,-1.9696,-1.9381,-1.9539,-1.9687,-1.9381,-1.9301,-1.9301,-1.9301,-1.9301,-1.9301,-1.9301,-1.9301,-1.9301,-1.9301,-1.9301,-1.9301,-1.9301,-1.9002,-1.8612,-1.8121,-1.7546,-1.6984,-1.6738,-1.673,-1.673,-1.673,-1.673,-1.673,-1.673,-1.673,-1.6492,-1.5785,-1.5674,-1.5427,-1.4656,-1.4569,-1.4569,-1.4569,-1.4569,-1.4569,-1.4569,-1.4569,-1.4569,-1.4569,-1.4569,-1.4569,-1.4569,-1.4569,-1.4569,-1.4569,-1.4569,-1.4425,-1.4057,-1.2492,-1.1459,-1.1025,-0.9453,-0.8703,-2.6883,-2.6681,-2.6164,-2.5788,-2.4979,-2.4129,-2.3369,-2.2619,0.0,0.0,-2.0816,-2.0453,-2.014,0.0,0.0,0.0,0.0,0.0,0.0,0.0,0.0,0.0,0.0,0.0,0.0,0.0,0.0,0.0,0.0,0.0,-2.3001,-2.3001,-2.3001,-2.3001,-2.3001,-2.3001,-2.3001,-2.3001,-2.3001,-2.3001,-2.3001,-2.2777,-2.2327,-2.2777,-2.2231,-2.0857,-2.1711,-2.1252,-1.9923,-2.0235,-2.0157,-1.9687,-1.9687,-2.0001,-2.0313,-1.9687,-1.9775,-2.0089,-1.9539,-1.9301,-1.9301,-1.9301,-1.9301,-1.9301,-1.9301,-1.9301,-1.9301,-1.9301,-1.9301,-1.9301,-1.9301,-1.9082,-1.8692,-1.8121,-1.7383,-1.682,-1.673,-1.673,-1.673,-1.673,-1.673,-1.673,-1.673,-1.673,-1.6516,-1.5888,-1.5729,-1.5451,-1.4832,-1.4617,-1.4569,-1.4569,-1.4569,-1.4569,-1.4569,-1.4569,-1.4569,-1.4569,-1.4569,-1.4569,-1.4569,-1.4569,-1.4569,-1.4569,-1.4569,-1.4418,-1.3977,-1.2418,-1.1465,-1.0956,-0.9377,-0.8703,-2.5811,-2.5918,-2.5829,-2.5777,-2.4924,-2.4004,-2.3904,0.0,0.0,0.0,-2.1553,-2.1553,-2.0324,-2.0085,0.0,0.0,0.0,0.0,0.0,0.0,0.0,0.0,0.0,0.0,0.0,0.0,0.0,0.0,0.0,0.0,-2.3001,-2.3001,-2.3001,-2.3001,-2.3001,-2.3001,-2.3001,-2.3001,-2.3001,-2.3001,-2.3001,-2.3001,-2.2927,-2.3001,-2.2927,-2.2692,-2.2327,-2.2025,0.0,-2.1318,-2.1088,-2.1011,-2.1011,-2.1088,-2.1011,-2.0391,-2.0167,-2.0089,-1.9539,-1.9301,-1.9301,-1.9301,-1.9301,-1.9301,-1.9301,-1.9301,-1.9301,-1.9301,-1.9301,-1.9301,-1.9301,-1.9301,-1.9063,-1.8193,-1.7635,-1.7229,-1.6812,-1.673,-1.673,-1.673,-1.673,-1.673,-1.673,-1.673,-1.6603,-1.6214,-1.588,-1.5547,-1.5181,-1.4847,-1.4569,-1.4569,-1.4569,-1.4569,-1.4569,-1.4569,-1.4569,-1.4569,-1.4569,-1.4569,-1.4569,-1.4569,-1.4569,-1.4569,-1.4569,-1.4569,-1.4497,-1.2638,-1.1675,-1.1601,-0.9599,-0.8703,-2.5667,-2.5497,-2.509,-2.4809,-2.4292,-2.3717,-2.3009,0.0,0.0,-2.1928,-2.1616,-2.1302,-2.0816,-2.0388,-2.0085,0.0,0.0,0.0,0.0,0.0,0.0,0.0,0.0,0.0,0.0,0.0,0.0,0.0,0.0,0.0,-2.3001,-2.3001,-2.3001,-2.3001,-2.3001,-2.3001,-2.3001,-2.3001,-2.3001,-2.3001,-2.3001,-2.2777,-2.2478,-2.2852,-2.2617,-2.1928,-2.2392,-2.2241,0.0,-2.1711,-2.1558,-2.1165,-2.1165,-2.1165,-2.1088,-2.0469,-2.0167,-2.0089,-1.9539,-1.9301,-1.9301,-1.9301,-1.9301,-1.9301,-1.9301,-1.9301,-1.9301,-1.9301,-1.9301,-1.9301,-1.9301,-1.8904,-1.8353,-1.7797,-1.731,-1.6902,-1.673,-1.673,-1.673,-1.673,-1.673,-1.673,-1.673,-1.673,-1.6619,-1.6261,-1.5904,-1.5554,-1.5229,-1.4863,-1.4569,-1.4569,-1.4569,-1.4569,-1.4569,-1.4569,-1.4569,-1.4569,-1.4569,-1.4569,-1.4569,-1.4569,-1.4569,-1.4569,-1.4274,-1.3912,-1.355,-1.1916,-1.095,-1.0576,-0.9301,-0.8703,-2.521,-2.4931,-2.4456,-2.4124,-2.3629,-2.3133,0.0,0.0,0.0,-2.1928,-2.1439,-2.1071,-2.0816,-2.0388,-2.0085,0.0,0.0,0.0,0.0,0.0,0.0,0.0,0.0,0.0,0.0,0.0,0.0,0.0,0.0,0.0,-2.3001,-2.3001,-2.3001,-2.3001,-2.3001,-2.3001,-2.3001,-2.3001,-2.3001,-2.3001,-2.3001,-2.2777,-2.2402,-2.2777,-2.2542,-2.1776,-2.2617,-2.2542,0.0,-2.2166,-2.209,-2.17,-2.1558,-2.1471,-2.1395,-2.0469,-2.0167,-2.0089,-1.9539,-1.9301,-1.9301,-1.9301,-1.9301,-1.9301,-1.9301,-1.9301,-1.9301,-1.9301,-1.9301,-1.9301,-1.9301,-1.8825,-1.8273,-1.7716,-1.731,-1.6976,-1.673,-1.673,-1.673,-1.673,-1.673,-1.673,-1.673,-1.673,-1.6651,-1.6397,-1.5975,-1.5594,-1.5364,-1.4927,-1.4569,-1.4569,-1.4569,-1.4569,-1.4569,-1.4569,-1.4569,-1.4569,-1.4569,-1.4569,-1.4569,-1.4425,-1.4346,-1.4346,-1.384,-1.3331,-1.29,-1.1484,-1.0588,-1.0143,-0.9155,-0.8703,-2.4138,-2.4125,-2.4138,-2.4125,-2.3125,-2.2298,0.0,0.0,0.0,-2.1123,-2.1123,-2.088,-2.0205,-2.0085,-2.0085,-2.0085,0.0,0.0,0.0,0.0,0.0,0.0,0.0,0.0,0.0,0.0,0.0,0.0,0.0,0.0,-2.3001,-2.3001,-2.3001,-2.3001,-2.3001,-2.3001,-2.3001,-2.3001,-2.3001,-2.3001,-2.3001,-2.3001,-2.3001,-2.3001,-2.3001,-2.3001,-2.3001,-2.3001,0.0,-2.3001,-2.3001,-2.2927,-2.2327,-2.2111,-2.1949,-2.0712,-2.0167,-2.0089,-1.9539,-1.9301,-1.9301,-1.9301,-1.9301,-1.9301,-1.9301,-1.9301,-1.9301,-1.9301,-1.9301,-1.9301,-1.9301,-1.9301,-1.9063,-1.8193,-1.7951,-1.7716,-1.6894,-1.673,-1.673,-1.673,-1.673,-1.673,-1.673,-1.673,-1.673,-1.673,-1.6134,-1.5674,-1.5674,-1.507,-1.4569,-1.4569,-1.4569,-1.4569,-1.4569,-1.4569,-1.4569,-1.4569,-1.4569,-1.4569,-1.4569,-1.4122,-1.3833,-1.3833,-1.3185,-1.29,-1.29,-1.1484,-1.0812,-1.0738,-0.9382,-0.8703,-2.4008,-2.4112,-2.4112,-2.4112,-2.3806,-2.3543,-2.3734,0.0,0.0,-2.2482,-2.1741,-2.1071,-2.0816,-2.0388,-2.0085,-2.0085,-2.0085,0.0,0.0,0.0,0.0,0.0,0.0,0.0,0.0,0.0,0.0,0.0,0.0,0.0,-2.3001,-2.3001,-2.3001,-2.3001,-2.3001,-2.3001,-2.3001,-2.3001,-2.3001,-2.3001,-2.3001,-2.3001,-2.3001,-2.3001,-2.3001,-2.3001,-2.3001,-2.3001,-2.3001,-2.3001,-2.2777,-2.2402,-2.2176,-2.1558,-2.0779,-2.0313,-1.9932,-1.9539,-1.9381,-1.9301,-1.9301,-1.9301,-1.9301,-1.9301,-1.9301,-1.9301,-1.9301,-1.9301,-1.9301,-1.9301,-1.9301,-1.9073,-1.8772,-1.8121,-1.7797,-1.7392,-1.6812,-1.673,-1.673,-1.673,-1.673,-1.673,-1.673,-1.673,-1.673,-1.673,-1.6134,-1.5674,-1.5674,-1.507,-1.4569,-1.4569,-1.4569,-1.4569,-1.4569,-1.4569,-1.4569,-1.4569,-1.4569,-1.4569,-1.4569,-1.4049,-1.3833,-1.3833,-1.2813,-1.215,-1.1855,-1.0738,-0.9916,-0.9382,-0.8927,-0.8703,0.0,-2.3942,-2.4054,-2.3662,-2.3484,0.0,0.0,0.0,0.0,0.0,-2.1112,-2.056,-2.0624,-2.0324,-2.0009,-2.0074,-2.0085,0.0,0.0,0.0,0.0,0.0,0.0,0.0,0.0,0.0,0.0,0.0,0.0,0.0,-2.3001,-2.3001,-2.3001,-2.3001,-2.3001,-2.3001,-2.3001,-2.3001,-2.3001,-2.3001,-2.3001,-2.3001,-2.3001,-2.3001,-2.3001,-2.3001,-2.3001,-2.3001,0.0,-2.2777,-2.2478,-2.2025,-2.1558,-2.0867,-2.0167,-1.9923,-1.9618,-1.9301,-1.9301,-1.9301,-1.9301,-1.9301,-1.9301,-1.9301,-1.9301,-1.9301,-1.9301,-1.9301,-1.9301,-1.9301,-1.9301,-1.9002,-1.8612,-1.8121,-1.7716,-1.7229,-1.682,-1.673,-1.673,-1.673,-1.673,-1.673,-1.673,-1.673,-1.673,-1.673,-1.6246,-1.5825,-1.5697,-1.5189,-1.4792,-1.4657,-1.4569,-1.4569,-1.4569,-1.4569,-1.4569,-1.4569,-1.4418,-1.4274,-1.4274,-1.3542,-1.3098,-1.3098,-1.215,-1.1558,-1.126,-1.0368,-0.9463,-0.8703,-0.8703,-0.8703,0.0,0.0,0.0,0.0,0.0,0.0,0.0,0.0,0.0,0.0,0.0,0.0,0.0,-1.9868,-1.9933,-2.0009,-2.0074,0.0,0.0,0.0,0.0,0.0,0.0,0.0,0.0,0.0,0.0,0.0,0.0,0.0,-2.3001,-2.3001,-2.3001,-2.3001,-2.3001,-2.3001,-2.3001,-2.3001,-2.3001,-2.3001,-2.3001,-2.3001,-2.3001,-2.3001,-2.3001,0.0,-2.3001,-2.3001,-2.2927,-2.2327,-2.2025,-2.1873,-2.0624,-2.0157,-2.0079,-1.9539,-1.9301,-1.9301,-1.9301,-1.9301,-1.9301,-1.9301,-1.9301,-1.9301,-1.9301,-1.9301,-1.9301,-1.9301,-1.9301,-1.9301,-1.9301,-1.9002,-1.8612,-1.8121,-1.7716,-1.7229,-1.682,-1.673,-1.673,-1.673,-1.673,-1.673,-1.673,-1.673,-1.673,-1.673,-1.6436,-1.6079,-1.5721,-1.5388,-1.5046,-1.4609,-1.4569,-1.4569,-1.4569,-1.4569,-1.4569,-1.4569,-1.4057,-1.376,-1.376,-1.2592,-1.2003,-1.2003,-1.1335,-1.1037,-1.1037,-1.0218,-0.9463,-0.8703,-0.8703,-0.8703,-2.1358,0.0,-2.3321,-2.3572,0.0,0.0,0.0,0.0,0.0,0.0,0.0,0.0,0.0,0.0,0.0,0.0,0.0,0.0,0.0,0.0,0.0,0.0,0.0,0.0,0.0,0.0,0.0,0.0,0.0,-2.3001,-2.3001,-2.3001,-2.3001,-2.3001,-2.3001,-2.3001,-2.3001,-2.3001,-2.3001,-2.3001,-2.3001,-2.3001,-2.3001,-2.3001,-2.3001,-2.3001,-2.3001,-2.2777,-2.2327,-2.2176,-2.1558,-2.0634,-2.0323,-1.9932,-1.946,-1.9381,-1.9301,-1.9301,-1.9301,-1.9301,-1.9301,-1.9301,-1.9301,-1.9301,-1.9301,-1.9301,-1.9301,-1.9301,-1.9301,-1.9301,-1.9301,-1.9002,-1.8612,-1.8121,-1.7716,-1.7229,-1.682,-1.673,-1.673,-1.673,-1.673,-1.673,-1.673,-1.673,-1.673,-1.673,-1.6436,-1.6079,-1.5721,-1.5388,-1.5046,-1.4609,-1.4569,-1.4418,-1.4049,-1.4346,-1.4418,-1.3977,-1.3905,-1.3615,-1.3112,-1.2372,-1.2003,-1.2003,-1.0812,-1.0143,-1.0143,-0.9382,-0.8851,-0.8703,-0.8703,-0.8703,-2.0762,-2.1635,-2.2533,-2.2186,-2.1945,-2.1678,0.0,0.0,0.0,0.0,0.0,0.0,0.0,0.0,0.0,0.0,0.0,0.0,0.0,0.0,0.0,0.0,0.0,0.0,0.0,0.0,0.0,0.0,0.0,-2.3001,-2.3001,-2.3001,-2.3001,-2.3001,-2.3001,-2.3001,-2.3001,-2.3001,-2.3001,-2.3001,-2.3001,-2.3001,-2.3001,-2.3001,-2.2852,-2.2553,-2.2553,-2.2241,-2.1634,-2.1328,-2.0779,-2.0167,-1.9932,-1.9618,-1.9301,-1.9301,-1.9301,-1.9301,-1.9301,-1.9301,-1.9301,-1.9301,-1.9301,-1.9301,-1.9301,-1.9301,-1.9301,-1.9301,-1.9301,-1.9301,-1.9301,-1.8834,-1.829,-1.804,-1.7546,-1.6984,-1.6738,-1.673,-1.673,-1.673,-1.673,-1.673,-1.673,-1.673,-1.673,-1.673,-1.6571,-1.6261,-1.5745,-1.5294,-1.4839,-1.4328,-1.3985,-1.3695,-1.3397,-1.3622,-1.3695,-1.3404,-1.3105,-1.2813,-1.2526,-1.1929,-1.1558,-1.1558,-1.0812,-1.0293,-0.9922,-0.9463,-0.9084,-0.8703,-0.8703,-0.8703,-2.0295,-2.0977,-2.1409,-2.0331,-2.0398,-2.0482,0.0,0.0,0.0,0.0,0.0,0.0,0.0,0.0,0.0,0.0,0.0,0.0,0.0,0.0,0.0,0.0,0.0,0.0,0.0,0.0,0.0,0.0,0.0,-2.3001,-2.3001,-2.3001,-2.3001,-2.3001,-2.3001,-2.2927,-2.2852,-2.2927,-2.3001,-2.3001,-2.3001,-2.2927,-2.2852,-2.2852,-2.2553,-2.1949,0.0,0.0,-2.1011,-2.0391,-2.0167,-2.0001,-1.9539,-1.9301,-1.9301,-1.9301,-1.9301,-1.9301,-1.9301,-1.9301,-1.9301,-1.9301,-1.9301,-1.9301,-1.9301,-1.9301,-1.9301,-1.9301,-1.9301,-1.9301,-1.9301,-1.8674,-1.8121,-1.804,-1.7383,-1.6812,-1.673,-1.673,-1.673,-1.673,-1.673,-1.673,-1.673,-1.673,-1.673,-1.673,-1.673,-1.6476,-1.5769,-1.5219,-1.4653,-1.398,-1.3477,-1.3112,-1.2893,-1.29,-1.2826,-1.2673,-1.2224,-1.1929,-1.1855,-1.1335,-1.1111,-1.1111,-1.1037,-1.0663,-0.9922,-0.9846,-0.9463,-0.8703,-0.8703,-0.8703,-1.8588,-1.8756,-1.9448,-2.0688,-2.0435,-1.9857,0.0,0.0,0.0,0.0,0.0,0.0,0.0,0.0,0.0,0.0,0.0,0.0,0.0,0.0,0.0,0.0,0.0,0.0,0.0,0.0,0.0,0.0,0.0,-2.3001,-2.3001,-2.3001,-2.3001,-2.3001,-2.3001,-2.2777,-2.2252,-2.2777,-2.3001,-2.3001,-2.3001,-2.2703,-2.2252,-2.2252,-2.1939,-2.1318,0.0,-2.0934,-2.0313,-2.0235,-1.9932,-1.946,-1.9301,-1.9301,-1.9301,-1.9301,-1.9301,-1.9301,-1.9301,-1.9301,-1.9301,-1.9301,-1.9301,-1.9301,-1.9301,-1.9301,-1.9301,-1.9301,-1.9301,-1.9301,-1.9301,-1.8922,-1.8451,-1.8121,-1.7635,-1.7147,-1.6812,-1.673,-1.673,-1.673,-1.673,-1.673,-1.673,-1.673,-1.673,-1.673,-1.673,-1.6476,-1.5769,-1.5605,-1.526,-1.4568,-1.4418,-1.3912,-1.2973,-1.29,-1.2452,-1.1409,-1.1781,-1.1781,-1.126,-1.1186,-1.1111,-1.1111,-1.0738,-1.0368,-0.9922,-0.9544,-0.9165,-0.8703,-0.8703,-0.8703,-1.8104,-1.8001,-1.8396,-1.9064,-1.9188,-1.9222,0.0,0.0,0.0,0.0,0.0,0.0,0.0,0.0,0.0,0.0,0.0,0.0,0.0,0.0,0.0,0.0,0.0,0.0,0.0,0.0,0.0,0.0,0.0,0.0,-2.3001,-2.3001,-2.2852,-2.2553,-2.2478,-2.2241,-2.1634,-2.1863,-2.2004,-2.2004,-2.2004,-2.1852,-2.1634,-2.1634,-2.1242,-2.0624,0.0,-2.0313,-1.9696,-1.9696,-1.9539,-1.9301,-1.9301,-1.9301,-1.9301,-1.9301,-1.9301,-1.9301,-1.9301,-1.9301,-1.9301,-1.9301,-1.9301,-1.9301,-1.9301,-1.9301,-1.9301,-1.9301,-1.9301,-1.9301,-1.9301,-1.9002,-1.8612,-1.8121,-1.7716,-1.7229,-1.682,-1.673,-1.673,-1.673,-1.673,-1.673,-1.673,-1.673,-1.673,-1.673,-1.673,-1.6476,-1.5769,-1.5451,-1.4957,-1.4271,-1.3912,-1.3477,-1.2973,-1.2599,-1.2003,-1.1186,-1.1335,-1.1409,-1.1111,-1.1111,-1.1111,-1.1111,-1.0887,-1.0513,-0.9922,-0.9695,-0.9311,-0.8703,-0.8703,-0.8703,-1.771,-1.7512,-1.7578,0.0,0.0,0.0,0.0,0.0,0.0,0.0,0.0,0.0,0.0,0.0,0.0,0.0,0.0,0.0,0.0,0.0,0.0,0.0,0.0,0.0,0.0,0.0,0.0,0.0,0.0,0.0,-2.2777,-2.2777,-2.2478,-2.1939,-2.1873,-2.1558,-2.0934,-2.0934,-2.1011,-2.1165,-2.1165,-2.1088,-2.0934,-2.1165,-2.0779,-2.001,-2.0157,-1.9932,-1.9539,-1.9381,-1.946,-1.9687,-1.946,-1.9301,-1.9301,-1.9301,-1.9301,-1.9301,-1.9301,-1.9301,-1.9301,-1.9301,-1.9301,-1.9301,-1.9301,-1.9301,-1.9301,-1.9301,-1.9301,-1.9301,-1.9301,-1.9073,-1.8692,-1.8121,-1.7797,-1.7392,-1.682,-1.673,-1.673,-1.673,-1.673,-1.673,-1.673,-1.673,-1.673,-1.673,-1.673,-1.6508,-1.588,-1.5343,-1.4759,-1.4167,-1.3594,-1.3185,-1.29,-1.2231,-1.1558,-1.1111,-1.1111,-1.1111,-1.1111,-1.1111,-1.1111,-1.1111,-1.1037,-1.0588,-0.9922,-0.9771,-0.9387,-0.8703,-0.8703,-0.8703,-1.6853,-1.6684,-1.68,-1.7344,0.0,0.0,0.0,0.0,0.0,0.0,0.0,0.0,0.0,0.0,0.0,0.0,0.0,0.0,0.0,0.0,0.0,0.0,0.0,0.0,0.0,0.0,0.0,0.0,0.0,0.0,-2.2176,-2.2176,-2.1863,-2.1318,-2.1242,-2.0934,-2.0313,-2.0245,-2.0547,-2.1165,-2.1165,-2.0857,-2.0313,-2.0934,-2.0547,-1.9381,-1.9932,-2.0167,-2.0089,-1.9539,-2.0001,-2.0934,-1.9766,-1.9301,-1.9301,-1.9301,-1.9301,-1.9301,-1.9301,-1.9301,-1.9301,-1.9301,-1.9301,-1.9301,-1.9301,-1.9301,-1.9301,-1.9301,-1.9301,-1.9301,-1.9301,-1.9301,-1.9063,-1.8193,-1.7959,-1.7716,-1.6894,-1.673,-1.673,-1.673,-1.673,-1.673,-1.673,-1.673,-1.673,-1.673,-1.673,-1.6595,-1.6214,-1.588,-1.5462,-1.5107,-1.4694,-1.4057,-1.2966,-1.1855,-1.1186,-1.1111,-1.1111,-1.1111,-1.1111,-1.1111,-1.1111,-1.1111,-1.0738,-1.0293,-0.9922,-0.9544,-0.9089,-0.8703,-0.8703,-0.8703,-1.6637,-1.6524,-1.6669,-1.6848,0.0,0.0,0.0,0.0,0.0,0.0,0.0,0.0,0.0,0.0,0.0,0.0,0.0,0.0,0.0,0.0,0.0,0.0,0.0,0.0,0.0,0.0,0.0,0.0,0.0,0.0,-2.1548,-2.1873,-2.1634,-2.0624,-2.0547,-2.0313,-1.9618,-2.0001,-2.0313,-2.0547,-2.0547,-2.0469,-2.0245,-2.0857,-2.0934,-2.0459,-2.0313,-2.0469,-2.0779,-2.0157,-2.0157,-2.0469,-1.9608,-1.9301,-1.9301,-1.9301,-1.9301,-1.9301,-1.9301,-1.9301,-1.9301,-1.9301,-1.9301,-1.9301,-1.9301,-1.9301,-1.9301,-1.9301,-1.9301,-1.9301,-1.9301,-1.9301,-1.9143,-1.8603,-1.8201,-1.7878,-1.7229,-1.6902,-1.673,-1.673,-1.673,-1.673,-1.673,-1.673,-1.673,-1.673,-1.673,-1.6603,-1.6246,-1.6087,-1.5638,-1.478,-1.3969,-1.3185,-1.2378,-1.1929,-1.1484,-1.1111,-1.1111,-1.1111,-1.1111,-1.1111,-1.1111,-1.1111,-1.0663,-1.0293,-0.9922,-0.9468,-0.9089,-0.8703,-0.8703,-0.8703,-1.6534,-1.6524,-1.6627,0.0,0.0,0.0,0.0,0.0,0.0,0.0,0.0,0.0,0.0,0.0,0.0,0.0,0.0,0.0,0.0,0.0,0.0,0.0,0.0,0.0,0.0,0.0,0.0,0.0,0.0,0.0,0.0,-2.1426,-2.1114,-2.0034,-2.0198,-2.0023,-1.9618,-2.0235,-2.0547,-2.0547,-2.0702,-2.0702,-2.0547,-2.1165,-2.1395,-2.1165,-2.0934,-2.1098,-2.1395,-2.0547,-2.0089,-1.9923,-1.9687,-1.946,-1.9301,-1.9301,-1.9301,-1.9301,-1.9301,-1.9301,-1.9301,-1.9301,-1.9301,-1.9301,-1.9301,-1.9301,-1.9301,-1.9301,-1.9301,-1.9301,-1.9301,-1.9301,-1.9231,-1.878,-1.8451,-1.804,-1.7554,-1.7147,-1.6894,-1.6738,-1.673,-1.673,-1.673,-1.673,-1.673,-1.673,-1.673,-1.6561,-1.6082,-1.595,-1.5426,-1.4241,-1.3388,-1.2695,-1.2146,-1.1921,-1.1658,-1.1117,-1.1111,-1.1111,-1.1111,-1.1111,-1.1111,-1.1111,-1.0588,-1.0143,-0.9922,-0.9392,-0.8937,-0.8703,-0.8703,-0.8703,-1.6581,-1.657,0.0,0.0,0.0,0.0,0.0,0.0,0.0,0.0,0.0,0.0,0.0,0.0,0.0,0.0,0.0,0.0,0.0,0.0,0.0,0.0,0.0,0.0,0.0,0.0,0.0,0.0,0.0,0.0,-2.0705,-2.0705,-2.0328,-1.9506,-2.0053,-2.0335,-2.0148,-2.0847,-2.1155,-2.1221,-2.1787,-2.1787,-2.1242,-2.1787,-2.1787,-2.1242,-2.1863,-2.2111,-2.2025,-2.0712,-1.9854,-1.9381,-1.9923,-1.9854,-1.9301,-1.9301,-1.9301,-1.9301,-1.9301,-1.9301,-1.9301,-1.9301,-1.9301,-1.9301,-1.9301,-1.9301,-1.9301,-1.9301,-1.9301,-1.9301,-1.9301,-1.9301,-1.9231,-1.8772,-1.87,-1.8451,-1.7554,-1.7392,-1.7229,-1.6812,-1.673,-1.673,-1.673,-1.673,-1.673,-1.673,-1.6648,-1.6484,-1.5816,-1.536,-1.4787,-1.3759,-1.3186,-1.268,-1.2459,-1.1831,-1.1413,-1.1135,-1.1111,-1.1111,-1.1111,-1.1111,-1.1111,-1.1111,-1.0293,-0.9922,-0.9922,-0.9084,-0.8703,-0.8703,-0.8703,-0.8703,-1.6581,0.0,0.0,0.0,0.0,0.0,0.0,0.0,0.0,0.0,0.0,0.0,0.0,0.0,0.0,0.0,0.0,0.0,0.0,0.0,0.0,0.0,0.0,0.0,0.0,0.0,0.0,0.0,0.0,0.0,-1.9466,-2.0267,-2.0052,-1.8583,-1.9453,-1.9521,-1.8694,-2.0166,-2.0668,-2.0219,-2.1607,-2.1871,-2.1242,-2.1787,-2.1787,-2.1165,-2.0857,-2.1011,-2.1395,-2.0547,-2.0089,-1.9932,-1.9696,-1.946,-1.9301,-1.9301,-1.9301,-1.9301,-1.9301,-1.9301,-1.9301,-1.9301,-1.9301,-1.9301,-1.9301,-1.9301,-1.9301,-1.9301,-1.9301,-1.9301,-1.9301,-1.9301,-1.9301,-1.9152,-1.8922,-1.8531,-1.7959,-1.7635,-1.7229,-1.6812,-1.673,-1.673,-1.673,-1.673,-1.673,-1.673,-1.6319,-1.5733,-1.5068,-1.4289,-1.3736,-1.3487,-1.2667,-1.2129,-1.2043,-1.1885,-1.1691,-1.1425,-1.1407,-1.1317,-1.1123,-1.1111,-1.1111,-1.1111,-1.0293,-0.9922,-0.9922,-0.9084,-0.8703,-0.8703,-0.8703,-0.8703,-1.6637,0.0,0.0,0.0,0.0,0.0,0.0,0.0,0.0,0.0,0.0,0.0,0.0,0.0,0.0,0.0,0.0,0.0,0.0,0.0,0.0,0.0,0.0,0.0,0.0,0.0,0.0,0.0,0.0,-1.9797,-1.8811,-1.9454,-1.9324,-1.8218,-1.9004,-1.9164,-1.8471,-1.9775,-2.0206,-1.9919,-2.0937,-2.099,-2.0351,-2.1546,-2.1873,-2.1558,-2.0857,-2.0702,-2.0779,-2.0391,-2.0089,-1.9775,-1.946,-1.9301,-1.9301,-1.9301,-1.9301,-1.9301,-1.9301,-1.9301,-1.9301,-1.9301,-1.9301,-1.9301,-1.9301,-1.9301,-1.9301,-1.9301,-1.9301,-1.9301,-1.9301,-1.9301,-1.9301,-1.9301,-1.9002,-1.854,-1.8121,-1.7716,-1.7229,-1.6812,-1.673,-1.673,-1.673,-1.673,-1.6566,-1.6319,-1.5484,-1.4734,-1.4321,-1.3567,-1.3041,-1.3041,-1.2572,-1.2192,-1.2083,-1.2077,-1.1962,-1.1703,-1.1588,-1.1455,-1.1286,-1.1172,-1.1111,-1.1111,-1.0443,-1.0067,-0.9922,-0.9241,-0.8856,-0.8703,-0.8703,-0.8703,0.0,0.0,0.0,0.0,0.0,0.0,0.0,0.0,0.0,0.0,0.0,0.0,0.0,0.0,0.0,0.0,0.0,0.0,0.0,0.0,0.0,0.0,0.0,0.0,0.0,0.0,0.0,0.0,-1.9309,-1.9044,-1.8499,-1.8509,-1.8418,-1.8184,-1.8834,-1.9023,-1.8778,-1.9521,-1.9818,-1.9828,-1.9858,-1.9581,-1.9083,-2.0961,-2.1845,-2.1735,-2.1257,-2.0663,-2.0079,-2.0167,-1.9854,-1.9301,-1.9301,-1.9301,-1.9301,-1.9301,-1.9301,-1.9301,-1.9301,-1.9301,-1.9301,-1.9301,-1.9301,-1.9301,-1.9301,-1.9301,-1.9301,-1.9301,-1.9301,-1.9301,-1.9301,-1.9301,-1.9301,-1.9222,-1.9002,-1.854,-1.8121,-1.7716,-1.7229,-1.6812,-1.673,-1.673,-1.673,-1.6648,-1.6319,-1.565,-1.4489,-1.3652,-1.3646,-1.3052,-1.2705,-1.2705,-1.2705,-1.2608,-1.2367,-1.2349,-1.224,-1.1974,-1.1733,-1.1582,-1.1534,-1.1262,-1.1111,-1.1111,-1.0663,-1.0293,-0.9922,-0.9468,-0.9089,-0.8703,-0.8703,-0.8703,0.0,0.0,0.0,0.0,0.0,0.0,0.0,0.0,0.0,0.0,0.0,0.0,0.0,0.0,0.0,0.0,0.0,0.0,0.0,0.0,0.0,0.0,0.0,0.0,0.0,0.0,0.0,0.0,-1.9518,-1.9044,-1.8499,-1.8509,-1.8086,-1.7237,-1.8105,-1.8223,-1.7367,-1.8321,-1.8596,-1.8193,-1.9024,-1.9324,-1.9193,-1.9515,-1.9577,-1.9449,-1.9802,-1.9764,-1.9539,-2.001,-1.9854,-1.9301,-1.9301,-1.9301,-1.9301,-1.9301,-1.9301,-1.9301,-1.9301,-1.9301,-1.9301,-1.9301,-1.9301,-1.9301,-1.9301,-1.9301,-1.9301,-1.9301,-1.9301,-1.9301,-1.9301,-1.9301,-1.9222,-1.8922,-1.8772,-1.854,-1.8121,-1.7716,-1.7229,-1.6812,-1.673,-1.673,-1.673,-1.6229,-1.5484,-1.4321,-1.3899,-1.3476,-1.296,-1.279,-1.2705,-1.2705,-1.2705,-1.2681,-1.2626,-1.262,-1.2506,-1.2246,-1.2174,-1.1962,-1.1546,-1.1262,-1.1111,-1.1111,-1.0663,-1.0293,-0.9922,-0.9468,-0.9089,-0.8703,-0.8703,-0.8703,0.0,0.0,0.0,0.0,0.0,0.0,0.0,0.0,0.0,0.0,0.0,0.0,0.0,0.0,0.0,0.0,0.0,0.0,0.0,0.0,0.0,0.0,0.0,0.0,0.0,0.0,0.0,-1.9726,-1.9441,-1.9044,-1.8499,-1.8509,-1.824,-1.7706,-1.824,-1.824,-1.7638,-1.7969,-1.7978,-1.7706,-1.8203,-1.8655,-1.8881,-1.8965,-1.8944,-1.8789,-1.9154,-1.9343,-1.9478,-1.9554,-1.9412,-1.9126,-1.9022,-1.9017,-1.9045,-1.9228,-1.9301,-1.9301,-1.9301,-1.9301,-1.9301,-1.9301,-1.9301,-1.9301,-1.9301,-1.9301,-1.9301,-1.9301,-1.9301,-1.9301,-1.9301,-1.9152,-1.8922,-1.878,-1.8531,-1.829,-1.7797,-1.7392,-1.6976,-1.6738,-1.673,-1.673,-1.673,-1.5899,-1.4901,-1.3815,-1.3392,-1.313,-1.2705,-1.2705,-1.2705,-1.2705,-1.2705,-1.2705,-1.2705,-1.2705,-1.2644,-1.2506,-1.2379,-1.2131,-1.1739,-1.1455,-1.125,-1.1111,-1.0887,-1.0588,-1.0218,-0.9771,-0.9392,-0.9013,-0.878,-0.8703,0.0,0.0,0.0,0.0,0.0,0.0,0.0,0.0,0.0,0.0,0.0,0.0,0.0,0.0,0.0,0.0,0.0,0.0,0.0,0.0,0.0,0.0,0.0,0.0,0.0,0.0,0.0,-1.9441,-1.9365,-1.91,-1.8633,-1.8643,-1.8576,-1.8576,-1.8633,-1.87,-1.87,-1.823,-1.8037,-1.8037,-1.7969,-1.8104,-1.8529,-1.8772,-1.8938,-1.8942,-1.8942,-1.9272,-1.9693,-1.9268,-1.8976,-1.8867,-1.8703,-1.8614,-1.865,-1.8981,-1.91,-1.9109,-1.9173,-1.9201,-1.921,-1.9283,-1.9301,-1.9301,-1.9301,-1.9301,-1.9301,-1.9301,-1.9301,-1.9301,-1.9222,-1.8922,-1.87,-1.854,-1.821,-1.7797,-1.7473,-1.7066,-1.673,-1.673,-1.6566,-1.6484,-1.6402,-1.5318,-1.4314,-1.3822,-1.3222,-1.2875,-1.2875,-1.2875,-1.279,-1.2705,-1.2705,-1.2705,-1.2705,-1.2705,-1.2705,-1.2705,-1.2499,-1.2264,-1.1999,-1.1739,-1.1467,-1.119,-1.1135,-1.0887,-1.0513,-1.0067,-0.9695,-0.9322,-0.8856,-0.8703,0.0,0.0,0.0,0.0,0.0,0.0,0.0,0.0,0.0,0.0,0.0,0.0,0.0,0.0,0.0,0.0,0.0,0.0,0.0,0.0,0.0,0.0,0.0,0.0,0.0,0.0,0.0,-2.0009,-1.9584,-1.9299,-1.9166,-1.9044,-1.8911,-1.8911,-1.9212,-1.9344,-1.9344,-1.9278,-1.9278,-1.9278,-1.8967,-1.87,-1.8509,-1.8562,-1.8764,-1.9073,-1.9124,-1.9343,-1.9693,-1.9683,-1.9403,-1.8839,-1.8397,-1.8201,-1.821,-1.8265,-1.8284,-1.833,-1.8678,-1.8788,-1.8843,-1.9191,-1.9301,-1.9301,-1.9301,-1.9301,-1.9301,-1.9301,-1.9301,-1.9222,-1.8851,-1.8772,-1.854,-1.7725,-1.7554,-1.7473,-1.7392,-1.7066,-1.673,-1.673,-1.6237,-1.565,-1.5068,-1.4321,-1.3822,-1.373,-1.3646,-1.3561,-1.3561,-1.3561,-1.3307,-1.279,-1.2705,-1.2705,-1.2705,-1.2705,-1.2705,-1.2705,-1.2674,-1.2536,-1.227,-1.2011,-1.1745,-1.1479,-1.1232,-1.0887,-1.0513,-1.0067,-0.9695,-0.9322,-0.8856,-0.8703,0.0,0.0,0.0,0.0,0.0,0.0,0.0,0.0,0.0,0.0,0.0,0.0,0.0,0.0,0.0,0.0,0.0,0.0,0.0,0.0,0.0,0.0,0.0,0.0,0.0,0.0,0.0,-2.0074,-2.0053,-2.0042,-2.0042,-1.977,-1.9639,-1.9639,-1.9759,-1.9824,-1.9824,-1.9944,-1.9879,-1.9694,-1.9034,-1.8777,-1.8977,-1.8633,-1.8745,-1.9219,-1.8937,-1.9049,-1.9438,-1.8874,-1.8465,-1.8222,-1.7896,-1.777,-1.7798,-1.8036,-1.8128,-1.8155,-1.832,-1.8385,-1.8412,-1.8586,-1.8641,-1.8641,-1.8641,-1.8641,-1.8641,-1.8641,-1.8479,-1.8285,-1.8371,-1.804,-1.7624,-1.7423,-1.7229,-1.6984,-1.6984,-1.682,-1.6566,-1.6229,-1.5899,-1.5401,-1.4321,-1.4237,-1.4153,-1.3737,-1.3984,-1.4153,-1.3737,-1.3737,-1.3476,-1.279,-1.2705,-1.2705,-1.2705,-1.2705,-1.2705,-1.2705,-1.2705,-1.2584,-1.2324,-1.2065,-1.1799,-1.154,-1.1256,-1.0887,-1.0513,-1.0067,-0.9695,-0.9322,-0.8856,-0.8703,0.0,0.0,0.0,0.0,0.0,0.0,0.0,0.0,0.0,0.0,0.0,0.0,0.0,0.0,0.0,0.0,0.0,0.0,0.0,0.0,0.0,0.0,0.0,0.0,0.0,0.0,0.0,-1.9747,-1.9998,-2.0183,-2.0248,-2.0042,-1.9977,-1.9977,-2.0042,-2.0096,-2.0096,-2.0215,-2.0085,-1.9715,-1.9044,-1.8844,-1.9177,-1.871,-1.87,-1.91,-1.87,-1.871,-1.9034,-1.8104,-1.7706,-1.7676,-1.7432,-1.7348,-1.7385,-1.7697,-1.7816,-1.7825,-1.7926,-1.7963,-1.7981,-1.8091,-1.8128,-1.8128,-1.8128,-1.8128,-1.8053,-1.797,-1.7719,-1.7548,-1.7628,-1.7234,-1.6913,-1.7024,-1.6911,-1.673,-1.673,-1.6566,-1.6319,-1.5982,-1.5567,-1.4901,-1.4068,-1.4237,-1.4321,-1.3822,-1.4237,-1.4489,-1.3822,-1.3737,-1.3476,-1.279,-1.2705,-1.2705,-1.2705,-1.2705,-1.2705,-1.2705,-1.2705,-1.2614,-1.2421,-1.2095,-1.183,-1.1636,-1.1135,-1.0812,-1.0513,-1.0067,-0.9695,-0.9322,-0.8856,-0.8703,0.0,0.0,0.0,0.0,0.0,0.0,0.0,0.0,0.0,0.0,0.0,0.0,0.0,0.0,0.0,0.0,0.0,0.0,0.0,0.0,0.0,0.0,0.0,0.0,0.0,0.0,0.0,-1.8875,-1.8875,-1.9008,-1.9198,-1.9473,-1.9605,-1.9605,-1.9911,-2.0096,-2.0096,-2.0096,-1.9911,-1.9605,-1.9375,-1.9121,-1.8808,-1.8576,-1.8509,-1.8566,-1.8499,-1.8509,-1.8509,-1.7901,-1.7706,-1.7647,-1.7125,-1.6936,-1.6936,-1.6963,-1.6972,-1.7027,-1.7394,-1.7523,-1.7596,-1.799,-1.8128,-1.8128,-1.8128,-1.8128,-1.8044,-1.7644,-1.7561,-1.7336,-1.6607,-1.6652,-1.6768,-1.6389,-1.6492,-1.673,-1.673,-1.6237,-1.5899,-1.6566,-1.5068,-1.3984,-1.4566,-1.4153,-1.373,-1.3737,-1.4237,-1.4489,-1.3822,-1.3737,-1.3476,-1.279,-1.2705,-1.2705,-1.2705,-1.2705,-1.2705,-1.2705,-1.2705,-1.2699,-1.2687,-1.2192,-1.1914,-1.1902,-1.1,-1.0513,-1.0513,-1.0067,-0.9695,-0.9322,-0.8856,-0.8703,0.0,0.0,0.0,0.0,0.0,0.0,0.0,0.0,0.0,0.0,0.0,0.0,0.0,0.0,0.0,0.0,0.0,0.0,0.0,0.0,0.0,0.0,0.0,0.0,0.0,0.0,0.0,0.0,-1.8787,-1.9054,-1.9253,-1.9121,-1.9121,-1.9187,-1.9309,-1.9639,-2.0096,-1.9922,-1.9726,-1.9605,-1.8798,-1.8405,-1.8269,-1.8046,-1.7774,-1.751,-1.7842,-1.7969,-1.7969,-1.7442,-1.7176,-1.7176,-1.6968,-1.6908,-1.6908,-1.6908,-1.6908,-1.6927,-1.7064,-1.711,-1.7138,-1.7293,-1.7339,-1.7339,-1.7339,-1.7125,-1.6911,-1.675,-1.6381,-1.6007,-1.5947,-1.5896,-1.5896,-1.6103,-1.6476,-1.673,-1.673,-1.6147,-1.565,-1.5484,-1.4817,-1.4321,-1.4068,-1.4566,-1.4817,-1.4405,-1.4901,-1.4901,-1.3815,-1.3737,-1.3476,-1.279,-1.2705,-1.2705,-1.2705,-1.2705,-1.2705,-1.2705,-1.2705,-1.2705,-1.2705,-1.2198,-1.192,-1.192,-1.1236,-1.0663,-1.0143,-0.9695,-0.9316,-0.8932,-0.878,-0.8703,0.0,0.0,0.0,0.0,0.0,0.0,0.0,0.0,0.0,0.0,0.0,0.0,0.0,0.0,0.0,0.0,0.0,0.0,0.0,0.0,0.0,0.0,0.0,0.0,0.0,0.0,0.0,-1.824,-1.8442,0.0,-1.8854,-1.8643,-1.8586,-1.8654,-1.8654,-1.8854,-1.9299,-1.9131,-1.9008,-1.8875,-1.8144,-1.7803,-1.7725,-1.751,-1.7245,-1.6908,-1.7304,-1.7442,-1.7373,-1.7038,-1.6908,-1.6908,-1.6908,-1.6908,-1.6908,-1.6908,-1.6908,-1.6908,-1.6908,-1.6908,-1.6908,-1.6908,-1.6839,-1.67,-1.67,-1.6412,-1.6123,-1.5991,-1.5559,-1.5191,-1.5284,-1.5233,-1.5356,-1.6039,-1.6389,-1.6587,-1.6706,-1.6147,-1.565,-1.5401,-1.4985,-1.465,-1.4405,-1.4901,-1.5151,-1.4482,-1.4734,-1.465,-1.3476,-1.3392,-1.3215,-1.279,-1.2705,-1.2705,-1.2705,-1.2705,-1.2705,-1.2705,-1.2705,-1.2705,-1.2705,-1.2198,-1.192,-1.192,-1.1236,-1.0663,-1.0067,-0.9846,-0.9392,-0.8937,-0.8937,-0.8856,0.0,0.0,0.0,0.0,0.0,0.0,0.0,0.0,0.0,0.0,0.0,0.0,0.0,0.0,0.0,0.0,0.0,0.0,0.0,0.0,0.0,0.0,0.0,0.0,0.0,0.0,0.0,-1.7706,-1.7706,-1.7784,-1.8008,-1.8008,-1.8008,-1.8008,-1.8008,-1.793,-1.7706,-1.7852,-1.7794,-1.7539,-1.7461,-1.7382,-1.7166,-1.6968,-1.6908,-1.6908,-1.6908,-1.6908,-1.6908,-1.6908,-1.6908,-1.6908,-1.6908,-1.6908,-1.6908,-1.6908,-1.6908,-1.6908,-1.6908,-1.6908,-1.6908,-1.6908,-1.6621,-1.6342,-1.6272,-1.6053,-1.5692,-1.5338,-1.5196,-1.5062,-1.4713,-1.4911,-1.5356,-1.6023,-1.619,-1.6301,-1.6643,-1.6147,-1.5899,-1.6566,-1.565,-1.4901,-1.5567,-1.5151,-1.4482,-1.3822,-1.373,-1.3476,-1.279,-1.2705,-1.2705,-1.2705,-1.2705,-1.2705,-1.2705,-1.2705,-1.2705,-1.2705,-1.2705,-1.2705,-1.2705,-1.221,-1.1926,-1.192,-1.1018,-1.0524,-1.0513,-1.0513,-1.0067,-0.9322,-0.9322,-0.9089,-1.7278,0.0,0.0,0.0,0.0,0.0,0.0,0.0,0.0,0.0,0.0,0.0,0.0,0.0,0.0,0.0,0.0,0.0,0.0,0.0,0.0,0.0,0.0,0.0,0.0,0.0,-1.7373,0.0,-1.7451,-1.7588,-1.7784,-1.794,-1.8008,-1.8008,-1.8008,-1.794,-1.794,-1.7561,-1.7418,-1.7647,-1.7081,-1.6964,-1.7166,-1.6968,-1.6908,-1.6908,-1.6908,-1.6908,-1.6908,-1.6908,-1.6908,-1.6908,-1.6908,-1.6908,-1.6908,-1.6908,-1.6908,-1.6908,-1.6908,-1.6908,-1.6908,-1.6908,-1.6839,-1.67,-1.6421,-1.6053,-1.5692,-1.5338,-1.4991,-1.4713,-1.4641,-1.4911,-1.5237,-1.5419,-1.5848,-1.623,-1.6333,-1.6385,-1.6319,-1.6064,-1.565,-1.5484,-1.565,-1.5567,-1.5235,-1.4482,-1.3984,-1.3476,-1.279,-1.2705,-1.2705,-1.2705,-1.2705,-1.2705,-1.2705,-1.2705,-1.2705,-1.2705,-1.2705,-1.2705,-1.2705,-1.2379,-1.2113,-1.1926,-1.1432,-1.1164,-1.0962,-1.0368,-0.9771,-0.9322,-0.9013,-0.878,0.0,0.0,0.0,0.0,0.0,0.0,-1.6807,-1.6864,-1.6807,0.0,0.0,0.0,0.0,0.0,0.0,0.0,0.0,0.0,0.0,0.0,0.0,0.0,0.0,0.0,0.0,-1.7064,-1.6988,-1.6788,-1.6864,-1.6997,-1.7044,-1.7196,-1.7263,-1.7263,-1.7338,-1.7338,-1.7149,-1.6965,-1.6881,-1.6845,-1.6487,-1.644,-1.6596,-1.6646,-1.6661,-1.667,-1.6835,-1.6908,-1.6908,-1.6908,-1.6908,-1.6908,-1.6908,-1.6908,-1.6908,-1.6908,-1.6908,-1.6908,-1.6908,-1.676,-1.663,-1.663,-1.6412,-1.6132,-1.5912,-1.5559,-1.5267,-1.4991,-1.4776,-1.4569,-1.4569,-1.48,-1.499,-1.5149,-1.5491,-1.5856,-1.6142,-1.6365,-1.6393,-1.6206,-1.6147,-1.6147,-1.6147,-1.565,-1.5151,-1.4734,-1.3893,-1.3137,-1.279,-1.2705,-1.2705,-1.2705,-1.2705,-1.2705,-1.2705,-1.2705,-1.2705,-1.2705,-1.2705,-1.2705,-1.2705,-1.2451,-1.224,-1.2089,-1.1721,-1.1395,-1.1111,-1.0663,-1.0143,-0.9549,-0.9165,-0.8856,0.0,0.0,0.0,0.0,0.0,0.0,-1.6228,-1.64,-1.6457,-1.5526,0.0,0.0,0.0,0.0,0.0,0.0,0.0,0.0,0.0,0.0,0.0,0.0,0.0,0.0,-1.7471,-1.7086,-1.6709,-1.6383,-1.6319,-1.6256,-1.6192,-1.6192,-1.6192,-1.6192,-1.6392,-1.6348,-1.6038,-1.6237,-1.6163,-1.5753,-1.5854,-1.5854,-1.5698,-1.6074,-1.6248,-1.6266,-1.6615,-1.6798,-1.6844,-1.6844,-1.6872,-1.6908,-1.6908,-1.6908,-1.6908,-1.6908,-1.6908,-1.6908,-1.6839,-1.6621,-1.6272,-1.6272,-1.5771,-1.5275,-1.5196,-1.4919,-1.4641,-1.4641,-1.4569,-1.4569,-1.4569,-1.4569,-1.472,-1.5046,-1.5157,-1.5364,-1.6007,-1.6174,-1.6309,-1.6667,-1.673,-1.673,-1.673,-1.5567,-1.4734,-1.4734,-1.3548,-1.2705,-1.2705,-1.2705,-1.2705,-1.2705,-1.2705,-1.2705,-1.2705,-1.2705,-1.2705,-1.2705,-1.2705,-1.2705,-1.2705,-1.2481,-1.2343,-1.2312,-1.1799,-1.1407,-1.1154,-1.1049,-1.0663,-0.9916,-0.9473,-0.9089,0.0,0.0,0.0,0.0,0.0,0.0,-1.7043,-1.7099,-1.6987,0.0,0.0,0.0,0.0,0.0,0.0,0.0,0.0,0.0,0.0,0.0,0.0,0.0,0.0,0.0,-1.7211,-1.7264,-1.7264,-1.7191,-1.6951,-1.6636,-1.6192,-1.6192,-1.6192,-1.6192,-1.6256,-1.6256,-1.6138,-1.5807,-1.5692,-1.5964,-1.5503,-1.5449,-1.5689,-1.5771,-1.5808,-1.5817,-1.589,-1.612,-1.6431,-1.6431,-1.6615,-1.6908,-1.6908,-1.6908,-1.6908,-1.6908,-1.6908,-1.6839,-1.656,-1.6351,-1.6272,-1.5982,-1.5762,-1.5621,-1.5267,-1.5133,-1.4991,-1.4705,-1.4569,-1.4569,-1.4569,-1.4569,-1.4585,-1.4728,-1.4975,-1.53,-1.569,-1.5999,-1.6309,-1.6667,-1.673,-1.673,-1.673,-1.5567,-1.4734,-1.4734,-1.3548,-1.2705,-1.2705,-1.2705,-1.2705,-1.2705,-1.2705,-1.2705,-1.2705,-1.2705,-1.2705,-1.2705,-1.2705,-1.2705,-1.2705,-1.2656,-1.253,-1.2318,-1.1799,-1.1504,-1.1449,-1.0843,-1.0368,-0.9916,-0.9473,-0.9089,0.0,0.0,0.0,-1.7278,0.0,0.0,0.0,-1.6931,-1.6807,-1.6343,0.0,0.0,0.0,0.0,0.0,0.0,0.0,0.0,0.0,0.0,0.0,0.0,0.0,0.0,-1.6377,-1.6246,-1.6186,-1.6186,-1.6074,-1.5821,-1.5444,-1.5444,-1.5392,-1.534,-1.5392,-1.5392,-1.534,-1.5126,-1.5135,-1.5235,-1.497,-1.4909,-1.5111,-1.5304,-1.5395,-1.5404,-1.5606,-1.5808,-1.6019,-1.623,-1.6431,-1.6633,-1.6835,-1.6908,-1.6908,-1.6908,-1.676,-1.6551,-1.6351,-1.6061,-1.57,-1.5559,-1.5346,-1.5133,-1.4991,-1.4919,-1.4848,-1.4641,-1.4569,-1.4569,-1.4569,-1.4569,-1.4569,-1.4569,-1.4784,-1.5006,-1.5356,-1.5697,-1.6047,-1.6404,-1.6619,-1.6566,-1.6237,-1.5401,-1.4573,-1.4237,-1.33,-1.2705,-1.2705,-1.2705,-1.2705,-1.2705,-1.2705,-1.2705,-1.2705,-1.2705,-1.2705,-1.2705,-1.2705,-1.2705,-1.2705,-1.2705,-1.2578,-1.2318,-1.2059,-1.1793,-1.1534,-1.1159,-1.0644,-0.9916,-0.9473,-0.9089,0.0,0.0,0.0,0.0,0.0,-1.7222,0.0,0.0,0.0,-1.6228,0.0,0.0,0.0,0.0,0.0,0.0,0.0,0.0,0.0,0.0,0.0,0.0,0.0,0.0,-1.5904,-1.5498,-1.5205,-1.5147,-1.5147,-1.5029,-1.4775,-1.4775,-1.4666,-1.4565,-1.4666,-1.4666,-1.4515,-1.4606,-1.4606,-1.4515,-1.4515,-1.4515,-1.4524,-1.4845,-1.4983,-1.5001,-1.5322,-1.5505,-1.5606,-1.5945,-1.6175,-1.6358,-1.6752,-1.6908,-1.6908,-1.6908,-1.663,-1.6272,-1.6202,-1.5771,-1.5204,-1.5133,-1.4848,-1.4569,-1.4569,-1.4569,-1.4569,-1.4569,-1.4569,-1.4569,-1.4569,-1.4569,-1.4569,-1.4569,-1.4569,-1.4736,-1.511,-1.5443,-1.5785,-1.6134,-1.6492,-1.6484,-1.5816,-1.5151,-1.4482,-1.3822,-1.313,-1.2705,-1.2705,-1.2705,-1.2705,-1.2705,-1.2705,-1.2705,-1.2705,-1.2705,-1.2705,-1.2705,-1.2705,-1.2705,-1.2705,-1.2705,-1.2602,-1.2391,-1.2337,-1.2077,-1.1606,-1.1474,-1.0923,-0.9992,-0.962,-0.9165,0.0,0.0,0.0,0.0,-1.7278,0.0,0.0,0.0,-1.7211,-1.7155,0.0,0.0,0.0,0.0,0.0,0.0,0.0,0.0,0.0,0.0,0.0,0.0,0.0,0.0,-1.6637,-1.6353,-1.6009,-1.5672,-1.5624,-1.5439,-1.497,-1.497,-1.4911,-1.4656,-1.4715,-1.4666,-1.4515,-1.4506,-1.4506,-1.4515,-1.4515,-1.4515,-1.4515,-1.4561,-1.4579,-1.4579,-1.4625,-1.4845,-1.5166,-1.5221,-1.567,-1.6358,-1.6752,-1.6908,-1.6908,-1.6908,-1.663,-1.6272,-1.5982,-1.5551,-1.5133,-1.4776,-1.4641,-1.4569,-1.4569,-1.4569,-1.4569,-1.4569,-1.4569,-1.4569,-1.4569,-1.4569,-1.4569,-1.4569,-1.4569,-1.4736,-1.511,-1.5443,-1.5785,-1.6134,-1.6492,-1.6484,-1.5816,-1.5151,-1.4482,-1.3822,-1.313,-1.2705,-1.2705,-1.2705,-1.2705,-1.2705,-1.2705,-1.2705,-1.2705,-1.2705,-1.2705,-1.2705,-1.2705,-1.2705,-1.2705,-1.2705,-1.2693,-1.2662,-1.2433,-1.2168,-1.1878,-1.1239,-1.0758,-1.0443,-0.9992,-0.962,0.0,0.0,0.0,0.0,0.0,0.0,-1.7278,0.0,-1.7211,0.0,0.0,0.0,0.0,0.0,0.0,0.0,-1.6751,0.0,0.0,0.0,0.0,0.0,0.0,0.0,-1.6285,-1.5989,-1.571,-1.5546,-1.5546,-1.543,-1.5156,-1.5098,-1.5029,-1.4902,-1.4775,-1.4656,-1.4606,-1.4565,-1.4515,-1.4515,-1.4515,-1.4515,-1.4515,-1.4515,-1.4515,-1.4515,-1.4515,-1.4607,-1.4772,-1.5001,-1.5432,-1.5991,-1.6404,-1.6707,-1.6908,-1.6908,-1.6551,-1.5982,-1.5833,-1.5409,-1.4848,-1.4641,-1.4569,-1.4569,-1.4569,-1.4569,-1.4569,-1.4569,-1.4569,-1.4569,-1.4569,-1.4569,-1.4569,-1.4569,-1.4569,-1.4681,-1.4839,-1.5292,-1.5721,-1.5872,-1.6028,-1.5899,-1.5235,-1.4901,-1.4314,-1.3307,-1.2875,-1.2705,-1.2705,-1.2705,-1.2705,-1.2705,-1.2705,-1.2705,-1.2705,-1.2705,-1.2705,-1.2705,-1.2705,-1.2705,-1.2705,-1.2705,-1.2705,-1.2705,-1.2596,-1.2409,-1.2149,-1.1718,-1.1378,-1.1047,-1.029,-0.9695,-1.7278,0.0,0.0,0.0,0.0,0.0,0.0,0.0,0.0,0.0,0.0,0.0,0.0,0.0,0.0,0.0,0.0,-1.6513,0.0,0.0,0.0,0.0,0.0,0.0,0.0,-1.542,-1.5303,-1.5362,-1.5362,-1.5313,-1.5264,-1.5264,-1.5205,-1.5039,-1.4902,-1.4775,-1.4715,-1.4556,-1.4515,-1.4515,-1.4515,-1.4515,-1.4515,-1.4515,-1.4515,-1.4515,-1.4515,-1.4515,-1.4533,-1.4827,-1.5239,-1.5716,-1.6028,-1.6459,-1.6908,-1.6769,-1.6333,-1.5762,-1.5692,-1.5204,-1.4569,-1.4569,-1.4569,-1.4569,-1.4569,-1.4569,-1.4569,-1.4569,-1.4569,-1.4569,-1.4569,-1.4569,-1.4569,-1.4569,-1.4569,-1.4569,-1.4569,-1.5189,-1.5674,-1.5443,-1.5599,-1.5401,-1.4566,-1.4405,-1.4062,-1.2875,-1.2705,-1.2705,-1.2705,-1.2705,-1.2705,-1.2705,-1.2705,-1.2705,-1.2705,-1.2705,-1.2705,-1.2705,-1.2705,-1.2705,-1.2705,-1.2705,-1.2705,-1.2705,-1.2705,-1.2572,-1.2312,-1.2047,-1.1787,-1.1444,-1.0486,-0.9922,0.0,0.0,0.0,-1.7278,0.0,0.0,0.0,0.0,-1.7278,0.0,0.0,0.0,0.0,0.0,0.0,0.0,0.0,0.0,0.0,0.0,0.0,0.0,0.0,0.0,0.0,-1.5029,-1.5088,-1.5215,-1.5215,-1.5264,-1.541,-1.541,-1.5303,-1.5215,-1.5039,-1.4902,-1.4715,-1.4556,-1.4515,-1.4515,-1.4515,-1.4515,-1.4515,-1.4515,-1.4515,-1.4515,-1.4515,-1.4515,-1.4515,-1.4524,-1.4992,-1.5689,-1.5707,-1.6202,-1.6839,-1.6482,-1.6123,-1.5762,-1.5338,-1.4919,-1.4569,-1.4569,-1.4569,-1.4569,-1.4569,-1.4569,-1.4569,-1.4569,-1.4569,-1.4569,-1.4569,-1.4569,-1.4569,-1.4569,-1.4569,-1.4569,-1.4569,-1.5189,-1.552,-1.4894,-1.5277,-1.5318,-1.3984,-1.3737,-1.3476,-1.279,-1.2705,-1.2705,-1.2705,-1.2705,-1.2705,-1.2705,-1.2705,-1.2705,-1.2705,-1.2705,-1.2705,-1.2705,-1.2705,-1.2705,-1.2705,-1.2705,-1.2705,-1.2705,-1.2705,-1.2572,-1.2312,-1.2047,-1.1787,-1.1444,-1.079,-1.0443,0.0,0.0,-1.6751,-1.6457,0.0,0.0,0.0,0.0,0.0,0.0,0.0,0.0,0.0,0.0,0.0,0.0,0.0,0.0,0.0,0.0,0.0,0.0,0.0,0.0,0.0,0.0,0.0,-1.5215,-1.5254,-1.5362,-1.541,-1.541,-1.5362,-1.5303,-1.5147,-1.497,-1.4902,-1.4625,-1.4515,-1.4515,-1.4515,-1.4515,-1.4515,-1.4515,-1.4515,-1.4515,-1.4515,-1.4515,-1.4515,-1.4515,-1.4974,-1.5689,-1.5431,-1.5784,-1.6491,-1.6342,-1.6123,-1.5692,-1.5062,-1.4705,-1.4569,-1.4569,-1.4569,-1.4569,-1.4569,-1.4569,-1.4569,-1.4569,-1.4569,-1.4569,-1.4569,-1.4569,-1.4569,-1.4569,-1.4569,-1.4632,-1.4951,-1.5356,-1.5668,-1.5662,-1.5346,-1.4901,-1.4398,-1.3639,-1.296,-1.2705,-1.2705,-1.2875,-1.3307,-1.3392,-1.3392,-1.3392,-1.3392,-1.3222,-1.2705,-1.2705,-1.2705,-1.2705,-1.2705,-1.2705,-1.2705,-1.2705,-1.2705,-1.2705,-1.2705,-1.2662,-1.2572,-1.2131,-1.1878,-1.1781,-1.117,-1.0738,-1.6684,-1.6457,0.0,-1.5989,-1.5874,0.0,-1.6075,0.0,-1.5856,0.0,0.0,0.0,0.0,0.0,0.0,0.0,0.0,0.0,0.0,-1.6627,0.0,0.0,0.0,0.0,0.0,0.0,-1.5362,-1.502,-1.5196,-1.5245,0.0,-1.5245,-1.5245,-1.5245,-1.502,-1.4902,-1.4902,-1.4625,-1.4515,-1.4515,-1.4515,-1.4515,-1.4515,-1.4515,-1.4515,-1.4515,-1.4515,-1.4515,-1.4515,-1.4515,-1.4974,-1.5689,-1.5236,-1.5583,-1.6272,-1.5991,-1.57,-1.5267,-1.4776,-1.4569,-1.4569,-1.4569,-1.4569,-1.4569,-1.4569,-1.4569,-1.4617,-1.4935,-1.4832,-1.4624,-1.4943,-1.4824,-1.4569,-1.4569,-1.4569,-1.4736,-1.511,-1.5443,-1.5622,-1.5492,-1.5092,-1.4566,-1.4055,-1.3294,-1.2705,-1.2705,-1.2705,-1.2875,-1.3307,-1.3307,-1.3307,-1.3307,-1.3307,-1.3137,-1.2705,-1.2705,-1.2705,-1.2705,-1.2705,-1.2705,-1.2705,-1.2705,-1.2705,-1.2705,-1.2705,-1.2705,-1.2705,-1.2174,-1.192,-1.1908,-1.1365,-1.0962]},{"header":{"parameterUnit":"m.s-1","parameterCategory":1,"la1":30.6,"la2":29.2853,"lo1":-89.7004,"lo2":-87.6739,"dy":0.0162,"dx":0.0183,"nx":112,"ny":82,"refTime":"2023-07-21T12:00:00:Z","depth":0,"parameterNumber":3,"parameterNumberName":"V-component_of_WINDS"},"data":[0.0,0.0,0.0,0.0,0.0,0.0,0.0,0.0,0.0,0.0,0.0,0.0,0.0,0.0,0.0,0.0,0.0,0.0,0.0,0.0,0.0,0.0,0.0,0.0,0.0,0.0,0.0,0.0,0.0,0.0,0.0,0.0,0.0,0.0,0.0,0.0,0.0,0.0,0.0,0.0,0.0,0.0,0.0,0.0,0.0,0.0,0.0,0.0,0.0,0.0,0.0,0.0,0.0,0.0,0.0,0.0,0.0,0.0,0.0,0.0,0.0,0.0,0.0,0.0,0.0,0.0,0.0,0.0,0.0,0.0,0.0,0.0,0.0,0.0,0.0,0.0,0.0,0.0,0.0,0.0,0.0,0.0,0.0,0.0,0.0,0.0,0.0,0.0,0.0,0.0,-2.3896,-2.3896,-2.4016,-2.4054,-2.3917,-2.4074,-2.417,-2.4094,0.0,0.0,0.0,0.0,0.0,0.0,0.0,0.0,0.0,0.0,0.0,0.0,0.0,0.0,0.0,0.0,0.0,0.0,0.0,0.0,0.0,0.0,0.0,0.0,0.0,0.0,0.0,0.0,0.0,0.0,0.0,0.0,0.0,0.0,0.0,0.0,0.0,0.0,0.0,0.0,0.0,0.0,0.0,0.0,0.0,0.0,0.0,0.0,0.0,0.0,0.0,0.0,0.0,0.0,0.0,0.0,0.0,0.0,0.0,0.0,0.0,0.0,0.0,0.0,0.0,0.0,0.0,0.0,0.0,0.0,0.0,0.0,0.0,0.0,0.0,0.0,0.0,0.0,0.0,0.0,0.0,0.0,0.0,0.0,0.0,0.0,0.0,0.0,0.0,0.0,0.0,0.0,0.0,0.0,0.0,0.0,0.0,0.0,0.0,0.0,0.0,0.0,0.0,0.0,-2.3816,-2.3816,-2.3996,-2.4054,-2.3917,-2.4016,-2.4113,-2.4094,0.0,0.0,0.0,0.0,0.0,0.0,0.0,0.0,0.0,0.0,0.0,0.0,0.0,0.0,0.0,0.0,0.0,0.0,0.0,0.0,0.0,0.0,0.0,0.0,0.0,0.0,0.0,0.0,0.0,0.0,0.0,0.0,0.0,0.0,0.0,0.0,0.0,0.0,0.0,0.0,0.0,0.0,0.0,0.0,0.0,0.0,0.0,0.0,0.0,0.0,0.0,0.0,0.0,0.0,0.0,0.0,0.0,0.0,0.0,0.0,0.0,0.0,0.0,0.0,0.0,0.0,0.0,0.0,0.0,0.0,0.0,0.0,0.0,0.0,0.0,0.0,0.0,0.0,0.0,0.0,0.0,0.0,0.0,0.0,0.0,0.0,0.0,0.0,0.0,0.0,0.0,0.0,0.0,0.0,0.0,0.0,0.0,0.0,0.0,0.0,0.0,0.0,0.0,-2.3955,-2.3917,-2.3917,-2.4054,-2.4113,-2.4016,-2.4094,-2.4151,-2.4151,-2.417,0.0,0.0,0.0,0.0,0.0,0.0,0.0,0.0,0.0,0.0,0.0,0.0,0.0,0.0,0.0,0.0,0.0,0.0,0.0,0.0,0.0,0.0,0.0,0.0,0.0,0.0,0.0,0.0,0.0,0.0,0.0,0.0,0.0,0.0,0.0,0.0,0.0,0.0,0.0,0.0,0.0,0.0,0.0,0.0,0.0,0.0,0.0,0.0,0.0,0.0,0.0,0.0,0.0,0.0,0.0,0.0,0.0,0.0,0.0,0.0,0.0,0.0,0.0,0.0,0.0,0.0,0.0,0.0,0.0,0.0,0.0,0.0,0.0,0.0,0.0,0.0,0.0,0.0,0.0,0.0,0.0,0.0,0.0,0.0,0.0,0.0,0.0,0.0,0.0,0.0,0.0,0.0,0.0,0.0,0.0,0.0,0.0,0.0,0.0,0.0,0.0,0.0,-2.416,-2.4288,-2.4288,-2.4571,-2.4739,-2.4661,-2.4556,-2.4483,-2.4483,-2.43,0.0,0.0,0.0,0.0,0.0,0.0,0.0,0.0,0.0,0.0,0.0,0.0,0.0,0.0,0.0,0.0,0.0,0.0,0.0,0.0,0.0,0.0,0.0,0.0,0.0,0.0,0.0,0.0,0.0,0.0,0.0,0.0,0.0,0.0,0.0,0.0,0.0,0.0,0.0,0.0,0.0,0.0,0.0,0.0,0.0,0.0,0.0,0.0,0.0,0.0,0.0,0.0,0.0,0.0,0.0,0.0,0.0,0.0,0.0,0.0,0.0,0.0,0.0,0.0,0.0,0.0,0.0,0.0,0.0,0.0,0.0,0.0,0.0,0.0,0.0,0.0,0.0,0.0,0.0,0.0,0.0,0.0,0.0,0.0,0.0,0.0,0.0,0.0,0.0,0.0,0.0,0.0,0.0,0.0,0.0,0.0,0.0,0.0,0.0,0.0,0.0,0.0,-2.4652,-2.5126,-2.5126,-2.5926,-2.6408,-2.6326,-2.5711,-2.5329,-2.5329,-2.4612,0.0,0.0,0.0,0.0,0.0,0.0,0.0,0.0,0.0,0.0,0.0,0.0,0.0,0.0,0.0,0.0,0.0,0.0,0.0,0.0,0.0,0.0,0.0,0.0,0.0,0.0,0.0,0.0,0.0,0.0,0.0,0.0,0.0,0.0,0.0,0.0,0.0,0.0,0.0,0.0,0.0,0.0,0.0,0.0,0.0,0.0,0.0,0.0,0.0,0.0,0.0,0.0,0.0,0.0,0.0,0.0,0.0,0.0,0.0,0.0,0.0,0.0,0.0,0.0,0.0,0.0,0.0,0.0,0.0,0.0,0.0,0.0,0.0,0.0,0.0,0.0,0.0,0.0,0.0,0.0,0.0,0.0,0.0,0.0,0.0,0.0,0.0,0.0,0.0,0.0,0.0,0.0,0.0,0.0,0.0,0.0,0.0,0.0,0.0,0.0,0.0,0.0,-2.5721,-2.5921,0.0,-2.6326,-2.6551,-2.6551,-2.6298,-2.6153,-2.6153,0.0,0.0,0.0,0.0,0.0,0.0,0.0,0.0,0.0,0.0,0.0,0.0,0.0,0.0,0.0,0.0,0.0,0.0,0.0,0.0,0.0,0.0,0.0,0.0,0.0,0.0,0.0,0.0,0.0,0.0,0.0,0.0,0.0,0.0,0.0,0.0,0.0,0.0,0.0,0.0,0.0,0.0,0.0,0.0,0.0,0.0,0.0,0.0,0.0,0.0,0.0,0.0,0.0,0.0,0.0,0.0,0.0,0.0,0.0,0.0,0.0,0.0,0.0,0.0,0.0,0.0,0.0,0.0,0.0,0.0,0.0,0.0,0.0,0.0,0.0,0.0,0.0,0.0,0.0,0.0,0.0,0.0,0.0,0.0,0.0,0.0,0.0,0.0,0.0,0.0,0.0,0.0,0.0,0.0,0.0,0.0,0.0,0.0,0.0,0.0,0.0,0.0,-2.6399,-2.6577,-2.6763,0.0,-2.7134,-2.7321,-2.7343,-2.7126,-2.6979,-2.6979,0.0,0.0,0.0,0.0,0.0,0.0,0.0,0.0,0.0,0.0,0.0,0.0,0.0,0.0,0.0,0.0,0.0,0.0,0.0,0.0,0.0,0.0,0.0,0.0,0.0,0.0,0.0,0.0,0.0,0.0,0.0,0.0,0.0,0.0,0.0,0.0,0.0,0.0,0.0,0.0,0.0,0.0,0.0,0.0,0.0,0.0,0.0,0.0,0.0,0.0,0.0,0.0,0.0,0.0,0.0,0.0,0.0,0.0,0.0,0.0,0.0,0.0,0.0,0.0,0.0,0.0,0.0,0.0,0.0,0.0,0.0,0.0,0.0,0.0,0.0,0.0,0.0,0.0,0.0,0.0,0.0,0.0,0.0,0.0,0.0,0.0,0.0,0.0,0.0,0.0,0.0,0.0,0.0,0.0,0.0,0.0,0.0,0.0,0.0,0.0,0.0,0.0,-2.6417,-2.7109,-2.7648,-2.7712,-2.8494,-2.8994,-2.8994,-2.8282,-2.7805,0.0,0.0,0.0,0.0,0.0,0.0,0.0,0.0,0.0,0.0,0.0,0.0,0.0,0.0,0.0,0.0,0.0,0.0,0.0,0.0,0.0,0.0,0.0,0.0,0.0,0.0,0.0,0.0,0.0,0.0,0.0,0.0,0.0,0.0,0.0,0.0,0.0,0.0,0.0,0.0,0.0,0.0,0.0,0.0,0.0,0.0,0.0,0.0,0.0,0.0,0.0,0.0,0.0,0.0,0.0,0.0,0.0,0.0,0.0,0.0,0.0,0.0,0.0,0.0,0.0,0.0,0.0,0.0,0.0,0.0,0.0,0.0,0.0,0.0,0.0,0.0,0.0,0.0,0.0,0.0,0.0,0.0,0.0,0.0,0.0,0.0,0.0,0.0,0.0,0.0,0.0,0.0,0.0,0.0,0.0,0.0,0.0,0.0,0.0,0.0,0.0,0.0,0.0,-2.7955,-2.8173,-2.8367,-2.8463,-2.8706,-2.89,-2.8994,-2.8796,-2.865,-2.865,0.0,0.0,0.0,0.0,0.0,0.0,0.0,0.0,0.0,0.0,0.0,0.0,0.0,0.0,0.0,0.0,0.0,0.0,0.0,0.0,0.0,0.0,0.0,0.0,0.0,0.0,0.0,0.0,0.0,0.0,0.0,0.0,0.0,0.0,0.0,0.0,0.0,0.0,0.0,0.0,0.0,0.0,0.0,0.0,0.0,0.0,0.0,0.0,0.0,0.0,0.0,0.0,0.0,0.0,0.0,0.0,0.0,0.0,0.0,0.0,0.0,0.0,0.0,0.0,0.0,0.0,0.0,0.0,0.0,0.0,0.0,0.0,0.0,0.0,0.0,0.0,0.0,0.0,0.0,0.0,0.0,0.0,0.0,0.0,0.0,0.0,0.0,0.0,0.0,0.0,0.0,0.0,0.0,0.0,0.0,0.0,0.0,0.0,0.0,0.0,0.0,0.0,-2.8612,-2.8612,-2.8687,-2.8785,-2.881,-2.8881,-2.8994,-2.8994,-2.8994,-2.8994,0.0,0.0,0.0,0.0,0.0,0.0,0.0,0.0,0.0,0.0,0.0,0.0,0.0,0.0,0.0,0.0,0.0,0.0,0.0,0.0,0.0,0.0,0.0,0.0,0.0,0.0,0.0,0.0,0.0,0.0,0.0,0.0,0.0,0.0,0.0,0.0,0.0,0.0,0.0,0.0,0.0,0.0,0.0,0.0,0.0,0.0,0.0,0.0,0.0,0.0,0.0,0.0,0.0,0.0,0.0,0.0,0.0,0.0,0.0,0.0,0.0,0.0,0.0,0.0,0.0,0.0,0.0,0.0,0.0,0.0,0.0,0.0,0.0,0.0,0.0,0.0,0.0,0.0,0.0,0.0,0.0,0.0,0.0,0.0,0.0,0.0,0.0,0.0,0.0,0.0,0.0,0.0,0.0,0.0,0.0,0.0,0.0,0.0,0.0,0.0,0.0,0.0,-2.8612,-2.8644,-2.8737,-2.8785,-2.8858,-2.8929,-2.8994,-2.8994,-2.8994,-2.8994,0.0,0.0,0.0,0.0,0.0,0.0,0.0,0.0,0.0,0.0,0.0,0.0,0.0,0.0,0.0,0.0,0.0,0.0,0.0,0.0,0.0,0.0,0.0,0.0,0.0,0.0,0.0,0.0,0.0,0.0,0.0,0.0,0.0,0.0,0.0,0.0,0.0,0.0,0.0,0.0,0.0,0.0,0.0,0.0,0.0,0.0,0.0,0.0,0.0,0.0,0.0,0.0,0.0,0.0,0.0,0.0,0.0,0.0,0.0,0.0,-2.4172,0.0,0.0,0.0,0.0,0.0,0.0,0.0,0.0,0.0,0.0,0.0,0.0,0.0,0.0,0.0,0.0,0.0,0.0,0.0,0.0,0.0,0.0,0.0,0.0,0.0,0.0,0.0,0.0,0.0,0.0,0.0,0.0,0.0,0.0,0.0,0.0,0.0,0.0,0.0,0.0,0.0,-2.8612,-2.8612,-2.8662,-2.8694,-2.8785,-2.8858,-2.8929,-2.8952,-2.8994,-2.8994,-2.8994,0.0,0.0,0.0,0.0,0.0,0.0,0.0,0.0,0.0,0.0,0.0,0.0,0.0,0.0,0.0,0.0,0.0,0.0,0.0,0.0,0.0,0.0,0.0,0.0,0.0,0.0,0.0,0.0,0.0,0.0,0.0,0.0,0.0,0.0,0.0,0.0,0.0,0.0,0.0,0.0,0.0,0.0,0.0,0.0,0.0,0.0,0.0,0.0,0.0,0.0,0.0,0.0,0.0,0.0,0.0,0.0,0.0,0.0,0.0,0.0,-2.4723,0.0,0.0,0.0,0.0,0.0,0.0,0.0,0.0,0.0,0.0,0.0,0.0,0.0,0.0,0.0,0.0,0.0,0.0,0.0,0.0,0.0,0.0,0.0,0.0,0.0,0.0,0.0,0.0,0.0,0.0,0.0,0.0,0.0,0.0,0.0,0.0,0.0,0.0,0.0,0.0,-2.8587,-2.8587,-2.8637,-2.8694,-2.8737,-2.8785,-2.8858,-2.8881,-2.8905,-2.8905,-2.8905,0.0,0.0,0.0,0.0,0.0,0.0,0.0,0.0,0.0,0.0,0.0,0.0,0.0,0.0,0.0,0.0,0.0,0.0,0.0,0.0,0.0,0.0,0.0,0.0,0.0,0.0,0.0,0.0,0.0,0.0,0.0,0.0,0.0,0.0,0.0,0.0,0.0,0.0,0.0,0.0,0.0,0.0,0.0,0.0,0.0,0.0,0.0,0.0,0.0,0.0,0.0,0.0,0.0,-2.6208,-2.6254,-2.6305,-2.6254,-2.6229,-2.6229,-2.6229,-2.6093,-2.5875,-2.5875,0.0,0.0,0.0,0.0,0.0,0.0,0.0,0.0,0.0,0.0,0.0,0.0,0.0,0.0,0.0,0.0,0.0,0.0,0.0,0.0,0.0,0.0,0.0,0.0,-2.7947,-2.833,-2.7712,0.0,0.0,0.0,0.0,0.0,0.0,0.0,0.0,0.0,0.0,0.0,-2.8811,-2.8811,-2.8891,-2.9069,-2.9112,-2.9082,-2.9004,-2.9004,-2.8931,-2.8804,-2.8785,-2.881,0.0,0.0,0.0,0.0,0.0,0.0,0.0,0.0,0.0,0.0,0.0,0.0,0.0,0.0,0.0,0.0,0.0,0.0,0.0,0.0,0.0,0.0,0.0,0.0,0.0,0.0,0.0,0.0,0.0,0.0,0.0,0.0,-2.3909,-2.4228,0.0,0.0,0.0,0.0,0.0,0.0,0.0,0.0,0.0,0.0,0.0,0.0,0.0,-2.5843,-2.5843,-2.6522,-2.6861,-2.6879,-2.7567,-2.7906,-2.7906,-2.7906,-2.7861,-2.7861,-2.7861,0.0,-2.58,-2.58,0.0,0.0,0.0,0.0,0.0,0.0,0.0,0.0,0.0,0.0,0.0,0.0,0.0,0.0,0.0,0.0,0.0,0.0,0.0,0.0,0.0,0.0,-2.8092,-2.82,-2.8334,-2.8388,0.0,-2.8366,-2.846,-2.8569,-2.8587,0.0,0.0,0.0,0.0,0.0,0.0,0.0,-2.9626,-2.9626,-2.9898,-3.0631,-3.0749,-3.0511,-2.9802,-2.9824,-2.9539,-2.8822,-2.8785,-2.8887,-2.906,-2.8915,0.0,0.0,0.0,0.0,0.0,0.0,0.0,0.0,0.0,0.0,0.0,0.0,0.0,0.0,0.0,0.0,0.0,0.0,0.0,0.0,0.0,0.0,0.0,0.0,0.0,0.0,0.0,0.0,0.0,-2.3882,-2.4114,-2.4411,-2.4624,-2.4832,0.0,0.0,0.0,0.0,0.0,0.0,0.0,0.0,0.0,-2.7157,-2.7157,-2.7371,-2.7817,-2.8174,-2.8566,-2.8976,-2.9333,-2.9494,-2.9494,-2.9494,-2.9494,-2.9494,-2.9494,-2.9101,-2.837,-2.7513,-2.7157,-2.7157,0.0,0.0,0.0,0.0,-2.6461,-2.6183,-2.6157,-2.6371,-2.6665,-2.6701,0.0,0.0,0.0,0.0,0.0,0.0,0.0,0.0,0.0,0.0,-2.8291,-2.8291,-2.8318,-2.8353,-2.838,-2.8845,-2.9078,0.0,-2.8543,-2.8706,-2.9192,0.0,0.0,0.0,0.0,-3.0459,-3.0459,-3.0459,-3.0604,-3.0948,-3.103,-3.0912,-3.0549,-3.0557,-3.022,-2.9395,-2.9341,-2.9216,-2.8821,-2.8892,-2.8966,0.0,0.0,0.0,0.0,0.0,0.0,0.0,0.0,0.0,0.0,0.0,0.0,0.0,0.0,0.0,0.0,0.0,0.0,0.0,0.0,0.0,0.0,0.0,0.0,0.0,0.0,0.0,0.0,-2.4645,-2.4794,-2.5079,-2.5416,-2.5652,0.0,0.0,0.0,0.0,0.0,0.0,-2.8513,-2.853,-2.8574,-2.8798,-2.877,-2.9084,-2.969,-2.969,-2.9958,-3.0511,-3.0511,-3.0511,-3.0511,-3.0511,-3.0481,-3.0469,-3.0469,-3.0421,-3.0285,-2.9009,-2.853,-2.8495,-2.8271,-2.8182,-2.8182,-2.8182,-2.8084,-2.7906,-2.7906,-2.7906,-2.7906,-2.7906,-2.8021,-2.8209,-2.8246,0.0,0.0,0.0,0.0,-2.8327,-2.8523,-2.854,-2.8538,-2.8734,-2.8826,-2.8863,-2.8936,-2.944,-2.9701,0.0,-2.8987,-2.9357,-2.9989,0.0,0.0,0.0,0.0,-3.131,-3.131,-3.131,-3.1383,-3.1582,-3.16,-3.1528,-3.131,-3.131,-3.0948,-3.0152,-3.0097,-2.9735,-2.8938,-2.9089,-2.9046,-2.8712,0.0,0.0,0.0,0.0,0.0,0.0,0.0,0.0,0.0,0.0,0.0,0.0,0.0,0.0,0.0,0.0,0.0,0.0,0.0,0.0,0.0,0.0,0.0,0.0,0.0,0.0,0.0,0.0,0.0,-2.6997,-2.737,0.0,0.0,0.0,0.0,-2.8128,-2.8164,-2.852,-2.9298,-2.9351,-2.9672,-3.0368,-3.0386,-3.0404,-3.044,-3.044,-3.0475,-3.0511,-3.0511,-3.0511,-3.0511,-3.0511,-3.0439,-3.0322,-3.0322,-3.0211,-2.9997,-2.9526,-2.9351,-2.9262,-2.8513,-2.8182,-2.8182,-2.8182,-2.7727,-2.7049,-2.7049,-2.7049,-2.7049,-2.7049,-2.7585,-2.8182,-2.8209,-2.8209,0.0,0.0,-2.8209,-2.8388,-2.9155,-2.9351,-2.953,-3.0225,-3.0386,-3.0386,-3.0386,-3.0422,-3.0313,0.0,-3.0351,-3.0894,-3.0912,0.0,-3.1818,-3.1111,-3.1636,-3.2144,-3.2144,-3.2144,-3.2433,-3.3194,-3.3284,-3.2977,-3.2198,-3.2144,-3.1799,-3.0985,-3.093,-3.0568,-2.9779,-2.9743,-2.9424,-2.8712,-2.8743,0.0,0.0,0.0,0.0,0.0,0.0,0.0,0.0,0.0,0.0,0.0,0.0,0.0,0.0,0.0,0.0,0.0,0.0,0.0,0.0,0.0,0.0,0.0,0.0,0.0,0.0,0.0,0.0,-2.6858,-2.7181,0.0,-2.857,-2.8653,-2.8953,-2.9626,-2.969,-2.9815,-3.0101,-3.0118,-3.0243,-3.0493,-3.0511,-3.0761,-3.126,-3.126,-3.1528,-3.2045,-3.2581,-3.283,-3.283,-3.3312,-3.3512,-3.3428,-3.2798,-3.2502,-3.2362,-3.1076,-3.0247,-2.977,-2.947,-2.9364,-2.9364,-2.9364,-2.9188,-2.8941,-2.9077,-2.9124,-2.9154,-2.9233,-2.9458,-2.969,-2.969,-2.969,-2.969,-2.969,-2.969,-2.9762,-3.0029,-3.0118,-3.0172,-3.044,-3.0511,-3.0511,-3.0624,-3.0981,-3.1309,-3.1232,-3.1044,-3.1044,-3.1606,-3.1988,-3.227,-3.2506,-3.2795,-3.2977,-3.2977,-3.2977,-3.3085,-3.3375,-3.3393,-3.3284,-3.2995,-3.2977,-3.2632,-3.1818,-3.1763,-3.1401,-3.0604,-3.0568,-3.0214,-2.9424,-2.9539,-2.9485,0.0,0.0,0.0,0.0,0.0,0.0,0.0,0.0,0.0,0.0,0.0,0.0,0.0,0.0,0.0,0.0,0.0,0.0,0.0,0.0,0.0,0.0,0.0,0.0,0.0,0.0,-2.708,-2.708,-2.7719,-2.8436,-2.9211,-2.9369,-2.9733,-3.0446,-3.0511,-3.0618,-3.0886,-3.1171,-3.1439,-3.1724,-3.1974,-3.2317,-3.277,-3.277,-3.3004,-3.347,-3.4002,-3.4268,-3.4286,-3.4783,-3.496,-3.4854,-3.4235,-3.3952,-3.381,-3.2669,-3.1865,-3.1289,-3.0374,-2.9986,-2.9986,-2.9986,-2.9828,-2.96,-2.9761,-2.9792,-2.9859,-3.0211,-3.0361,-3.0439,-3.0439,-3.0451,-3.0511,-3.0511,-3.0511,-3.0564,-3.0832,-3.0903,-3.0975,-3.1242,-3.1314,-3.1314,-3.141,-3.1834,-3.2222,-3.2289,-3.1888,-3.175,-3.2331,-3.2509,-3.2766,-3.3309,-3.3382,-3.3393,-3.3393,-3.3393,-3.3393,-3.3393,-3.3393,-3.3393,-3.3393,-3.3393,-3.3176,-3.2632,-3.2596,-3.2234,-3.1437,-3.1492,-3.1111,-3.0232,-3.0235,-3.0113,-2.9847,0.0,0.0,0.0,0.0,0.0,0.0,0.0,0.0,0.0,0.0,0.0,0.0,0.0,0.0,0.0,0.0,0.0,0.0,0.0,0.0,0.0,0.0,0.0,-2.6352,-2.7157,-2.7823,-2.7823,-2.9108,-2.9972,-3.0021,-3.0353,-3.0553,-3.0588,-3.0636,-3.0993,-3.176,-3.2527,-3.3312,-3.4115,-3.4795,-3.51,-3.4871,-3.4871,-3.4781,-3.4616,-3.4633,-3.4651,-3.4651,-3.4668,-3.4556,-3.4387,-3.4352,-3.4254,-3.415,-3.4093,-3.4093,-3.3839,-3.115,-3.0127,-3.0109,-3.0109,-2.9586,-2.8903,-2.8903,-2.8903,-2.9057,-2.9828,-3.0219,-3.0362,-3.0362,-3.0467,-3.0582,-3.0582,-3.0582,-3.0761,-3.1528,-3.1742,-3.192,-3.2719,-3.2916,-3.2916,-3.2916,-3.2916,-3.2916,-3.2916,-3.2993,-3.3086,-3.3086,-3.3214,-3.3292,-3.3292,-3.3352,0.0,-3.3393,-3.3393,-3.3411,-3.3411,-3.3393,-3.3393,-3.3393,-3.3393,-3.3393,-3.3393,-3.3393,-3.3049,-3.227,-3.2474,-3.2143,-3.1066,-3.0709,-3.0681,-3.0941,0.0,0.0,0.0,0.0,0.0,0.0,0.0,0.0,0.0,0.0,0.0,0.0,0.0,0.0,0.0,0.0,0.0,0.0,0.0,0.0,0.0,0.0,-2.7558,-2.7081,-2.7838,-2.844,-2.844,-2.8951,-2.961,-3.0421,-3.1218,-3.2015,-3.2831,-3.3532,-3.4008,-3.424,-3.4301,-3.4446,-3.4676,-3.4747,-3.4763,-3.4672,-3.4672,-3.4635,-3.4616,-3.5194,-3.5457,-3.5475,-3.6075,-3.6299,-3.6225,-3.5492,-3.5149,-3.5074,-3.438,-3.4093,-3.4047,-3.3277,-3.2622,-3.2102,-3.2102,-3.1706,-3.1184,-3.1184,-3.1354,-3.1603,-3.1815,-3.2033,-3.2179,-3.2179,-3.221,-3.2224,-3.2224,-3.2224,-3.2277,-3.2491,-3.2563,-3.2616,-3.2862,-3.2916,-3.2916,-3.2916,-3.2916,-3.2916,-3.2916,-3.2948,-3.2979,-3.3011,-3.3104,-3.3165,-3.3165,-3.3165,0.0,-3.3196,-3.3274,-3.3322,-3.3322,-3.3382,-3.3393,-3.3393,-3.3393,-3.3393,-3.3393,-3.3393,-3.3302,-3.3085,-3.3136,-3.2866,-3.2161,-3.1639,-3.1483,0.0,0.0,0.0,0.0,0.0,0.0,0.0,0.0,0.0,0.0,0.0,0.0,0.0,0.0,0.0,0.0,0.0,0.0,0.0,0.0,0.0,0.0,-2.8281,-2.8428,-2.8497,-2.8969,-2.9376,-2.9515,-3.034,-3.1227,-3.2119,-3.2861,-3.3565,-3.432,-3.4817,-3.5065,-3.5065,-3.519,-3.5275,-3.5275,-3.548,-3.5542,-3.5483,-3.5483,-3.5444,-3.531,-3.5802,-3.6011,-3.6028,-3.6481,-3.6731,-3.6655,-3.6099,-3.585,-3.5775,-3.5238,-3.5007,0.0,0.0,0.0,0.0,0.0,-3.2703,-3.2399,-3.2086,-3.2108,-3.2266,-3.2266,-3.2404,-3.259,-3.2639,-3.2705,-3.277,-3.2884,-3.2916,-3.2916,-3.2916,-3.2916,-3.2916,-3.2916,-3.2916,-3.2916,-3.2916,-3.2916,-3.2916,-3.2916,-3.2916,0.0,-3.2948,-3.3011,-3.3073,-3.3073,-3.3086,-3.3086,-3.3086,-3.3165,-3.3214,-3.3214,-3.3244,-3.3304,-3.3352,-3.3352,0.0,0.0,0.0,-3.3452,-3.3549,-3.3452,0.0,0.0,0.0,-3.2322,-3.2613,-3.2014,0.0,0.0,-3.0295,-3.0022,0.0,0.0,0.0,0.0,0.0,0.0,0.0,0.0,0.0,0.0,0.0,0.0,0.0,0.0,0.0,0.0,-2.8837,-2.9557,-3.0293,-3.0457,-3.0603,-3.0867,-3.2378,-3.3588,-3.4073,-3.4596,-3.4977,-3.5155,-3.5155,-3.5137,-3.5137,0.0,0.0,0.0,0.0,-3.6829,-3.6643,-3.6643,-3.6544,-3.6301,-3.6301,-3.6301,-3.6301,-3.6301,-3.6301,-3.6301,-3.6301,-3.6301,-3.6301,-3.6301,-3.6301,-3.6163,-3.4766,-3.4214,-3.4111,-3.3335,-3.3041,-3.2938,-3.2179,0.0,0.0,-3.1854,-3.1965,-3.2144,-3.2249,-3.242,-3.2588,-3.277,-3.2852,-3.2884,-3.2884,-3.2884,-3.2916,-3.2916,-3.2916,-3.2916,-3.2916,-3.2916,-3.2916,-3.2916,-3.2916,-3.2916,-3.2916,-3.2948,-3.2979,-3.2979,-3.3042,-3.3086,-3.3086,-3.3086,-3.3086,-3.3086,0.0,0.0,-3.3262,-3.3262,-3.3322,-3.3364,-3.3411,-3.3509,-3.3753,-3.352,-3.3633,-3.4148,-3.3382,-3.3152,-3.3435,-3.2808,-3.2503,-3.252,-3.0886,-3.014,0.0,0.0,0.0,0.0,0.0,0.0,0.0,0.0,0.0,0.0,0.0,0.0,0.0,0.0,0.0,-3.0266,-3.0514,-3.081,-3.154,-3.214,-3.2427,-3.2114,-3.2458,-3.2785,-3.3004,-3.4192,-3.5019,-3.5059,-3.599,-3.6591,-3.6591,-3.6531,-3.6516,-3.6516,-3.6457,-3.6426,-3.6402,-3.6402,-3.6343,-3.6301,0.0,0.0,-3.6301,-3.6301,-3.6301,-3.6301,-3.6301,-3.6301,-3.6301,-3.6301,-3.6301,-3.6215,-3.5318,-3.4973,-3.4887,-3.4128,-3.3852,-3.3749,-3.2955,-3.2792,-3.2837,-3.2246,-3.2126,-3.2249,-3.2283,-3.2318,0.0,-3.2386,-3.2521,-3.2672,-3.2672,-3.277,-3.2916,-3.2916,-3.2916,-3.2916,-3.2916,-3.2916,-3.2916,-3.2916,-3.2916,-3.2916,-3.2916,-3.2916,-3.2916,-3.2916,-3.2948,-3.2948,-3.2948,-3.2979,-3.3011,-3.3011,-3.3073,-3.3117,-3.3135,-3.3135,-3.3214,-3.3322,-3.3382,-3.3422,-3.3481,-3.3422,-3.3549,-3.3868,-3.3721,-3.384,-3.4339,-3.3535,-3.3241,-3.3411,-3.1743,-3.0983,0.0,0.0,0.0,0.0,0.0,0.0,0.0,0.0,0.0,0.0,0.0,-2.9059,0.0,0.0,-3.0214,-3.1391,-3.1507,-3.172,-3.2449,-3.2854,-3.3096,-3.2987,-3.336,-3.3743,-3.4058,-3.4967,-3.5589,-3.5714,-3.6423,-3.6846,-3.6846,-3.6626,-3.6502,-3.6502,-3.636,-3.6301,-3.6301,-3.6301,-3.6301,-3.6301,-3.6301,-3.6301,-3.6301,-3.6301,-3.6301,-3.6301,-3.6301,-3.6301,-3.6301,-3.6301,-3.6301,-3.6266,-3.5887,-3.5749,-3.5663,-3.4921,-3.4645,-3.4525,-3.3766,-3.3308,-3.2986,-3.2622,-3.2314,-3.2055,-3.2161,-3.2197,-3.2197,-3.2283,-3.2352,-3.2454,-3.2555,-3.2672,-3.2787,-3.2884,-3.2916,-3.2991,-3.3401,-3.3169,-3.3009,-3.3419,-3.3169,-3.2916,-3.2916,-3.2916,-3.2916,-3.2916,-3.2916,-3.2916,-3.2916,-3.2916,-3.2948,-3.2948,-3.2979,-3.2993,-3.3042,-3.3086,-3.3135,-3.3214,-3.3274,-3.3352,-3.3352,-3.3364,-3.3452,-3.3605,-3.3726,-3.3921,-3.4197,-3.4042,-3.4026,-3.4109,-3.2977,-3.2217,0.0,0.0,0.0,0.0,0.0,0.0,0.0,0.0,-2.9032,-2.9178,-2.9664,-3.0295,-3.1008,-3.1092,-3.138,-3.2093,-3.2222,-3.2465,-3.3178,-3.3291,-3.3372,-3.3676,-3.4233,-3.4802,-3.534,-3.5732,-3.6011,-3.6266,-3.6485,-3.6602,-3.6602,-3.6402,-3.6301,-3.6301,-3.6301,-3.6301,-3.6301,-3.6301,-3.6301,-3.6301,-3.6301,-3.6301,-3.6301,-3.6301,-3.6301,-3.6301,-3.6301,-3.6301,-3.6301,-3.6301,-3.6301,-3.6301,-3.6301,-3.6301,-3.6232,-3.5628,-3.5404,-3.5301,-3.4559,-3.3886,-3.3317,-3.3179,-3.2628,-3.2044,-3.2227,-3.2159,-3.2073,-3.2161,-3.2214,-3.2283,-3.2472,-3.2539,-3.2674,-3.2998,-3.3116,-3.3348,-3.4151,-3.3794,-3.3491,-3.4008,-3.358,-3.3062,-3.2952,-3.2916,-3.2916,-3.2916,-3.2916,-3.2916,-3.2916,-3.2916,-3.2916,-3.2916,-3.2916,-3.2916,-3.2997,-3.3042,-3.3086,-3.3086,-3.3183,-3.3262,-3.331,-3.3352,-3.3382,-3.3393,-3.3587,-3.3753,-3.3807,-3.4293,-3.4539,-3.4604,-3.4149,-3.3468,-2.5617,-2.6905,-2.8216,-2.8745,-2.9291,-2.9659,0.0,0.0,-2.9923,-3.0554,-3.0749,-3.1024,-3.1753,-3.1882,-3.2125,-3.2854,-3.2967,-3.321,-3.389,-3.3987,-3.3987,-3.4037,-3.4102,-3.4399,-3.493,-3.5178,-3.5453,-3.5854,-3.6174,-3.6343,-3.6343,-3.6301,-3.6301,-3.6301,-3.6301,-3.6301,-3.6301,-3.6301,-3.6301,-3.6301,-3.6301,-3.6301,-3.6301,-3.6301,-3.6301,-3.6301,-3.6301,-3.6301,-3.6301,-3.6301,-3.6301,-3.6301,-3.6301,-3.6301,-3.6284,-3.6215,-3.618,-3.6077,-3.5318,-3.5007,-3.4818,-3.4162,-3.3421,-3.2783,-3.2821,-3.2355,-3.1837,-3.1856,-3.1965,-3.2144,-3.2144,-3.237,-3.2783,-3.3507,-3.3855,-3.4169,-3.4936,-3.5025,-3.4793,-3.4222,-3.4026,-3.374,-3.3009,-3.2916,-3.2916,-3.2916,-3.2916,-3.2916,-3.2916,-3.2916,-3.2916,-3.2916,-3.2916,-3.2916,-3.2916,-3.2979,-3.3011,-3.3011,-3.3073,-3.3183,-3.331,-3.331,-3.3352,-3.3393,-3.3422,-3.3549,-3.3807,-3.4099,-3.4381,-3.4604,-3.4716,-3.4339,-2.7461,-2.8231,0.0,0.0,-3.0338,-3.0587,-3.1008,-3.1105,-3.1202,-3.1494,-3.1558,-3.1785,-3.2498,-3.2643,-3.287,0.0,-3.368,-3.3777,-3.4052,-3.4101,-3.4101,-3.4101,-3.4101,-3.4201,-3.4399,-3.4723,-3.4961,-3.5148,-3.5453,-3.5677,-3.5677,-3.5677,-3.5677,-3.5677,-3.5898,-3.6002,-3.6002,-3.6216,-3.6301,-3.6301,-3.6301,-3.6301,-3.6301,-3.6301,-3.6301,-3.6301,-3.6301,-3.6301,-3.6301,-3.6301,-3.6301,-3.6301,-3.6301,-3.6301,-3.6301,-3.6301,-3.6301,-3.6266,-3.5956,-3.5559,-3.5145,-3.4835,-3.4214,-3.3507,-3.3041,-3.2679,-3.2352,-3.1921,-3.2184,-3.2624,-3.2861,-3.3354,-3.3953,-3.448,-3.4672,-3.4954,-3.5739,-3.5543,-3.5257,-3.5418,-3.4722,-3.399,-3.3651,-3.3205,-3.2916,-3.2916,-3.2916,-3.2916,-3.2916,-3.2916,-3.2916,-3.2916,-3.2916,-3.2916,-3.2916,-3.2916,-3.2948,-3.2948,-3.3011,-3.3073,-3.3122,-3.3152,-3.3244,-3.3352,-3.3352,-3.3422,-3.3577,-3.3998,-3.4245,-3.4381,-3.4732,-3.4718,-2.84,0.0,0.0,-3.0428,-3.0919,-3.1364,-3.1882,-3.2012,-3.206,-3.2271,-3.2303,-3.253,-3.3242,-3.3372,-3.3518,-3.402,-3.4101,-3.4101,-3.4101,-3.4101,-3.4101,-3.4101,-3.4101,-3.4101,-3.4101,-3.4448,-3.4739,-3.4818,-3.5038,-3.5224,-3.5224,-3.5224,-3.527,-3.5362,-3.5633,-3.5854,-3.5958,-3.6174,-3.6301,-3.6301,-3.6301,-3.6301,-3.6301,-3.6301,-3.6301,-3.6301,-3.6301,-3.6301,-3.6301,-3.6301,-3.6301,-3.6301,-3.6301,-3.6301,-3.6301,-3.6301,-3.6301,-3.6301,-3.6301,-3.5956,-3.549,-3.549,-3.499,-3.4283,-3.3714,-3.3386,-3.311,-3.2576,-3.2817,-3.3308,-3.3665,-3.4212,-3.4851,-3.5315,-3.5508,-3.5757,-3.656,-3.6274,-3.5971,-3.6328,-3.5507,-3.4597,-3.4169,-3.3616,-3.3152,-3.292,-3.2916,-3.2916,-3.2916,-3.2916,-3.2916,-3.2916,-3.2916,-3.2916,-3.2916,-3.2916,-3.2916,-3.2916,-3.2948,-3.2979,-3.2979,-3.3042,-3.3135,-3.331,-3.331,-3.3322,-3.3393,-3.3868,-3.4124,-3.4221,-3.4609,-3.485,0.0,0.0,-2.9537,-3.0022,-3.1069,-3.1979,-3.1996,-3.2012,-3.2206,-3.2902,-3.3064,-3.3259,-3.3939,-3.4068,-3.4084,-3.4101,-3.4101,-3.4101,-3.4101,-3.4101,-3.4101,-3.4101,-3.4101,-3.4101,0.0,-3.4448,-3.4818,-3.5178,-3.5178,-3.5224,-3.5224,-3.5224,-3.5362,-3.5783,-3.5766,-3.5958,-3.6301,-3.6301,-3.6301,-3.6301,-3.6301,-3.6301,-3.6301,-3.6301,-3.6301,-3.6301,-3.6301,-3.6301,-3.6301,-3.6301,-3.6301,-3.6301,-3.6301,-3.6301,-3.6301,-3.6301,-3.6301,-3.6301,-3.6301,-3.6284,-3.6266,-3.6266,-3.5766,-3.5145,-3.5128,-3.4628,-3.4042,-3.4024,-3.4042,-3.412,-3.4314,-3.4521,-3.4937,-3.5844,-3.6203,-3.6577,-3.738,-3.7523,-3.7291,-3.6542,-3.6363,-3.5864,-3.4365,-3.4079,-3.3794,-3.3009,-3.2916,-3.2916,-3.2916,-3.2916,-3.2916,-3.2916,-3.2916,-3.2916,-3.2916,-3.2916,-3.2916,-3.2916,-3.2916,-3.2916,-3.2997,-3.3011,-3.3091,-3.331,-3.331,-3.3322,-3.3393,-3.3671,-3.3947,-3.4197,-3.4495,-3.471,0.0,0.0,-2.9834,-3.163,-3.2418,-3.2854,-3.3291,-3.3388,-3.3453,-3.3712,-3.3404,-3.3161,-3.3388,-3.3437,-3.3437,-3.3437,-3.3809,-3.4101,-3.4101,-3.4101,-3.4101,-3.4101,-3.4101,0.0,0.0,0.0,0.0,-3.448,-3.4464,-3.4464,-3.4464,-3.4464,-3.4513,-3.4658,-3.5131,-3.5453,-3.5588,-3.6071,-3.6301,-3.6301,-3.6301,-3.6301,-3.6301,-3.6301,-3.6301,-3.6301,-3.6301,-3.6301,-3.6301,-3.6301,-3.6301,-3.6301,-3.6301,-3.6301,-3.6301,-3.6301,-3.6301,-3.6301,-3.6301,-3.6301,-3.6301,-3.6301,-3.6128,-3.5835,-3.5335,-3.5025,-3.4714,-3.4231,-3.4438,-3.4898,-3.5217,-3.5773,-3.6383,-3.6967,-3.7148,-3.7255,-3.7523,-3.7577,-3.7505,-3.7238,-3.6756,-3.6238,-3.5721,-3.4775,-3.383,-3.3009,-3.2916,-3.2916,-3.2916,-3.2916,-3.2916,-3.2916,-3.2916,-3.2916,-3.2916,-3.2916,-3.2916,-3.2916,-3.2916,-3.2916,-3.2948,-3.2948,-3.2997,-3.3091,-3.3091,-3.3183,-3.3322,-3.3605,-3.3895,-3.4197,-3.4473,-3.471,0.0,-2.9419,-3.0463,-3.1829,-3.251,-3.3032,-3.3668,-3.3572,-3.3462,-3.3678,-3.3194,-3.2708,-3.2708,-3.2708,-3.2708,-3.2708,-3.3291,-3.3744,-3.3744,-3.3939,-3.4101,-3.4101,-3.4101,-3.4101,0.0,0.0,0.0,-3.4101,-3.4101,-3.4101,-3.4101,-3.4101,-3.4151,-3.43,-3.4771,-3.5085,-3.5224,-3.5677,-3.5985,-3.6131,-3.6259,-3.6301,-3.6301,-3.6301,-3.6301,-3.6301,-3.6301,-3.6301,-3.6301,-3.6301,-3.6301,-3.6301,-3.6301,-3.6301,-3.6301,-3.6301,-3.6301,-3.6301,-3.6301,-3.6301,-3.6301,-3.6301,-3.6301,-3.6215,-3.5732,-3.5576,-3.549,-3.5007,-3.5214,-3.5659,-3.602,-3.6562,-3.7087,-3.7392,-3.7558,-3.7577,-3.7577,-3.7577,-3.7577,-3.7577,-3.7166,-3.6738,-3.6453,-3.5114,-3.3919,-3.3401,-3.3062,-3.2916,-3.2916,-3.2916,-3.2916,-3.2916,-3.2916,-3.2916,-3.2916,-3.2916,-3.2916,-3.2916,-3.2916,-3.2916,-3.2916,-3.2916,-3.2916,-3.2979,-3.2979,-3.3091,-3.331,-3.3577,-3.3868,-3.4197,-3.4473,-3.471,-2.7944,-2.9535,-3.1229,-3.0714,-3.1561,-3.2586,-3.3045,-3.2661,-3.2421,-3.2918,-3.2465,-3.1947,0.0,0.0,-3.1947,-3.1947,-3.2562,-3.3048,-3.308,-3.3647,-3.4052,0.0,0.0,0.0,0.0,0.0,0.0,-3.4101,0.0,-3.4101,-3.4101,-3.4101,-3.425,-3.4643,-3.4691,-3.4818,-3.5178,-3.5178,-3.5407,-3.5766,-3.6131,-3.6259,-3.6259,-3.6259,-3.6301,-3.6301,-3.6301,-3.6301,-3.6301,-3.6301,-3.6301,-3.6301,-3.6301,-3.6301,-3.6301,-3.6301,-3.6301,-3.6301,-3.6301,-3.6301,-3.6301,-3.6301,-3.6301,-3.6301,-3.6301,-3.6301,-3.6301,-3.6301,-3.6301,-3.6343,-3.6643,-3.6846,-3.7066,-3.7259,-3.7447,-3.7577,-3.7577,-3.7577,-3.7577,-3.7577,-3.7577,-3.7327,-3.6542,-3.5186,-3.4204,-3.4115,-3.3437,-3.2969,-3.2916,-3.2916,-3.2916,-3.2916,-3.2916,-3.2916,-3.2916,-3.2916,-3.2916,-3.2916,-3.2916,-3.2916,-3.2916,-3.2916,-3.2916,-3.2979,-3.2979,-3.3091,-3.3292,-3.3549,-3.3868,-3.4197,-3.4473,-3.471,-2.944,-3.0263,-3.0915,-3.1708,-3.2447,-3.2914,-3.2514,-3.265,-3.2773,-3.2336,-3.1704,-3.1202,0.0,0.0,0.0,-3.1202,-3.1817,0.0,-3.3016,-3.3242,0.0,0.0,0.0,-3.4101,-3.4101,-3.4101,0.0,0.0,-3.4101,-3.4101,-3.4101,-3.4101,-3.4151,-3.425,-3.4546,-3.4739,-3.4835,-3.5085,-3.527,-3.5362,-3.5722,-3.5915,-3.5915,-3.5915,-3.6088,-3.6301,-3.6045,-3.6088,-3.6301,-3.6301,-3.6301,-3.6301,-3.6301,-3.6301,-3.6301,-3.6301,-3.6301,-3.6301,-3.6301,-3.6301,-3.6301,-3.6301,-3.6301,-3.6301,-3.6301,-3.6301,-3.6301,-3.6301,-3.6301,-3.6343,-3.6643,-3.6846,-3.7066,-3.7259,-3.7447,-3.7577,-3.7577,-3.7577,-3.7577,-3.7577,-3.7577,-3.7327,-3.6542,-3.6078,-3.5418,-3.4276,-3.3937,-3.358,-3.2987,-3.2916,-3.2916,-3.2916,-3.2916,-3.2916,-3.2916,-3.2916,-3.2916,-3.2916,-3.2916,-3.2916,-3.2916,-3.2916,-3.2916,-3.2916,-3.2916,-3.3011,-3.3165,-3.3408,-3.3778,-3.4197,-3.4473,-3.471,-2.9832,-3.0517,-3.1057,-3.1504,-3.2018,-3.2261,-3.1597,-3.1848,-3.2031,-3.1294,-3.0806,0.0,0.0,0.0,0.0,0.0,0.0,0.0,-3.2514,-3.2886,-3.334,0.0,-3.4101,0.0,-3.4101,-3.4101,-3.4101,0.0,-3.4101,-3.4101,-3.4101,-3.4101,-3.4101,-3.4101,-3.43,-3.4448,-3.4448,-3.4818,-3.5008,-3.5008,-3.5362,-3.5543,-3.5543,-3.5543,-3.5722,-3.6088,0.0,-3.6002,-3.6301,-3.6301,-3.6301,-3.6301,-3.6301,-3.6301,-3.6301,-3.6301,-3.6301,-3.6301,-3.6301,-3.6301,-3.6301,-3.6301,-3.6301,-3.6301,-3.6301,-3.6301,-3.6301,-3.6301,-3.6301,-3.6343,-3.6502,-3.6725,-3.6926,-3.7105,-3.7334,-3.7484,-3.7577,-3.7577,-3.7577,-3.7577,-3.7577,-3.7452,-3.6988,-3.6631,-3.5989,-3.4775,-3.4311,-3.3812,-3.2991,-3.2916,-3.2916,-3.2916,-3.2916,-3.2916,-3.2916,-3.2916,-3.2916,-3.2916,-3.2916,-3.2916,-3.2916,-3.2916,-3.2916,-3.2916,-3.2916,-3.2948,-3.3073,-3.3458,-3.3821,-3.4136,-3.4524,-3.4791,-2.9667,-3.0543,-3.1248,-3.0747,-3.097,-3.1222,-3.0588,-3.0674,-3.0714,-3.018,0.0,0.0,-2.9874,0.0,-2.9918,-2.9918,0.0,-3.104,-3.1769,-3.2481,-3.3194,-3.389,-3.4052,-3.4101,-3.4101,-3.4101,-3.4101,-3.4101,-3.4101,-3.4101,-3.4101,-3.4101,-3.4101,-3.4101,-3.4101,-3.4101,-3.4101,-3.4448,-3.4594,-3.4643,-3.4961,-3.5131,-3.5131,-3.5131,-3.5362,-3.5722,-3.5722,-3.5915,-3.6259,-3.6301,-3.6301,-3.6301,-3.6301,-3.6301,-3.6301,-3.6301,-3.6301,-3.6301,-3.6301,-3.6301,-3.6301,-3.6301,-3.6301,-3.6301,-3.6301,-3.6301,-3.6301,-3.6301,-3.6301,-3.6301,-3.6301,-3.6502,-3.6725,-3.6948,-3.7143,-3.7372,-3.7558,-3.7577,-3.7577,-3.7577,-3.7577,-3.7577,-3.7577,-3.7006,-3.6256,-3.5346,-3.4668,-3.3919,-3.3009,-3.2916,-3.2916,-3.2916,-3.2916,-3.2916,-3.2916,-3.2916,-3.2916,-3.2916,-3.2916,-3.2916,-3.2916,-3.2916,-3.2916,-3.2916,-3.2916,-3.2948,-3.2979,-3.3607,-3.3931,-3.4006,-3.4632,-3.4908,-3.0148,-3.0615,-3.0747,-3.0642,-3.0659,-3.0614,-3.0312,-2.9966,0.0,0.0,0.0,-2.9364,-2.9814,-2.9918,0.0,-2.9918,0.0,0.0,0.0,0.0,-3.2465,0.0,0.0,0.0,0.0,0.0,0.0,0.0,0.0,-3.4101,-3.4101,-3.4101,-3.4101,-3.4101,-3.4101,-3.4101,-3.4101,-3.4151,-3.4201,-3.4201,-3.4594,-3.4787,-3.4787,-3.4787,-3.4961,-3.5316,-3.5316,0.0,-3.5915,-3.6174,-3.6301,-3.6301,-3.6301,-3.6301,-3.6301,-3.6301,-3.6301,-3.6301,-3.6301,-3.6301,-3.6301,-3.6301,-3.6301,-3.6301,-3.6301,-3.6301,-3.6301,-3.6301,-3.6301,-3.6301,-3.6301,-3.6502,-3.6725,-3.6948,-3.7143,-3.7372,-3.7558,-3.7577,-3.7577,-3.7577,-3.7577,-3.7577,-3.7577,-3.747,-3.6881,-3.5435,-3.5096,-3.4508,-3.3062,-3.2916,-3.2916,-3.2916,-3.2916,-3.2916,-3.2916,-3.2916,-3.2916,-3.2916,-3.2916,-3.2916,-3.2916,-3.2916,-3.2916,-3.2916,-3.2916,-3.2948,-3.2979,-3.3607,-3.3931,-3.4006,-3.4632,-3.4908,-3.0219,-3.0807,-3.1013,-3.0601,-3.0702,-3.0738,-2.994,0.0,0.0,0.0,0.0,-2.956,-2.9858,0.0,0.0,0.0,0.0,0.0,0.0,0.0,0.0,0.0,0.0,0.0,0.0,0.0,0.0,0.0,0.0,-3.4101,-3.4101,-3.4101,-3.4101,-3.4101,-3.4101,-3.4101,-3.4101,-3.4101,-3.4101,-3.4101,-3.43,-3.4497,-3.4691,-3.4497,-3.4818,-3.5498,-3.5102,-3.5362,-3.6088,-3.6045,-3.6114,-3.6301,-3.6301,-3.6216,-3.6088,-3.6259,-3.6174,-3.6071,-3.6259,-3.6301,-3.6301,-3.6301,-3.6301,-3.6301,-3.6301,-3.6301,-3.6301,-3.6301,-3.6301,-3.6301,-3.6301,-3.6502,-3.6725,-3.6948,-3.7203,-3.7484,-3.7594,-3.7577,-3.7577,-3.7577,-3.7577,-3.7577,-3.7577,-3.7577,-3.7041,-3.5453,-3.5204,-3.465,-3.3112,-3.2916,-3.2916,-3.2916,-3.2916,-3.2916,-3.2916,-3.2916,-3.2916,-3.2916,-3.2916,-3.2916,-3.2916,-3.2916,-3.2916,-3.2916,-3.2916,-3.2979,-3.3117,-3.3634,-3.4,-3.4184,-3.4672,-3.4908,-2.9856,-3.0558,-3.077,-3.0193,-3.0437,-3.047,-2.9378,-2.9345,0.0,0.0,-2.9319,-2.9621,-2.9858,0.0,0.0,0.0,0.0,0.0,0.0,0.0,0.0,0.0,0.0,0.0,0.0,0.0,0.0,0.0,0.0,0.0,-3.4101,-3.4101,-3.4101,-3.4101,-3.4101,-3.4101,-3.4101,-3.4101,-3.4101,-3.4101,-3.4101,-3.425,-3.4546,-3.425,-3.4561,-3.5407,-3.4913,-3.5195,-3.5941,-3.5766,-3.581,-3.6071,-3.6071,-3.5898,-3.5722,-3.6071,-3.6045,-3.5871,-3.6174,-3.6301,-3.6301,-3.6301,-3.6301,-3.6301,-3.6301,-3.6301,-3.6301,-3.6301,-3.6301,-3.6301,-3.6301,-3.6461,-3.6684,-3.6948,-3.7279,-3.7558,-3.7577,-3.7577,-3.7577,-3.7577,-3.7577,-3.7577,-3.7577,-3.7577,-3.7095,-3.5685,-3.5328,-3.4704,-3.3312,-3.3023,-3.2916,-3.2916,-3.2916,-3.2916,-3.2916,-3.2916,-3.2916,-3.2916,-3.2916,-3.2916,-3.2916,-3.2916,-3.2916,-3.2916,-3.2916,-3.2961,-3.3129,-3.3661,-3.4018,-3.4227,-3.4693,-3.4908,-2.8666,-2.8911,-2.8939,-2.8881,-2.8798,-2.8734,-2.8614,0.0,0.0,0.0,-2.8732,-2.8732,-2.971,-2.9918,0.0,0.0,0.0,0.0,0.0,0.0,0.0,0.0,0.0,0.0,0.0,0.0,0.0,0.0,0.0,0.0,-3.4101,-3.4101,-3.4101,-3.4101,-3.4101,-3.4101,-3.4101,-3.4101,-3.4101,-3.4101,-3.4101,-3.4101,-3.4151,-3.4101,-3.4151,-3.4284,-3.4546,-3.4739,0.0,-3.5131,-3.527,-3.5316,-3.5316,-3.527,-3.5316,-3.5677,-3.5827,-3.5871,-3.6174,-3.6301,-3.6301,-3.6301,-3.6301,-3.6301,-3.6301,-3.6301,-3.6301,-3.6301,-3.6301,-3.6301,-3.6301,-3.6301,-3.6426,-3.6891,-3.7182,-3.7372,-3.754,-3.7577,-3.7577,-3.7577,-3.7577,-3.7577,-3.7577,-3.7577,-3.7291,-3.6417,-3.5667,-3.4918,-3.4097,-3.3348,-3.2916,-3.2916,-3.2916,-3.2916,-3.2916,-3.2916,-3.2916,-3.2916,-3.2916,-3.2916,-3.2916,-3.2916,-3.2916,-3.2916,-3.2916,-3.2916,-3.2948,-3.3579,-3.3906,-3.3931,-3.4612,-3.4908,-2.8507,-2.8946,-2.9119,-2.8665,-2.8568,-2.8516,-2.8414,0.0,0.0,-2.8448,-2.8685,-2.8919,-2.9319,-2.9665,-2.9918,0.0,0.0,0.0,0.0,0.0,0.0,0.0,0.0,0.0,0.0,0.0,0.0,0.0,0.0,0.0,-3.4101,-3.4101,-3.4101,-3.4101,-3.4101,-3.4101,-3.4101,-3.4101,-3.4101,-3.4101,-3.4101,-3.425,-3.4448,-3.4201,-3.4333,-3.4754,-3.448,-3.4578,0.0,-3.4913,-3.5008,-3.5224,-3.5224,-3.5224,-3.527,-3.5633,-3.5827,-3.5871,-3.6174,-3.6301,-3.6301,-3.6301,-3.6301,-3.6301,-3.6301,-3.6301,-3.6301,-3.6301,-3.6301,-3.6301,-3.6301,-3.6509,-3.6811,-3.7105,-3.7334,-3.7521,-3.7577,-3.7577,-3.7577,-3.7577,-3.7577,-3.7577,-3.7577,-3.7577,-3.7327,-3.6524,-3.5721,-3.4936,-3.4204,-3.3384,-3.2916,-3.2916,-3.2916,-3.2916,-3.2916,-3.2916,-3.2916,-3.2916,-3.2916,-3.2916,-3.2916,-3.2916,-3.2916,-3.2916,-3.3024,-3.3178,-3.3327,-3.3884,-3.4208,-3.4325,-3.4713,-3.4908,-2.7998,-2.8429,-2.8634,-2.8121,-2.8284,-2.844,0.0,0.0,0.0,-2.8448,-2.8842,-2.9136,-2.9319,-2.9665,-2.9918,0.0,0.0,0.0,0.0,0.0,0.0,0.0,0.0,0.0,0.0,0.0,0.0,0.0,0.0,0.0,-3.4101,-3.4101,-3.4101,-3.4101,-3.4101,-3.4101,-3.4101,-3.4101,-3.4101,-3.4101,-3.4101,-3.425,-3.4497,-3.425,-3.4382,-3.4849,-3.4333,-3.4382,0.0,-3.4626,-3.4675,-3.4897,-3.5008,-3.5038,-3.5085,-3.5633,-3.5827,-3.5871,-3.6174,-3.6301,-3.6301,-3.6301,-3.6301,-3.6301,-3.6301,-3.6301,-3.6301,-3.6301,-3.6301,-3.6301,-3.6301,-3.655,-3.6851,-3.7143,-3.7334,-3.7466,-3.7577,-3.7577,-3.7577,-3.7577,-3.7577,-3.7577,-3.7577,-3.7577,-3.7398,-3.6827,-3.5882,-3.5025,-3.4508,-3.3526,-3.2916,-3.2916,-3.2916,-3.2916,-3.2916,-3.2916,-3.2916,-3.2916,-3.2916,-3.2916,-3.2916,-3.2979,-3.2993,-3.2993,-3.3208,-3.3415,-3.3605,-3.4074,-3.4363,-3.4517,-3.4772,-3.4908,-2.6808,-2.6794,-2.6808,-2.6794,-2.756,-2.8158,0.0,0.0,0.0,-2.9074,-2.9074,-2.9273,-2.9814,-2.9918,-2.9918,-2.9918,0.0,0.0,0.0,0.0,0.0,0.0,0.0,0.0,0.0,0.0,0.0,0.0,0.0,0.0,-3.4101,-3.4101,-3.4101,-3.4101,-3.4101,-3.4101,-3.4101,-3.4101,-3.4101,-3.4101,-3.4101,-3.4101,-3.4101,-3.4101,-3.4101,-3.4101,-3.4101,-3.4101,0.0,-3.4101,-3.4101,-3.4151,-3.4546,-3.4707,-3.4787,-3.5515,-3.5827,-3.5871,-3.6174,-3.6301,-3.6301,-3.6301,-3.6301,-3.6301,-3.6301,-3.6301,-3.6301,-3.6301,-3.6301,-3.6301,-3.6301,-3.6301,-3.6426,-3.6891,-3.7009,-3.7143,-3.7503,-3.7577,-3.7577,-3.7577,-3.7577,-3.7577,-3.7577,-3.7577,-3.7577,-3.7577,-3.6238,-3.5204,-3.5204,-3.3847,-3.2916,-3.2916,-3.2916,-3.2916,-3.2916,-3.2916,-3.2916,-3.2916,-3.2916,-3.2916,-3.2916,-3.3068,-3.319,-3.319,-3.3473,-3.3605,-3.3605,-3.4074,-3.4293,-3.4316,-3.4711,-3.4908,-2.6663,-2.6779,-2.6779,-2.6779,-2.7026,-2.7203,-2.7063,0.0,0.0,-2.8012,-2.8591,-2.9136,-2.9319,-2.9665,-2.9918,-2.9918,-2.9918,0.0,0.0,0.0,0.0,0.0,0.0,0.0,0.0,0.0,0.0,0.0,0.0,0.0,-3.4101,-3.4101,-3.4101,-3.4101,-3.4101,-3.4101,-3.4101,-3.4101,-3.4101,-3.4101,-3.4101,-3.4101,-3.4101,-3.4101,-3.4101,-3.4101,-3.4101,-3.4101,-3.4101,-3.4101,-3.425,-3.4497,-3.4643,-3.5008,-3.5453,-3.5722,-3.5958,-3.6174,-3.6259,-3.6301,-3.6301,-3.6301,-3.6301,-3.6301,-3.6301,-3.6301,-3.6301,-3.6301,-3.6301,-3.6301,-3.6301,-3.6444,-3.6643,-3.6948,-3.7105,-3.7297,-3.754,-3.7577,-3.7577,-3.7577,-3.7577,-3.7577,-3.7577,-3.7577,-3.7577,-3.7577,-3.6238,-3.5204,-3.5204,-3.3847,-3.2916,-3.2916,-3.2916,-3.2916,-3.2916,-3.2916,-3.2916,-3.2916,-3.2916,-3.2916,-3.2916,-3.3099,-3.319,-3.319,-3.3597,-3.3842,-3.3947,-3.4316,-3.4583,-3.4711,-3.4831,-3.4908,0.0,-2.6591,-2.6832,-2.71,-2.7255,0.0,0.0,0.0,0.0,0.0,-2.9058,-2.9499,-2.9454,-2.971,-2.9946,-2.9902,-2.9918,0.0,0.0,0.0,0.0,0.0,0.0,0.0,0.0,0.0,0.0,0.0,0.0,0.0,-3.4101,-3.4101,-3.4101,-3.4101,-3.4101,-3.4101,-3.4101,-3.4101,-3.4101,-3.4101,-3.4101,-3.4101,-3.4101,-3.4101,-3.4101,-3.4101,-3.4101,-3.4101,0.0,-3.425,-3.4448,-3.4739,-3.5008,-3.5424,-3.5827,-3.5941,-3.6131,-3.6301,-3.6301,-3.6301,-3.6301,-3.6301,-3.6301,-3.6301,-3.6301,-3.6301,-3.6301,-3.6301,-3.6301,-3.6301,-3.6301,-3.6502,-3.6725,-3.6948,-3.7143,-3.7372,-3.7558,-3.7577,-3.7577,-3.7577,-3.7577,-3.7577,-3.7577,-3.7577,-3.7577,-3.7577,-3.6488,-3.5543,-3.5257,-3.4115,-3.3223,-3.292,-3.2916,-3.2916,-3.2916,-3.2916,-3.2916,-3.2916,-3.2961,-3.3024,-3.3024,-3.3309,-3.3465,-3.3465,-3.3842,-3.4049,-3.4148,-3.445,-3.471,-3.4908,-3.4908,-3.4908,0.0,0.0,0.0,0.0,0.0,0.0,0.0,0.0,0.0,0.0,0.0,0.0,0.0,-3.0017,-2.9973,-2.9946,-2.9902,0.0,0.0,0.0,0.0,0.0,0.0,0.0,0.0,0.0,0.0,0.0,0.0,0.0,-3.4101,-3.4101,-3.4101,-3.4101,-3.4101,-3.4101,-3.4101,-3.4101,-3.4101,-3.4101,-3.4101,-3.4101,-3.4101,-3.4101,-3.4101,0.0,-3.4101,-3.4101,-3.4151,-3.4546,-3.4739,-3.4835,-3.5543,-3.581,-3.5854,-3.6174,-3.6301,-3.6301,-3.6301,-3.6301,-3.6301,-3.6301,-3.6301,-3.6301,-3.6301,-3.6301,-3.6301,-3.6301,-3.6301,-3.6301,-3.6301,-3.6502,-3.6725,-3.6948,-3.7143,-3.7372,-3.7558,-3.7577,-3.7577,-3.7577,-3.7577,-3.7577,-3.7577,-3.7577,-3.7577,-3.7577,-3.6916,-3.6114,-3.5311,-3.4561,-3.3794,-3.3005,-3.2916,-3.2916,-3.2916,-3.2916,-3.2916,-3.2916,-3.3117,-3.322,-3.322,-3.368,-3.3895,-3.3895,-3.4124,-3.4221,-3.4221,-3.4495,-3.471,-3.4908,-3.4908,-3.4908,-2.4678,0.0,-2.636,-2.6997,0.0,0.0,0.0,0.0,0.0,0.0,0.0,0.0,0.0,0.0,0.0,0.0,0.0,0.0,0.0,0.0,0.0,0.0,0.0,0.0,0.0,0.0,0.0,0.0,0.0,-3.4101,-3.4101,-3.4101,-3.4101,-3.4101,-3.4101,-3.4101,-3.4101,-3.4101,-3.4101,-3.4101,-3.4101,-3.4101,-3.4101,-3.4101,-3.4101,-3.4101,-3.4101,-3.425,-3.4546,-3.4643,-3.5008,-3.556,-3.5739,-3.5958,-3.6216,-3.6259,-3.6301,-3.6301,-3.6301,-3.6301,-3.6301,-3.6301,-3.6301,-3.6301,-3.6301,-3.6301,-3.6301,-3.6301,-3.6301,-3.6301,-3.6301,-3.6502,-3.6725,-3.6948,-3.7143,-3.7372,-3.7558,-3.7577,-3.7577,-3.7577,-3.7577,-3.7577,-3.7577,-3.7577,-3.7577,-3.7577,-3.6916,-3.6114,-3.5311,-3.4561,-3.3794,-3.3005,-3.2916,-3.2961,-3.3099,-3.2993,-3.2961,-3.3129,-3.316,-3.328,-3.3502,-3.3762,-3.3895,-3.3895,-3.4293,-3.4517,-3.4517,-3.4711,-3.4851,-3.4908,-3.4908,-3.4908,-2.4417,-2.5444,-2.65,-2.7397,-2.8088,-2.8638,0.0,0.0,0.0,0.0,0.0,0.0,0.0,0.0,0.0,0.0,0.0,0.0,0.0,0.0,0.0,0.0,0.0,0.0,0.0,0.0,0.0,0.0,0.0,-3.4101,-3.4101,-3.4101,-3.4101,-3.4101,-3.4101,-3.4101,-3.4101,-3.4101,-3.4101,-3.4101,-3.4101,-3.4101,-3.4101,-3.4101,-3.4201,-3.4399,-3.4399,-3.4578,-3.4961,-3.5148,-3.5453,-3.5827,-3.5958,-3.6131,-3.6301,-3.6301,-3.6301,-3.6301,-3.6301,-3.6301,-3.6301,-3.6301,-3.6301,-3.6301,-3.6301,-3.6301,-3.6301,-3.6301,-3.6301,-3.6301,-3.6301,-3.6568,-3.6886,-3.6987,-3.7203,-3.7484,-3.7594,-3.7577,-3.7577,-3.7577,-3.7577,-3.7577,-3.7577,-3.7577,-3.7577,-3.7577,-3.722,-3.6524,-3.5364,-3.4965,-3.4333,-3.3149,-3.3147,-3.3268,-3.3368,-3.3298,-3.3268,-3.3386,-3.3484,-3.3597,-3.3726,-3.3921,-3.4049,-3.4049,-3.4293,-3.4473,-3.4602,-3.471,-3.4811,-3.4908,-3.4908,-3.4908,-2.4402,-2.5561,-2.6794,-2.7984,-2.8729,-2.9387,0.0,0.0,0.0,0.0,0.0,0.0,0.0,0.0,0.0,0.0,0.0,0.0,0.0,0.0,0.0,0.0,0.0,0.0,0.0,0.0,0.0,0.0,0.0,-3.4101,-3.4101,-3.4101,-3.4101,-3.4101,-3.4101,-3.4151,-3.4201,-3.4151,-3.4101,-3.4101,-3.4101,-3.4151,-3.4201,-3.4201,-3.4399,-3.4787,0.0,0.0,-3.5316,-3.5677,-3.5827,-3.5898,-3.6174,-3.6301,-3.6301,-3.6301,-3.6301,-3.6301,-3.6301,-3.6301,-3.6301,-3.6301,-3.6301,-3.6301,-3.6301,-3.6301,-3.6301,-3.6301,-3.6301,-3.6301,-3.6301,-3.665,-3.6948,-3.6987,-3.7279,-3.754,-3.7577,-3.7577,-3.7577,-3.7577,-3.7577,-3.7577,-3.7577,-3.7577,-3.7577,-3.7577,-3.7577,-3.7006,-3.5418,-3.5424,-3.4943,-3.334,-3.3357,-3.3502,-3.3587,-3.3605,-3.3633,-3.3671,-3.3815,-3.3921,-3.3947,-3.4124,-3.4197,-3.4197,-3.4221,-3.434,-3.4602,-3.4623,-3.471,-3.4908,-3.4908,-3.4908,-2.478,-2.5579,-2.6403,-2.733,-2.8126,-2.8893,0.0,0.0,0.0,0.0,0.0,0.0,0.0,0.0,0.0,0.0,0.0,0.0,0.0,0.0,0.0,0.0,0.0,0.0,0.0,0.0,0.0,0.0,0.0,-3.4101,-3.4101,-3.4101,-3.4101,-3.4101,-3.4101,-3.425,-3.4594,-3.425,-3.4101,-3.4101,-3.4101,-3.43,-3.4594,-3.4594,-3.4771,-3.5131,0.0,-3.5362,-3.5722,-3.5766,-3.5958,-3.6216,-3.6301,-3.6301,-3.6301,-3.6301,-3.6301,-3.6301,-3.6301,-3.6301,-3.6301,-3.6301,-3.6301,-3.6301,-3.6301,-3.6301,-3.6301,-3.6301,-3.6301,-3.6301,-3.6301,-3.6544,-3.6806,-3.6948,-3.7182,-3.741,-3.754,-3.7577,-3.7577,-3.7577,-3.7577,-3.7577,-3.7577,-3.7577,-3.7577,-3.7577,-3.7577,-3.7006,-3.5418,-3.5256,-3.4682,-3.3108,-3.2961,-3.3178,-3.3577,-3.3605,-3.3753,-3.4099,-3.3972,-3.3972,-3.4148,-3.4173,-3.4197,-3.4197,-3.4316,-3.445,-3.4602,-3.4708,-3.481,-3.4908,-3.4908,-3.4908,-2.4918,-2.5353,-2.5791,-2.685,-2.8049,-2.9179,0.0,0.0,0.0,0.0,0.0,0.0,0.0,0.0,0.0,0.0,0.0,0.0,0.0,0.0,0.0,0.0,0.0,0.0,0.0,0.0,0.0,0.0,0.0,0.0,-3.4101,-3.4101,-3.4201,-3.4399,-3.4448,-3.4578,-3.4961,-3.4818,-3.4706,-3.4706,-3.4706,-3.4802,-3.4961,-3.4961,-3.5178,-3.5543,0.0,-3.5722,-3.6088,-3.6088,-3.6174,-3.6301,-3.6301,-3.6301,-3.6301,-3.6301,-3.6301,-3.6301,-3.6301,-3.6301,-3.6301,-3.6301,-3.6301,-3.6301,-3.6301,-3.6301,-3.6301,-3.6301,-3.6301,-3.6301,-3.6301,-3.6502,-3.6725,-3.6948,-3.7143,-3.7372,-3.7558,-3.7577,-3.7577,-3.7577,-3.7577,-3.7577,-3.7577,-3.7577,-3.7577,-3.7577,-3.7577,-3.7006,-3.5418,-3.5323,-3.4813,-3.3216,-3.3178,-3.3357,-3.3577,-3.3698,-3.3895,-3.4173,-3.4124,-3.4099,-3.4197,-3.4197,-3.4197,-3.4197,-3.4269,-3.4386,-3.4602,-3.4666,-3.4751,-3.4908,-3.4908,-3.4908,-2.5176,-2.5362,-2.5577,0.0,0.0,0.0,0.0,0.0,0.0,0.0,0.0,0.0,0.0,0.0,0.0,0.0,0.0,0.0,0.0,0.0,0.0,0.0,0.0,0.0,0.0,0.0,0.0,0.0,0.0,0.0,-3.425,-3.425,-3.4448,-3.4771,-3.4835,-3.5008,-3.5362,-3.5362,-3.5316,-3.5224,-3.5224,-3.527,-3.5362,-3.5224,-3.5453,-3.5915,-3.581,-3.5958,-3.6174,-3.6259,-3.6216,-3.6071,-3.6216,-3.6301,-3.6301,-3.6301,-3.6301,-3.6301,-3.6301,-3.6301,-3.6301,-3.6301,-3.6301,-3.6301,-3.6301,-3.6301,-3.6301,-3.6301,-3.6301,-3.6301,-3.6301,-3.6444,-3.6684,-3.6948,-3.7105,-3.7297,-3.7558,-3.7577,-3.7577,-3.7577,-3.7577,-3.7577,-3.7577,-3.7577,-3.7577,-3.7577,-3.7577,-3.7077,-3.5667,-3.5498,-3.4983,-3.3579,-3.3436,-3.3473,-3.3605,-3.3834,-3.4049,-3.4197,-3.4197,-3.4197,-3.4197,-3.4197,-3.4197,-3.4197,-3.4221,-3.4363,-3.4602,-3.4645,-3.473,-3.4908,-3.4908,-3.4908,-2.5828,-2.5937,-2.6118,-2.6836,0.0,0.0,0.0,0.0,0.0,0.0,0.0,0.0,0.0,0.0,0.0,0.0,0.0,0.0,0.0,0.0,0.0,0.0,0.0,0.0,0.0,0.0,0.0,0.0,0.0,0.0,-3.4643,-3.4643,-3.4818,-3.5131,-3.5178,-3.5362,-3.5722,-3.5783,-3.5588,-3.5224,-3.5224,-3.5407,-3.5722,-3.5362,-3.5588,-3.6259,-3.5958,-3.5827,-3.5871,-3.6174,-3.5898,-3.5362,-3.6028,-3.6301,-3.6301,-3.6301,-3.6301,-3.6301,-3.6301,-3.6301,-3.6301,-3.6301,-3.6301,-3.6301,-3.6301,-3.6301,-3.6301,-3.6301,-3.6301,-3.6301,-3.6301,-3.6301,-3.6426,-3.6891,-3.7027,-3.7143,-3.7503,-3.7577,-3.7577,-3.7577,-3.7577,-3.7577,-3.7577,-3.7577,-3.7577,-3.7577,-3.7577,-3.7273,-3.6417,-3.5667,-3.4934,-3.413,-3.3394,-3.3117,-3.3559,-3.3947,-3.4173,-3.4197,-3.4197,-3.4197,-3.4197,-3.4197,-3.4197,-3.4197,-3.4316,-3.4473,-3.4602,-3.4708,-3.483,-3.4908,-3.4908,-3.4908,-2.599,-2.6063,-2.604,-2.6319,0.0,0.0,0.0,0.0,0.0,0.0,0.0,0.0,0.0,0.0,0.0,0.0,0.0,0.0,0.0,0.0,0.0,0.0,0.0,0.0,0.0,0.0,0.0,0.0,0.0,0.0,-3.4991,-3.4835,-3.4961,-3.5543,-3.5588,-3.5722,-3.6131,-3.5898,-3.5722,-3.5588,-3.5588,-3.5633,-3.5783,-3.5407,-3.5362,-3.5616,-3.5722,-3.5633,-3.5453,-3.581,-3.581,-3.5633,-3.6114,-3.6301,-3.6301,-3.6301,-3.6301,-3.6301,-3.6301,-3.6301,-3.6301,-3.6301,-3.6301,-3.6301,-3.6301,-3.6301,-3.6301,-3.6301,-3.6301,-3.6301,-3.6301,-3.6301,-3.6385,-3.6708,-3.6908,-3.7066,-3.7372,-3.7521,-3.7577,-3.7577,-3.7577,-3.7577,-3.7577,-3.7577,-3.7577,-3.7577,-3.7577,-3.7291,-3.6488,-3.6131,-3.554,-3.4401,-3.3725,-3.3473,-3.378,-3.3921,-3.4074,-3.4197,-3.4197,-3.4197,-3.4197,-3.4197,-3.4197,-3.4197,-3.434,-3.4473,-3.4602,-3.4728,-3.483,-3.4908,-3.4908,-3.4908,-2.6079,-2.6063,-2.5974,0.0,0.0,0.0,0.0,0.0,0.0,0.0,0.0,0.0,0.0,0.0,0.0,0.0,0.0,0.0,0.0,0.0,0.0,0.0,0.0,0.0,0.0,0.0,0.0,0.0,0.0,0.0,0.0,-3.4124,-3.4455,-3.5409,-3.5338,-3.5572,-3.6131,-3.5766,-3.5588,-3.5588,-3.5498,-3.5498,-3.5588,-3.5224,-3.5085,-3.5224,-3.5362,-3.5287,-3.5085,-3.5588,-3.5871,-3.5941,-3.6071,-3.6216,-3.6301,-3.6301,-3.6301,-3.6301,-3.6301,-3.6301,-3.6301,-3.6301,-3.6301,-3.6301,-3.6301,-3.6301,-3.6301,-3.6301,-3.6301,-3.6301,-3.6301,-3.6301,-3.636,-3.6661,-3.6806,-3.6987,-3.722,-3.741,-3.7503,-3.7594,-3.7577,-3.7577,-3.7577,-3.7577,-3.7577,-3.7577,-3.7577,-3.7417,-3.6987,-3.6682,-3.6121,-3.5028,-3.4652,-3.4412,-3.43,-3.4378,-3.4345,-3.4216,-3.4197,-3.4197,-3.4197,-3.4197,-3.4197,-3.4197,-3.4363,-3.4517,-3.4602,-3.4749,-3.4869,-3.4908,-3.4908,-3.4908,-2.6026,-2.601,0.0,0.0,0.0,0.0,0.0,0.0,0.0,0.0,0.0,0.0,0.0,0.0,0.0,0.0,0.0,0.0,0.0,0.0,0.0,0.0,0.0,0.0,0.0,0.0,0.0,0.0,0.0,0.0,-3.25,-3.25,-3.3173,-3.4653,-3.4385,-3.4695,-3.5793,-3.5391,-3.5207,-3.5144,-3.4866,-3.4866,-3.5178,-3.4866,-3.4866,-3.5178,-3.4818,-3.4707,-3.4739,-3.5515,-3.6002,-3.6259,-3.5941,-3.6002,-3.6301,-3.6301,-3.6301,-3.6301,-3.6301,-3.6301,-3.6301,-3.6301,-3.6301,-3.6301,-3.6301,-3.6301,-3.6301,-3.6301,-3.6301,-3.6301,-3.6301,-3.6301,-3.636,-3.6643,-3.6702,-3.6806,-3.722,-3.7297,-3.7372,-3.754,-3.7577,-3.7577,-3.7577,-3.7577,-3.7577,-3.7577,-3.7613,-3.7685,-3.7949,-3.7313,-3.6598,-3.6079,-3.6229,-3.6058,-3.5183,-3.5358,-3.5126,-3.4271,-3.4197,-3.4197,-3.4197,-3.4197,-3.4197,-3.4197,-3.4473,-3.4602,-3.4602,-3.4811,-3.4908,-3.4908,-3.4908,-3.4908,-2.6026,0.0,0.0,0.0,0.0,0.0,0.0,0.0,0.0,0.0,0.0,0.0,0.0,0.0,0.0,0.0,0.0,0.0,0.0,0.0,0.0,0.0,0.0,0.0,0.0,0.0,0.0,0.0,0.0,0.0,-3.3212,-3.2752,-3.3044,-3.4226,-3.3694,-3.3812,-3.461,-3.3728,-3.3399,-3.365,-3.3592,-3.4166,-3.5178,-3.4866,-3.4866,-3.5224,-3.5407,-3.5316,-3.5085,-3.5588,-3.5871,-3.5958,-3.6088,-3.6216,-3.6301,-3.6301,-3.6301,-3.6301,-3.6301,-3.6301,-3.6301,-3.6301,-3.6301,-3.6301,-3.6301,-3.6301,-3.6301,-3.6301,-3.6301,-3.6301,-3.6301,-3.6301,-3.6301,-3.6402,-3.6544,-3.6766,-3.7027,-3.7182,-3.7372,-3.754,-3.7577,-3.7577,-3.7577,-3.7577,-3.7577,-3.7577,-3.7757,-3.7984,-3.8252,-3.7716,-3.7234,-3.7055,-3.6786,-3.6515,-3.6255,-3.6307,-3.598,-3.5163,-3.5107,-3.4829,-3.4234,-3.4197,-3.4197,-3.4197,-3.4473,-3.4602,-3.4602,-3.4811,-3.4908,-3.4908,-3.4908,-3.4908,-2.599,0.0,0.0,0.0,0.0,0.0,0.0,0.0,0.0,0.0,0.0,0.0,0.0,0.0,0.0,0.0,0.0,0.0,0.0,0.0,0.0,0.0,0.0,0.0,0.0,0.0,0.0,0.0,0.0,-3.1226,-3.2418,-3.2059,-3.232,-3.3379,-3.2916,-3.3026,-3.3842,-3.3074,-3.2813,-3.2988,-3.3024,-3.3591,-3.4549,-3.4648,-3.4835,-3.5008,-3.5407,-3.5498,-3.5453,-3.5677,-3.5871,-3.6045,-3.6216,-3.6301,-3.6301,-3.6301,-3.6301,-3.6301,-3.6301,-3.6301,-3.6301,-3.6301,-3.6301,-3.6301,-3.6301,-3.6301,-3.6301,-3.6301,-3.6301,-3.6301,-3.6301,-3.6301,-3.6301,-3.6301,-3.6502,-3.6783,-3.6948,-3.7143,-3.7372,-3.754,-3.7577,-3.7577,-3.7577,-3.7577,-3.7649,-3.7757,-3.8086,-3.8382,-3.8559,-3.8313,-3.8145,-3.8145,-3.7849,-3.7522,-3.7188,-3.7169,-3.6816,-3.6017,-3.5665,-3.5256,-3.4736,-3.4383,-3.4197,-3.4197,-3.4427,-3.4539,-3.4602,-3.479,-3.487,-3.4908,-3.4908,-3.4908,0.0,0.0,0.0,0.0,0.0,0.0,0.0,0.0,0.0,0.0,0.0,0.0,0.0,0.0,0.0,0.0,0.0,0.0,0.0,0.0,0.0,0.0,0.0,0.0,0.0,0.0,0.0,0.0,-3.0309,-3.0477,-3.0788,-3.0804,-3.1268,-3.2304,-3.1974,-3.2294,-3.3359,-3.2975,-3.282,-3.2837,-3.2887,-3.3076,-3.3388,-3.4205,-3.4622,-3.4783,-3.5031,-3.5431,-3.5854,-3.5827,-3.6002,-3.6301,-3.6301,-3.6301,-3.6301,-3.6301,-3.6301,-3.6301,-3.6301,-3.6301,-3.6301,-3.6301,-3.6301,-3.6301,-3.6301,-3.6301,-3.6301,-3.6301,-3.6301,-3.6301,-3.6301,-3.6301,-3.6301,-3.6343,-3.6502,-3.6783,-3.6948,-3.7143,-3.7372,-3.754,-3.7577,-3.7577,-3.7577,-3.7613,-3.7757,-3.8018,-3.8496,-3.8822,-3.8803,-3.9007,-3.9101,-3.9101,-3.9101,-3.8804,-3.8061,-3.8005,-3.7671,-3.6853,-3.611,-3.5646,-3.5497,-3.4661,-3.4197,-3.4197,-3.434,-3.4473,-3.4602,-3.4728,-3.483,-3.4908,-3.4908,-3.4908,0.0,0.0,0.0,0.0,0.0,0.0,0.0,0.0,0.0,0.0,0.0,0.0,0.0,0.0,0.0,0.0,0.0,0.0,0.0,0.0,0.0,0.0,0.0,0.0,0.0,0.0,0.0,0.0,-3.0199,-3.0477,-3.0788,-3.0804,-3.1168,-3.1912,-3.136,-3.1404,-3.2152,-3.1573,-3.1412,-3.167,-3.1976,-3.216,-3.2261,-3.3296,-3.4253,-3.5087,-3.4822,-3.5292,-3.6174,-3.5915,-3.6002,-3.6301,-3.6301,-3.6301,-3.6301,-3.6301,-3.6301,-3.6301,-3.6301,-3.6301,-3.6301,-3.6301,-3.6301,-3.6301,-3.6301,-3.6301,-3.6301,-3.6301,-3.6301,-3.6301,-3.6301,-3.6301,-3.6343,-3.6544,-3.6643,-3.6783,-3.6948,-3.7143,-3.7372,-3.754,-3.7577,-3.7577,-3.7577,-3.7774,-3.8086,-3.8559,-3.8713,-3.8862,-3.9017,-3.9073,-3.9101,-3.9101,-3.9101,-3.9027,-3.8859,-3.8841,-3.8488,-3.7689,-3.7466,-3.6816,-3.5535,-3.4661,-3.4197,-3.4197,-3.434,-3.4473,-3.4602,-3.4728,-3.483,-3.4908,-3.4908,-3.4908,0.0,0.0,0.0,0.0,0.0,0.0,0.0,0.0,0.0,0.0,0.0,0.0,0.0,0.0,0.0,0.0,0.0,0.0,0.0,0.0,0.0,0.0,0.0,0.0,0.0,0.0,0.0,-3.0087,-3.0225,-3.0477,-3.0788,-3.0804,-3.0965,-3.1295,-3.0965,-3.0965,-3.1334,-3.1123,-3.114,-3.1295,-3.1529,-3.1513,-3.1424,-3.2848,-3.3826,-3.4425,-3.4201,-3.4363,-3.478,-3.4738,-3.484,-3.5042,-3.5587,-3.5766,-3.5818,-3.6163,-3.6301,-3.6301,-3.6301,-3.6301,-3.6301,-3.6301,-3.6301,-3.6301,-3.6301,-3.6301,-3.6301,-3.6301,-3.6301,-3.6301,-3.6301,-3.6402,-3.6544,-3.6661,-3.6766,-3.6886,-3.7105,-3.7297,-3.7466,-3.7594,-3.7577,-3.7577,-3.7577,-3.7915,-3.8318,-3.8743,-3.8892,-3.896,-3.9101,-3.9101,-3.9101,-3.9101,-3.9101,-3.9101,-3.9101,-3.9101,-3.8915,-3.8488,-3.8098,-3.7336,-3.6129,-3.5256,-3.4624,-3.4197,-3.4269,-3.4363,-3.4495,-3.4645,-3.4749,-3.4849,-3.4889,-3.4908,0.0,0.0,0.0,0.0,0.0,0.0,0.0,0.0,0.0,0.0,0.0,0.0,0.0,0.0,0.0,0.0,0.0,0.0,0.0,0.0,0.0,0.0,0.0,0.0,0.0,0.0,0.0,-3.0225,-3.0251,-3.0418,-3.0707,-3.0723,-3.0764,-3.0764,-3.0707,-3.0666,-3.0666,-3.0948,-3.1083,-3.1083,-3.1123,-3.1044,-3.0838,-3.235,-3.3134,-3.3311,-3.3311,-3.3212,-3.31,-3.3372,-3.3539,-3.369,-3.4627,-3.5007,-3.5076,-3.5697,-3.5921,-3.5939,-3.6059,-3.6111,-3.6128,-3.6266,-3.6301,-3.6301,-3.6301,-3.6301,-3.6301,-3.6301,-3.6301,-3.6301,-3.6343,-3.6544,-3.6702,-3.6783,-3.6926,-3.7105,-3.7259,-3.7447,-3.7577,-3.7577,-3.7649,-3.7685,-3.7721,-3.8153,-3.8541,-3.8762,-3.895,-3.9045,-3.9045,-3.9045,-3.9073,-3.9101,-3.9101,-3.9101,-3.9101,-3.9101,-3.9101,-3.9101,-3.8469,-3.7745,-3.6928,-3.6129,-3.5293,-3.4439,-3.4271,-3.4269,-3.4386,-3.4539,-3.4666,-3.4788,-3.487,-3.4908,0.0,0.0,0.0,0.0,0.0,0.0,0.0,0.0,0.0,0.0,0.0,0.0,0.0,0.0,0.0,0.0,0.0,0.0,0.0,0.0,0.0,0.0,0.0,0.0,0.0,0.0,0.0,-2.9946,-3.0156,-3.0293,-3.0377,-3.0477,-3.0559,-3.0559,-3.0302,-3.0218,-3.0218,-3.026,-3.026,-3.026,-3.0502,-3.0666,-3.0804,-3.1046,-3.1539,-3.2219,-3.2144,-3.2513,-3.31,-3.3084,-3.3271,-3.3639,-3.406,-3.4231,-3.4249,-3.4352,-3.4387,-3.4473,-3.5128,-3.5335,-3.5439,-3.6094,-3.6301,-3.6301,-3.6301,-3.6301,-3.6301,-3.6301,-3.6301,-3.6343,-3.6602,-3.6643,-3.6783,-3.7161,-3.722,-3.7259,-3.7297,-3.7447,-3.7577,-3.7577,-3.7792,-3.8018,-3.8252,-3.8559,-3.8762,-3.8773,-3.8803,-3.8833,-3.8833,-3.8833,-3.8921,-3.9073,-3.9101,-3.9101,-3.9101,-3.9101,-3.9101,-3.9101,-3.9008,-3.8581,-3.7764,-3.6965,-3.6147,-3.533,-3.4569,-3.4269,-3.4386,-3.4539,-3.4666,-3.4788,-3.487,-3.4908,0.0,0.0,0.0,0.0,0.0,0.0,0.0,0.0,0.0,0.0,0.0,0.0,0.0,0.0,0.0,0.0,0.0,0.0,0.0,0.0,0.0,0.0,0.0,0.0,0.0,0.0,0.0,-2.9902,-2.987,-2.9853,-2.9853,-3.0011,-3.0097,-3.0097,-2.9995,-2.9951,-2.9951,-2.9848,-2.9892,-3.0038,-3.046,-3.0642,-3.0518,-3.0707,-3.089,-3.1058,-3.1208,-3.1391,-3.1565,-3.1883,-3.2144,-3.2372,-3.3132,-3.3421,-3.3473,-3.3921,-3.4093,-3.4145,-3.4456,-3.4576,-3.4628,-3.4956,-3.5059,-3.5059,-3.5059,-3.5059,-3.5059,-3.5059,-3.5123,-3.5312,-3.5861,-3.6182,-3.6538,-3.7152,-3.7372,-3.7484,-3.7484,-3.7558,-3.7649,-3.7774,-3.7915,-3.8119,-3.8559,-3.859,-3.8621,-3.8792,-3.8683,-3.8621,-3.8792,-3.8792,-3.8862,-3.9073,-3.9101,-3.9101,-3.9101,-3.9101,-3.9101,-3.9101,-3.9101,-3.8729,-3.7931,-3.7132,-3.6315,-3.5516,-3.4643,-3.4269,-3.4386,-3.4539,-3.4666,-3.4788,-3.487,-3.4908,0.0,0.0,0.0,0.0,0.0,0.0,0.0,0.0,0.0,0.0,0.0,0.0,0.0,0.0,0.0,0.0,0.0,0.0,0.0,0.0,0.0,0.0,0.0,0.0,0.0,0.0,0.0,-3.0119,-2.993,-2.9782,-2.9738,-2.9853,-2.9897,-2.9897,-2.9853,-2.9793,-2.9793,-2.9689,-2.9777,-3.007,-3.0477,-3.0601,-3.0393,-3.0683,-3.0666,-3.0418,-3.0666,-3.0683,-3.046,-3.1044,-3.1295,-3.1402,-3.2273,-3.2628,-3.2697,-3.3283,-3.3507,-3.3524,-3.3714,-3.3783,-3.3818,-3.4024,-3.4093,-3.4093,-3.4093,-3.4093,-3.4133,-3.4155,-3.422,-3.4439,-3.5165,-3.5729,-3.627,-3.6929,-3.7324,-3.7577,-3.7577,-3.7649,-3.7757,-3.788,-3.8052,-3.8318,-3.8652,-3.859,-3.8559,-3.8762,-3.859,-3.8496,-3.8762,-3.8792,-3.8862,-3.9073,-3.9101,-3.9101,-3.9101,-3.9101,-3.9101,-3.9101,-3.9101,-3.8822,-3.8228,-3.7225,-3.6408,-3.5813,-3.4785,-3.4293,-3.4386,-3.4539,-3.4666,-3.4788,-3.487,-3.4908,0.0,0.0,0.0,0.0,0.0,0.0,0.0,0.0,0.0,0.0,0.0,0.0,0.0,0.0,0.0,0.0,0.0,0.0,0.0,0.0,0.0,0.0,0.0,0.0,0.0,0.0,0.0,-3.0651,-3.0651,-3.0568,-3.0426,-3.0274,-3.0189,-3.0189,-2.9941,-2.9793,-2.9793,-2.9793,-2.9941,-3.0189,-3.0267,-3.0452,-3.0692,-3.0764,-3.0804,-3.0747,-3.0788,-3.0804,-3.0804,-3.1162,-3.1295,-3.1351,-3.1706,-3.1852,-3.1852,-3.1903,-3.1921,-3.2024,-3.2714,-3.2955,-3.3093,-3.3835,-3.4093,-3.4093,-3.4093,-3.4093,-3.4116,-3.4258,-3.4279,-3.4394,-3.4816,-3.5508,-3.6165,-3.6381,-3.7041,-3.7577,-3.7577,-3.7792,-3.7915,-3.7649,-3.8252,-3.8683,-3.8446,-3.8621,-3.8773,-3.8792,-3.859,-3.8496,-3.8762,-3.8792,-3.8862,-3.9073,-3.9101,-3.9101,-3.9101,-3.9101,-3.9101,-3.9101,-3.9101,-3.9082,-3.9045,-3.7522,-3.6668,-3.663,-3.5155,-3.4386,-3.4386,-3.4539,-3.4666,-3.4788,-3.487,-3.4908,0.0,0.0,0.0,0.0,0.0,0.0,0.0,0.0,0.0,0.0,0.0,0.0,0.0,0.0,0.0,0.0,0.0,0.0,0.0,0.0,0.0,0.0,0.0,0.0,0.0,0.0,0.0,0.0,-3.0658,-3.0493,-3.0368,-3.0452,-3.0452,-3.041,-3.0309,-3.0097,-2.9793,-2.9957,-3.0087,-3.0189,-3.0675,-3.0935,-3.1015,-3.11,-3.1257,-3.1428,-3.1218,-3.1123,-3.1123,-3.1466,-3.1634,-3.1634,-3.1746,-3.18,-3.18,-3.18,-3.18,-3.1834,-3.2093,-3.2179,-3.2231,-3.2524,-3.261,-3.261,-3.261,-3.2723,-3.2835,-3.2873,-3.3036,-3.3371,-3.4005,-3.4481,-3.5082,-3.6167,-3.7006,-3.7577,-3.7577,-3.781,-3.8018,-3.8086,-3.835,-3.8559,-3.8652,-3.8446,-3.835,-3.8528,-3.8318,-3.8318,-3.8743,-3.8792,-3.8862,-3.9073,-3.9101,-3.9101,-3.9101,-3.9101,-3.9101,-3.9101,-3.9101,-3.9101,-3.9101,-3.7541,-3.6686,-3.6686,-3.5101,-3.434,-3.4517,-3.4666,-3.4769,-3.485,-3.4889,-3.4908,0.0,0.0,0.0,0.0,0.0,0.0,0.0,0.0,0.0,0.0,0.0,0.0,0.0,0.0,0.0,0.0,0.0,0.0,0.0,0.0,0.0,0.0,0.0,0.0,0.0,0.0,0.0,-3.0965,-3.0845,0.0,-3.0617,-3.0723,-3.0781,-3.074,-3.074,-3.0617,-3.0293,-3.0468,-3.0568,-3.0651,-3.1112,-3.1308,-3.1329,-3.1428,-3.1596,-3.18,-3.1542,-3.1466,-3.1504,-3.1709,-3.18,-3.18,-3.18,-3.18,-3.18,-3.18,-3.18,-3.18,-3.18,-3.18,-3.18,-3.18,-3.1837,-3.191,-3.191,-3.2037,-3.2161,-3.2249,-3.2438,-3.2763,-3.3344,-3.3817,-3.449,-3.6024,-3.6809,-3.7255,-3.7523,-3.781,-3.8018,-3.8119,-3.8285,-3.8415,-3.8528,-3.8318,-3.8219,-3.8478,-3.8382,-3.8415,-3.8862,-3.8892,-3.8931,-3.9073,-3.9101,-3.9101,-3.9101,-3.9101,-3.9101,-3.9101,-3.9101,-3.9101,-3.9101,-3.7541,-3.6686,-3.6686,-3.5101,-3.434,-3.4539,-3.4623,-3.4749,-3.4869,-3.4869,-3.487,0.0,0.0,0.0,0.0,0.0,0.0,0.0,0.0,0.0,0.0,0.0,0.0,0.0,0.0,0.0,0.0,0.0,0.0,0.0,0.0,0.0,0.0,0.0,0.0,0.0,0.0,0.0,-3.1295,-3.1295,-3.1274,-3.119,-3.119,-3.119,-3.119,-3.119,-3.1213,-3.1295,-3.1235,-3.1291,-3.1479,-3.15,-3.1521,-3.1617,-3.1746,-3.18,-3.18,-3.18,-3.18,-3.18,-3.18,-3.18,-3.18,-3.18,-3.18,-3.18,-3.18,-3.18,-3.18,-3.18,-3.18,-3.18,-3.18,-3.1929,-3.2073,-3.2108,-3.2197,-3.2352,-3.2521,-3.2588,-3.2672,-3.2852,-3.3491,-3.449,-3.5989,-3.6363,-3.6613,-3.738,-3.781,-3.7915,-3.7649,-3.8018,-3.8318,-3.8052,-3.8219,-3.8478,-3.8762,-3.8773,-3.8862,-3.9073,-3.9101,-3.9101,-3.9101,-3.9101,-3.9101,-3.9101,-3.9101,-3.9101,-3.9101,-3.9101,-3.9101,-3.9101,-3.7578,-3.6705,-3.6686,-3.5211,-3.4423,-3.4386,-3.4386,-3.4539,-3.4788,-3.4788,-3.483,-2.5616,0.0,0.0,0.0,0.0,0.0,0.0,0.0,0.0,0.0,0.0,0.0,0.0,0.0,0.0,0.0,0.0,0.0,0.0,0.0,0.0,0.0,0.0,0.0,0.0,0.0,-3.1504,0.0,-3.1483,-3.1406,-3.1274,-3.123,-3.119,-3.119,-3.119,-3.123,-3.123,-3.0726,-3.0785,-3.1351,-3.0974,-3.1082,-3.1617,-3.1746,-3.18,-3.18,-3.18,-3.18,-3.18,-3.18,-3.18,-3.18,-3.18,-3.18,-3.18,-3.18,-3.18,-3.18,-3.18,-3.18,-3.18,-3.18,-3.1837,-3.191,-3.2054,-3.2197,-3.2352,-3.2521,-3.2705,-3.2852,-3.2884,-3.3491,-3.4222,-3.4633,-3.5596,-3.6453,-3.6684,-3.7238,-3.7757,-3.7845,-3.8018,-3.8086,-3.8018,-3.8052,-3.8186,-3.8478,-3.8683,-3.8862,-3.9073,-3.9101,-3.9101,-3.9101,-3.9101,-3.9101,-3.9101,-3.9101,-3.9101,-3.9101,-3.9101,-3.9101,-3.9101,-3.8098,-3.7281,-3.6705,-3.5715,-3.4878,-3.4245,-3.445,-3.4645,-3.4788,-3.4849,-3.4889,0.0,0.0,0.0,0.0,0.0,0.0,-2.5881,-2.5844,-2.5881,0.0,0.0,0.0,0.0,0.0,0.0,0.0,0.0,0.0,0.0,0.0,0.0,0.0,0.0,0.0,0.0,-3.0469,-3.0489,-3.06,-3.058,-3.0506,-3.0435,-3.0394,-3.0357,-3.0357,-3.0336,-3.0336,-3.0466,-2.9986,-2.9989,-3.0546,-3.0208,-3.0278,-3.0726,-3.1143,-3.1334,-3.1351,-3.1662,-3.18,-3.18,-3.18,-3.18,-3.18,-3.18,-3.18,-3.18,-3.18,-3.18,-3.18,-3.18,-3.1856,-3.1946,-3.1946,-3.2037,-3.2179,-3.2266,-3.2438,-3.2555,-3.2705,-3.2802,-3.2916,-3.2916,-3.3241,-3.3669,-3.4026,-3.4793,-3.5614,-3.6256,-3.6756,-3.7256,-3.7721,-3.781,-3.781,-3.781,-3.8018,-3.8219,-3.8382,-3.8695,-3.8979,-3.9073,-3.9101,-3.9101,-3.9101,-3.9101,-3.9101,-3.9101,-3.9101,-3.9101,-3.9101,-3.9101,-3.9101,-3.9101,-3.8321,-3.7671,-3.7206,-3.6073,-3.507,-3.4197,-3.434,-3.4517,-3.4727,-3.481,-3.487,0.0,0.0,0.0,0.0,0.0,0.0,-2.6225,-2.6118,-2.6082,-2.6624,0.0,0.0,0.0,0.0,0.0,0.0,0.0,0.0,0.0,0.0,0.0,0.0,0.0,0.0,-2.851,-2.872,-2.8941,-2.9104,-2.914,-2.9175,-2.9211,-2.9211,-2.9211,-2.9211,-2.9121,-2.9191,-2.9385,-2.9141,-2.916,-2.9472,-2.9351,-2.9351,-2.9523,-3.0231,-3.0558,-3.0593,-3.1248,-3.1593,-3.1679,-3.1679,-3.1731,-3.18,-3.18,-3.18,-3.18,-3.18,-3.18,-3.18,-3.1837,-3.1929,-3.2108,-3.2108,-3.2335,-3.2573,-3.2588,-3.2737,-3.2884,-3.2884,-3.2916,-3.2916,-3.2916,-3.2916,-3.3062,-3.3794,-3.4044,-3.4508,-3.5953,-3.6328,-3.6631,-3.7434,-3.7577,-3.7577,-3.7577,-3.8052,-3.8382,-3.8382,-3.8796,-3.9101,-3.9101,-3.9101,-3.9101,-3.9101,-3.9101,-3.9101,-3.9101,-3.9101,-3.9101,-3.9101,-3.9101,-3.9101,-3.9101,-3.8414,-3.7986,-3.7894,-3.6315,-3.5107,-3.4327,-3.4258,-3.434,-3.4583,-3.4747,-3.483,0.0,0.0,0.0,0.0,0.0,0.0,-2.5749,-2.5712,-2.5787,0.0,0.0,0.0,0.0,0.0,0.0,0.0,0.0,0.0,0.0,0.0,0.0,0.0,0.0,0.0,-2.8645,-2.859,-2.859,-2.8611,-2.8777,-2.896,-2.9211,-2.9211,-2.9211,-2.9211,-2.9175,-2.9175,-2.9263,-2.8665,-2.875,-2.9403,-2.8853,-2.8904,-2.9506,-2.9661,-2.973,-2.9748,-2.9886,-3.0317,-3.0903,-3.0903,-3.1248,-3.18,-3.18,-3.18,-3.18,-3.18,-3.18,-3.1837,-3.1982,-3.209,-3.2108,-3.2232,-3.2318,-3.2386,-3.2555,-3.2639,-3.2705,-3.2834,-3.2916,-3.2916,-3.2916,-3.2916,-3.2952,-3.308,-3.3633,-3.4365,-3.5239,-3.5935,-3.6631,-3.7434,-3.7577,-3.7577,-3.7577,-3.8052,-3.8382,-3.8382,-3.8796,-3.9101,-3.9101,-3.9101,-3.9101,-3.9101,-3.9101,-3.9101,-3.9101,-3.9101,-3.9101,-3.9101,-3.9101,-3.9101,-3.9101,-3.8952,-3.8562,-3.7912,-3.6315,-3.5404,-3.5237,-3.4652,-3.445,-3.4583,-3.4747,-3.483,0.0,0.0,0.0,-2.5616,0.0,0.0,0.0,-2.5824,-2.5881,-2.6154,0.0,0.0,0.0,0.0,0.0,0.0,0.0,0.0,0.0,0.0,0.0,0.0,0.0,0.0,-2.7664,-2.7719,-2.7754,-2.7754,-2.7841,-2.7964,-2.8151,-2.8151,-2.8202,-2.8253,-2.8202,-2.8202,-2.8253,-2.7858,-2.7875,-2.8354,-2.8008,-2.804,-2.842,-2.8782,-2.8954,-2.8972,-2.9351,-2.973,-3.0127,-3.0524,-3.0903,-3.1282,-3.1662,-3.18,-3.18,-3.18,-3.1856,-3.1965,-3.209,-3.2214,-3.237,-3.2438,-3.2539,-3.2639,-3.2705,-3.2737,-3.277,-3.2884,-3.2916,-3.2916,-3.2916,-3.2916,-3.2916,-3.2916,-3.3205,-3.3705,-3.449,-3.5257,-3.6042,-3.6845,-3.7327,-3.7649,-3.7792,-3.8119,-3.8465,-3.859,-3.8902,-3.9101,-3.9101,-3.9101,-3.9101,-3.9101,-3.9101,-3.9101,-3.9101,-3.9101,-3.9101,-3.9101,-3.9101,-3.9101,-3.9101,-3.9101,-3.8711,-3.7912,-3.7113,-3.6296,-3.5497,-3.5125,-3.4815,-3.4583,-3.4747,-3.483,0.0,0.0,0.0,0.0,0.0,-2.5654,0.0,0.0,0.0,-2.6225,0.0,0.0,0.0,0.0,0.0,0.0,0.0,0.0,0.0,0.0,0.0,0.0,0.0,0.0,-2.6468,-2.6708,-2.6876,-2.6909,-2.6909,-2.6975,-2.707,-2.707,-2.7152,-2.725,-2.7152,-2.7152,-2.7299,-2.7184,-2.7184,-2.7299,-2.7299,-2.7299,-2.7316,-2.792,-2.8178,-2.8213,-2.8816,-2.9161,-2.9351,-2.9989,-3.042,-3.0765,-3.1507,-3.18,-3.18,-3.18,-3.1946,-3.2108,-3.2144,-3.2335,-3.2606,-3.2639,-3.277,-3.2916,-3.2916,-3.2916,-3.2916,-3.2916,-3.2916,-3.2916,-3.2916,-3.2916,-3.2916,-3.2916,-3.2916,-3.3098,-3.3937,-3.4686,-3.5453,-3.6238,-3.7041,-3.7685,-3.7949,-3.8219,-3.8478,-3.8762,-3.896,-3.9101,-3.9101,-3.9101,-3.9101,-3.9101,-3.9101,-3.9101,-3.9101,-3.9101,-3.9101,-3.9101,-3.9101,-3.9101,-3.9101,-3.9101,-3.8785,-3.8135,-3.7968,-3.7169,-3.572,-3.5578,-3.5179,-3.4561,-3.4687,-3.481,0.0,0.0,0.0,0.0,-2.5616,0.0,0.0,0.0,-2.5637,-2.5675,0.0,0.0,0.0,0.0,0.0,0.0,0.0,0.0,0.0,0.0,0.0,0.0,0.0,0.0,-2.599,-2.617,-2.6382,-2.6606,-2.6657,-2.6742,-2.7007,-2.7007,-2.704,-2.7135,-2.7103,-2.7152,-2.7299,-2.7282,-2.7282,-2.7299,-2.7299,-2.7299,-2.7299,-2.7385,-2.742,-2.742,-2.7506,-2.792,-2.8523,-2.8627,-2.9472,-3.0765,-3.1507,-3.18,-3.18,-3.18,-3.1946,-3.2108,-3.2232,-3.242,-3.2639,-3.2802,-3.2884,-3.2916,-3.2916,-3.2916,-3.2916,-3.2916,-3.2916,-3.2916,-3.2916,-3.2916,-3.2916,-3.2916,-3.2916,-3.3098,-3.3937,-3.4686,-3.5453,-3.6238,-3.7041,-3.7685,-3.7949,-3.8219,-3.8478,-3.8762,-3.896,-3.9101,-3.9101,-3.9101,-3.9101,-3.9101,-3.9101,-3.9101,-3.9101,-3.9101,-3.9101,-3.9101,-3.9101,-3.9101,-3.9101,-3.9101,-3.9064,-3.8971,-3.8265,-3.7448,-3.6556,-3.5919,-3.5189,-3.4427,-3.4561,-3.4687,0.0,0.0,0.0,0.0,0.0,0.0,-2.5616,0.0,-2.5637,0.0,0.0,0.0,0.0,0.0,0.0,0.0,-2.5917,0.0,0.0,0.0,0.0,0.0,0.0,0.0,-2.6189,-2.6349,-2.6538,-2.6657,-2.6657,-2.6725,-2.6926,-2.6959,-2.6975,-2.7023,-2.707,-2.7135,-2.7184,-2.725,-2.7299,-2.7299,-2.7299,-2.7299,-2.7299,-2.7299,-2.7299,-2.7299,-2.7299,-2.7471,-2.7782,-2.8213,-2.9023,-3.0075,-3.0851,-3.142,-3.18,-3.18,-3.1965,-3.2232,-3.2283,-3.2488,-3.277,-3.2884,-3.2916,-3.2916,-3.2916,-3.2916,-3.2916,-3.2916,-3.2916,-3.2916,-3.2916,-3.2916,-3.2916,-3.2916,-3.2916,-3.2973,-3.333,-3.4347,-3.5311,-3.565,-3.6861,-3.7915,-3.8186,-3.8318,-3.8541,-3.8921,-3.9045,-3.9101,-3.9101,-3.9101,-3.9101,-3.9101,-3.9101,-3.9101,-3.9101,-3.9101,-3.9101,-3.9101,-3.9101,-3.9101,-3.9101,-3.9101,-3.9101,-3.9101,-3.8767,-3.8191,-3.7392,-3.6608,-3.5814,-3.5038,-3.4738,-3.4666,-2.5616,0.0,0.0,0.0,0.0,0.0,0.0,0.0,0.0,0.0,0.0,0.0,0.0,0.0,0.0,0.0,0.0,-2.6046,0.0,0.0,0.0,0.0,0.0,0.0,0.0,-2.6708,-2.6775,-2.6742,-2.6742,-2.6792,-2.6842,-2.6842,-2.6876,-2.6992,-2.7023,-2.707,-2.7103,-2.7233,-2.7299,-2.7299,-2.7299,-2.7299,-2.7299,-2.7299,-2.7299,-2.7299,-2.7299,-2.7299,-2.7333,-2.7885,-2.8661,-2.9558,-3.0144,-3.0955,-3.18,-3.1873,-3.2055,-3.2318,-3.2352,-3.2606,-3.2916,-3.2916,-3.2916,-3.2916,-3.2916,-3.2916,-3.2916,-3.2916,-3.2916,-3.2916,-3.2916,-3.2916,-3.2916,-3.2916,-3.2916,-3.2916,-3.2916,-3.4115,-3.5204,-3.5305,-3.6748,-3.8119,-3.8446,-3.8528,-3.8634,-3.9045,-3.9101,-3.9101,-3.9101,-3.9101,-3.9101,-3.9101,-3.9101,-3.9101,-3.9101,-3.9101,-3.9101,-3.9101,-3.9101,-3.9101,-3.9101,-3.9101,-3.9101,-3.9101,-3.9101,-3.8692,-3.7894,-3.7076,-3.6278,-3.5485,-3.4843,-3.4602,0.0,0.0,0.0,-2.5616,0.0,0.0,0.0,0.0,-2.5616,0.0,0.0,0.0,0.0,0.0,0.0,0.0,0.0,0.0,0.0,0.0,0.0,0.0,0.0,0.0,0.0,-2.6975,-2.6942,-2.6893,-2.6893,-2.6842,-2.6691,-2.6691,-2.6775,-2.6893,-2.6992,-2.7023,-2.7103,-2.7233,-2.7299,-2.7299,-2.7299,-2.7299,-2.7299,-2.7299,-2.7299,-2.7299,-2.7299,-2.7299,-2.7299,-2.7316,-2.8196,-2.9506,-2.9541,-3.0472,-3.1837,-3.2001,-3.2161,-3.2318,-3.2521,-3.2737,-3.2916,-3.2916,-3.2916,-3.2916,-3.2916,-3.2916,-3.2916,-3.2916,-3.2916,-3.2916,-3.2916,-3.2916,-3.2916,-3.2916,-3.2916,-3.2916,-3.2916,-3.4115,-3.5272,-3.5519,-3.6883,-3.8153,-3.8683,-3.8792,-3.8862,-3.9073,-3.9101,-3.9101,-3.9101,-3.9101,-3.9101,-3.9101,-3.9101,-3.9101,-3.9101,-3.9101,-3.9101,-3.9101,-3.9101,-3.9101,-3.9101,-3.9101,-3.9101,-3.9101,-3.9101,-3.8692,-3.7894,-3.7076,-3.6278,-3.5485,-3.475,-3.4427,0.0,0.0,-2.5917,-2.6082,0.0,0.0,0.0,0.0,0.0,0.0,0.0,0.0,0.0,0.0,0.0,0.0,0.0,0.0,0.0,0.0,0.0,0.0,0.0,0.0,0.0,0.0,0.0,-2.6893,-2.6825,-2.6742,-2.6691,-2.6691,-2.6742,-2.6775,-2.6909,-2.7007,-2.7023,-2.7218,-2.7299,-2.7299,-2.7299,-2.7299,-2.7299,-2.7299,-2.7299,-2.7299,-2.7299,-2.7299,-2.7299,-2.7299,-2.8161,-2.9506,-2.9642,-3.0647,-3.2018,-3.2073,-3.2161,-3.2352,-3.2672,-3.2834,-3.2916,-3.2916,-3.2916,-3.2916,-3.2916,-3.2916,-3.2916,-3.2916,-3.2916,-3.2916,-3.2916,-3.2916,-3.2916,-3.2916,-3.2916,-3.3059,-3.358,-3.449,-3.5398,-3.602,-3.7277,-3.8318,-3.851,-3.8785,-3.9017,-3.9101,-3.9101,-3.9045,-3.8921,-3.8892,-3.8892,-3.8892,-3.8892,-3.895,-3.9101,-3.9101,-3.9101,-3.9101,-3.9101,-3.9101,-3.9101,-3.9101,-3.9101,-3.9101,-3.9101,-3.8971,-3.8692,-3.7336,-3.6556,-3.6259,-3.4896,-3.4316,-2.5937,-2.6082,0.0,-2.6349,-2.6418,0.0,-2.6753,0.0,-2.652,0.0,0.0,0.0,0.0,0.0,0.0,0.0,0.0,0.0,0.0,-2.5974,0.0,0.0,0.0,0.0,0.0,0.0,-2.6742,-2.6957,-2.6859,-2.6808,0.0,-2.6808,-2.6808,-2.6808,-2.6957,-2.7023,-2.7023,-2.7218,-2.7299,-2.7299,-2.7299,-2.7299,-2.7299,-2.7299,-2.7299,-2.7299,-2.7299,-2.7299,-2.7299,-2.7299,-2.8161,-2.9506,-2.9742,-3.0749,-3.2108,-3.2249,-3.237,-3.2555,-3.2802,-3.2916,-3.2916,-3.2916,-3.2916,-3.2916,-3.2916,-3.2916,-3.3023,-3.3544,-3.3312,-3.3041,-3.3562,-3.3294,-3.2916,-3.2916,-3.2916,-3.3098,-3.3937,-3.4686,-3.5504,-3.6496,-3.7591,-3.8446,-3.8615,-3.8884,-3.9101,-3.9101,-3.9101,-3.9045,-3.8921,-3.8921,-3.8921,-3.8921,-3.8921,-3.8979,-3.9101,-3.9101,-3.9101,-3.9101,-3.9101,-3.9101,-3.9101,-3.9101,-3.9101,-3.9101,-3.9101,-3.9101,-3.9101,-3.7466,-3.6686,-3.6649,-3.4977,-3.4245]}]]